     2.11           OBSERVATION DATA    G (GPS)             RINEX VERSION / TYPE
teqc 2010Oct21 OPUS Account 20111028 16:57:52UTC            PGM / RUN BY / DATE
F 1527                                                      MARKER NAME
3063                                                        MARKER NUMBER
CSMIDDLETON NGS                                             OBSERVER / AGENCY
4624K01647 TRIMBLE NETR5 4.41                               REC # / TYPE / VERS
12694052 TRM41249.00 NONE                                   ANT # / TYPE
  -732501.7466 -5587026.4008  2978138.0122                  APPROX POSITION XYZ
        2.0040        0.0000        0.0000                  ANTENNA: DELTA H/E/N
     1     1                                                WAVELENGTH FACT L1/2
     5    L1    L2    C1    P1    P2                        # / TYPES OF OBSERV
    15                                                      LEAP SECONDS
  2011     8    25     0     0    0.0000000     GPS         TIME OF FIRST OBS
                                                            END OF HEADER
 11  8 25  0  0  0.0000000  0  9G04G10G17G12G09G05G02G25G30
 114110095.15317  88917092.86655  21714397.445                    21714406.129
 109717689.86818  85494470.84656  20878553.875                    20878562.297
 121802120.01217  94910804.47716  23178166.977                    23178176.367
 112887953.24317  87964697.56317  21481857.844                    21481865.273
 124291995.11116  96850986.02154  23651991.633                    23652003.098
 115364878.91717  89894796.39917  21953172.242                    21953182.242
 108479228.04618  84529445.60756  20642875.438                    20642881.051
 127090991.06716  99031994.44716  24184617.773                    24184629.641
 127103186.19715  99041501.09152  24186934.828                    24186947.859
 11  8 25  0  0 30.0000000  0  9G04G10G17G12G09G05G02G25G30
 114186678.341 8  88976768.06745  21728970.789                    21728979.699
 109719254.873 8  85495690.33246  20878851.531                    20878860.148
 121853770.880 7  94951051.861 6  23187995.648                    23188005.488
 112826797.440 7  87917043.722 7  21470220.148                    21470227.922
 124369218.831 6  96911160.22044  23666685.969                    23666698.457
 115275499.052 7  89825149.865 7  21936164.000                    21936173.531
 108479114.324 8  84529356.99846  20642853.992                    20642859.273
 126991206.548 7  98954240.340 6  24165628.625                    24165639.711
 127001075.269 5  98961934.26042  24167504.133                    24167516.184
 11  8 25  0  1  0.0000000  0  9G04G10G17G12G09G05G02G25G30
 114263392.916 7  89036545.64345  21743569.422                    21743578.270
 109721449.980 8  85497400.81746  20879269.781                    20879278.008
 121905578.620 7  94991421.492 6  23197854.281                    23197864.172
 112766065.704 7  87869720.308 7  21458663.586                    21458670.785
 124446609.462 6  96971464.47844  23681413.477                    23681425.512
 115186427.508 7  89755743.587 7  21919213.852                    21919223.465
 108479284.587 8  84529489.67846  20642885.969                    20642892.098
 126891591.618 7  98876618.387 6  24146673.555                    24146685.242
 126899184.749 6  98882539.17043  24148116.297                    24148126.352
 11  8 25  0  1 30.0000000  0  9G04G10G17G12G09G05G02G25G30
 114340236.619 8  89096423.83245  21758191.867                    21758200.855
 109724275.457 8  85499602.49446  20879807.211                    20879815.684
 121957543.889 7  95031913.850 6  23207742.758                    23207752.930
 112705760.419 7  87822729.216 7  21447187.719                    21447195.168
 124524163.437 7  97031896.02844  23696171.445                    23696183.391
 115097666.933 7  89686579.624 7  21902323.961                    21902332.660
 108479737.552 8  84529842.65546  20642972.305                    20642978.160
 126792148.682 7  98799130.451 6  24127750.148                    24127761.422
 126797517.355 6  98803317.95243  24128769.406                    24128779.203
 11  8 25  0  2  0.0000000  0  9G04G10G17G12G09G05G02G25G30
 114417207.959 8  89156401.49145  21772838.953                    21772847.977
 109727731.607 8  85502295.61146  20880464.547                    20880473.152
 122009667.310 7  95072529.459 6  23217661.633                    23217671.395
 112645884.107 7  87776072.378 7  21435793.469                    21435800.926
 124601877.655 7  97092452.40744  23710960.289                    23710972.430
 115009220.656 7  89617660.552 7  21885492.430                    21885502.031
 108480472.645 8  84530415.46746  20643112.000                    20643117.719
 126692880.629 7  98721778.822 6  24108859.898                    24108871.664
 126696076.078 6  98724272.89443  24109466.164                    24109475.871
 11  8 25  0  2 30.0000000  0  9G04G10G17G12G09G05G02G25G30
 114494304.825 8  89216476.97045  21787510.609                    21787519.051
 109731818.392 7  85505480.13046  20881242.406                    20881250.879
 122061949.415 7  95113268.706 6  23227611.070                    23227620.484
 112586439.189 8  87729751.696 7  21424481.484                    21424489.082
 124679748.865 7  97153131.12344  23725779.172                    23725791.152
 114921091.549 7  89548988.647 7  21868722.406                    21868731.738
 108481488.571 8  84531207.11746  20643305.266                    20643311.059
 126593790.137 7  98644565.547 6  24090003.180                    24090015.246
 126594863.661 7  98645406.18844  24090206.000                    24090215.398
 11  8 25  0  3  0.0000000  0  9G04G10G17G12G09G05G02G25G30
 114571524.921 8  89276648.48045  21802204.250                    21802213.219
 109736535.800 8  85509156.05246  20882139.961                    20882148.879
 122114390.706 7  95154131.994 6  23237590.242                    23237600.324
 112527427.534 8  87683768.617 7  21413251.984                    21413259.734
 124757773.420 7  97213929.32243  23740626.703                    23740638.625
 114833281.999 7  89480565.734 7  21852012.766                    21852021.980
 108482783.741 8  84532216.35446  20643551.867                    20643557.473
 126494879.504 7  98567492.410 6  24071180.914                    24071193.254
 126493882.756 7  98566719.87644  24070989.688                    24070999.426
 11  8 25  0  3 30.0000000  0  9G04G10G17G12G09G05G02G25G30
 114648866.689 8  89336914.78945  21816922.219                    21816931.066
 109741884.457 8  85513323.85746  20883157.977                    20883166.422
 122166992.083 7  95195120.032 6  23247599.508                    23247609.488
 112468851.984 8  87638125.359 7  21402105.500                    21402113.438
 124835948.225 7  97274844.58144  23755503.336                    23755514.945
 114745795.150 7  89412394.271 7  21835364.266                    21835373.477
 108484357.405 8  84533442.60646  20643851.344                    20643857.070
 126396151.631 7  98490561.734 7  24052393.398                    24052405.828
 126393136.407 6  98488216.30444  24051817.953                    24051827.500
 11  8 25  0  4  0.0000000  0  9G04G10G17G12G09G05G02G25G30
 114726328.145 8  89397274.35745  21831662.852                    21831671.930
 109747864.049 8  85517983.29846  20884295.602                    20884304.160
 122219753.789 7  95236233.020 6  23257639.508                    23257649.488
 112410714.616 8  87592823.544 7  21391042.203                    21391049.695
 124914269.861 7  97335874.27543  23770407.023                    23770418.527
 114658633.892 7  89344476.530 7  21818777.688                    21818787.406
 108486208.281 8  84534884.86946  20644203.656                    20644209.148
 126297609.158 7  98413775.471 7  24033641.250                    24033653.652
 126292627.380 7  98409897.70044  24032692.492                    24032701.734
 11  8 25  0  4 30.0000000  0  9G04G10G17G12G09G05G02G25G30
 114803907.245 8  89457725.58745  21846425.281                    21846434.281
 109754474.214 8  85523134.10346  20885553.570                    20885561.902
 122272676.719 7  95277471.629 6  23267711.195                    23267720.992
 112353017.479 7  87547864.764 7  21380062.578                    21380070.172
 124992734.797 7  97397015.63343  23785338.547                    23785349.898
 114571800.931 7  89276814.592 7  21802254.063                    21802263.141
 108488335.356 8  84536542.35446  20644608.352                    20644613.703
 126199254.610 7  98337135.682 7  24014925.133                    24014937.324
 126192358.475 6  98331766.15043  24013611.453                    24013620.945
 11  8 25  0  5  0.0000000  0  9G04G10G17G12G09G05G02G25G30
 114881602.199 8  89518267.09245  21861210.086                    21861219.281
 109761714.870 8  85528776.20546  20886931.617                    20886939.852
 122325761.208 7  95318836.129 6  23277812.523                    23277822.750
 112295762.804 8  87503250.754 7  21369168.016                    21369175.145
 125071339.712 7  97458266.06143  23800296.813                    23800308.281
 114485298.834 7  89209410.469 7  21785793.367                    21785802.453
 108490737.195 7  84538413.93846  20645065.016                    20645070.625
 126101090.523 7  98260644.275 7  23996245.398                    23996257.055
 126092332.464 6  98253823.87943  23994576.977                    23994586.648
 11  8 25  0  5 30.0000000  0  9G04G10G17G12G09G05G02G25G30
 114959410.999 7  89578897.30845  21876017.000                    21876025.844
 109769586.178 8  85534909.72046  20888429.164                    20888437.492
 122379007.842 7  95360326.957 6  23287945.750                    23287955.211
 112238953.040 8  87458983.436 7  21358356.961                    21358364.742
 125150081.287 7  97519622.98043  23815280.914                    23815293.219
 114399130.686 7  89142266.577 7  21769395.461                    21769404.902
 108493412.723 8  84540498.78246  20645574.031                    20645579.887
 126003119.688 7  98184303.482 6  23977601.594                    23977613.699
 125992552.218 6  98176073.11943  23975589.578                    23975598.859
 11  8 25  0  6  0.0000000  0  9G04G10G17G12G09G05G02G25G30
 115037331.836 7  89639614.84345  21890844.805                    21890853.398
 109778088.151 8  85541534.67446  20890047.172                    20890055.238
 122432417.438 7  95401944.767 6  23298108.633                    23298118.500
 112182590.760 8  87415064.804 7  21347632.102                    21347639.188
 125228956.160 7  97581083.73144  23830290.531                    23830302.684
 114313299.437 7  89075385.182 7  21753062.875                    21753071.977
 108496360.968 8  84542796.13846  20646135.539                    20646141.297
 125905344.762 6  98108115.352 6  23958995.867                    23959007.914
 125893020.729 6  98098516.24142  23956648.633                    23956658.668
 11  8 25  0  6 30.0000000  0  9G04G10G17G12G09G05G02G25G30
 115115362.949 7  89700418.27945  21905693.781                    21905702.793
 109787220.385 8  85548650.74346  20891784.961                    20891793.586
 122485990.292 7  95443689.788 6  23308302.781                    23308313.527
 112126677.790 8  87371496.279 7  21336991.844                    21336999.102
 125307961.039 7  97642645.79044  23845325.164                    23845337.113
 114227807.382 7  89008768.103 7  21736794.008                    21736803.484
 108499580.466 8  84545304.86346  20646748.359                    20646753.773
 125807768.399 6  98032081.944 6  23940426.938                    23940439.516
 125793740.753 6  98021155.25142  23937756.172                    23937765.902
 11  8 25  0  7  0.0000000  0  9G04G10G17G12G09G05G02G25G30
 115193502.148 7  89761305.94145  21920562.859                    21920572.313
 109796983.100 8  85556258.08646  20893642.961                    20893651.230
 122539727.065 7  95485562.553 6  23318528.781                    23318539.082
 112071216.420 8  87328279.642 7  21326437.711                    21326445.395
 125387092.448 7  97704306.42844  23860382.703                    23860395.578
 114142657.902 7  88942417.969 7  21720589.930                    21720599.477
 108503070.247 8  84548024.19046  20647411.945                    20647417.535
 125710393.078 6  97956205.208 6  23921897.336                    23921908.965
 125694715.066 6  97943992.41242  23918912.563                    23918922.922
 11  8 25  0  7 30.0000000  0  9G04G10G17G12G09G05G02G25G30
 115271747.827 7  89822276.56445  21935452.563                    21935461.711
 109807375.744 8  85564356.27946  20895620.547                    20895628.855
 122593628.035 7  95527563.226 6  23328786.141                    23328796.059
 112016208.864 8  87285416.631 7  21315970.180                    21315977.363
 125466347.074 7  97766063.07843  23875465.039                    23875477.008
 114057853.473 7  88876336.695 7  21704452.938                    21704461.730
 108506829.015 8  84550953.11746  20648127.430                    20648133.203
 125613221.557 7  97880487.228 6  23903406.109                    23903417.617
 125595946.542 6  97867029.98643  23900117.320                    23900127.105
 11  8 25  0  8  0.0000000  0  9G04G10G17G12G09G05G02G25G30
 115350097.966 7  89883328.57845  21950362.695                    21950371.215
 109818398.388 8  85572945.39046  20897717.820                    20897726.164
 122647693.996 7  95569692.508 6  23339074.266                    23339084.367
 111961657.546 8  87242909.138 7  21305589.281                    21305596.848
 125545721.667 6  97827913.24643  23890569.594                    23890582.191
 113973396.907 8  88810526.497 7  21688381.055                    21688390.211
 108510855.796 8  84554090.88946  20648893.516                    20648899.270
 125516256.532 7  97804930.158 6  23884954.875                    23884965.582
 125497437.980 7  97790270.12843  23881372.023                    23881381.434
 11  8 25  0  8 30.0000000  0  9G04G10G17G12G09G05G02G25G30
 115428550.513 8  89944460.40145  21965291.438                    21965300.668
 109830050.398 8  85582024.90746  20899935.195                    20899943.441
 122701925.327 7  95611950.657 6  23349394.125                    23349404.672
 111907563.976 8  87200758.321 7  21295295.844                    21295303.258
 125625212.623 6  97889854.05843  23905696.734                    23905708.801
 113889290.689 8  88744989.287 7  21672376.102                    21672384.715
 108515148.758 8  84557436.06346  20649710.508                    20649716.305
 125419500.269 7  97729535.715 6  23866542.391                    23866553.188
 125399191.920 6  97713714.85143  23862675.742                    23862685.645
 11  8 25  0  9  0.0000000  0  9G04G10G17G12G09G05G02G25G30
 115507103.951 8  90005670.82845  21980239.555                    21980248.496
 109842331.529 8  85591594.65346  20902272.336                    20902280.414
 122756322.743 7  95654338.202 6  23359746.383                    23359755.625
 111853930.876 8  87158966.314 7  21285090.055                    21285097.414
 125704816.840 6  97951883.10943  23920844.578                    23920857.004
 113805537.689 8  88679727.314 7  21656438.672                    21656447.328
 108519707.296 8  84560988.19146  20650578.055                    20650583.641
 125322955.786 7  97654306.305 6  23848170.922                    23848181.402
 125301211.616 7  97637366.66543  23844031.555                    23844040.637
 11  8 25  0  9 30.0000000  0  9G04G10G17G12G09G05G02G25G30
 115585756.470 8  90066958.46345  21995207.039                    21995216.164
 109855241.231 8  85601654.19246  20904728.664                    20904737.074
 122810886.782 7  95696855.599 6  23370129.203                    23370138.824
 111800760.358 8  87117534.757 7  21274971.727                    21274978.910
 125784530.959 6  98013997.77543  23936013.023                    23936026.262
 113722140.780 8  88614742.815 7  21640568.008                    21640577.195
 108524530.466 8  84564746.52446  20651495.508                    20651501.559
 125226625.671 7  97579243.894 6  23829839.477                    23829849.758
 125203499.771 6  97561227.67043  23825437.063                    23825446.336
 11  8 25  0 10  0.0000000  0  9G04G10G17G12G09G05G02G25G30
 115664505.919 8  90128321.63945  22010192.492                    22010201.551
 109868779.346 8  85612203.40146  20907305.000                    20907313.391
 122865617.661 7  95739502.969 6  23380543.883                    23380554.105
 111748054.161 7  87076465.012 7  21264942.188                    21264949.313
 125864351.334 6  98076195.25643  23951202.891                    23951215.637
 113639102.544 8  88550037.792 7  21624766.609                    21624775.438
 108529616.027 8  84568709.31546  20652463.695                    20652469.082
 125130512.356 7  97504350.438 6  23811549.172                    23811561.266
 125106058.989 6  97485299.94243  23806894.688                    23806904.086
 11  8 25  0 10 30.0000000  0  9G04G10G17G12G09G05G02G25G30
 115743351.050 7  90189759.37945  22025196.039                    22025205.188
 109882946.087 8  85623242.44646  20910000.844                    20910009.246
 122920516.428 7  95782281.168 7  23390991.063                    23391001.395
 111695814.989 8  87035759.180 7  21255001.258                    21255008.832
 125944274.771 6  98138473.02043  23966411.813                    23966424.840
 113556425.948 7  88485614.574 7  21609033.922                    21609042.723
 108534963.698 8  84572876.34546  20653481.508                    20653486.664
 125034618.948 7  97429628.315 6  23793301.875                    23793312.754
 125008892.523 6  97409585.93843  23788404.328                    23788413.715
 11  8 25  0 11  0.0000000  0  9G04G10G17G12G09G05G02G25G30
 115822289.800 7  90251270.05345  22040217.688                    22040226.363
 109897740.489 8  85634770.57346  20912815.867                    20912824.121
 122975583.198 7  95825190.282 6  23401470.109                    23401480.457
 111644044.885 8  86995418.857 7  21245149.625                    21245156.898
 126024298.132 6  98200828.67144  23981640.664                    23981653.434
 113474113.637 8  88421475.223 7  21593370.367                    21593379.313
 108540572.072 8  84577246.52746  20654548.328                    20654553.859
 124938948.041 7  97355079.572 7  23775096.180                    23775108.008
 124912003.129 6  97334087.84944  23769966.664                    23769976.102
 11  8 25  0 11 30.0000000  0  9G04G10G17G12G09G05G02G25G30
 115901320.212 7  90312852.15745  22055256.758                    22055265.883
 109913161.934 8  85646787.31046  20915750.445                    20915758.992
 123030818.501 7  95868230.713 7  23411981.250                    23411991.254
 111592745.488 8  86955445.319 7  21235387.602                    21235395.227
 126104417.890 7  98263259.43044  23996888.008                    23996900.023
 113392168.210 8  88357621.735 7  21577776.273                    21577785.145
 108546439.716 8  84581818.72546  20655664.961                    20655670.473
 124843502.000 7  97280706.038 7  23756933.352                    23756944.938
 124815393.374 7  97258807.62944  23751582.844                    23751591.977
 11  8 25  0 12  0.0000000  0  9G04G10G17G12G09G05G02G25G30
 115980440.548 7  90374504.32345  22070313.211                    22070321.703
 109929210.166 8  85659292.44546  20918804.602                    20918812.648
 123086223.079 7  95911403.073 7  23422524.438                    23422534.566
 111541919.464 8  86915840.642 7  21225715.547                    21225723.133
 126184630.912 7  98325762.88544  24012151.750                    24012164.113
 113310592.459 8  88294056.316 7  21562253.117                    21562261.816
 108552565.625 8  84586592.17546  20656830.414                    20656836.801
 124748283.582 7  97206509.912 7  23738814.023                    23738825.867
 124719066.101 6  97183747.52843  23733251.516                    23733261.695
 11  8 25  0 12 30.0000000  0  9G04G10G17G12G09G05G02G25G30
 116059649.128 7  90436225.26945  22085385.797                    22085394.840
 109945884.913 8  85672285.78246  20921977.406                    20921985.559
 123141797.352 7  95954707.654 6  23433099.625                    23433109.707
 111491568.649 8  86876606.262 7  21216134.391                    21216141.598
 126264933.910 7  98388336.46244  24027432.625                    24027445.883
 113229389.047 7  88230781.027 7  21546800.328                    21546808.898
 108558948.746 8  84591566.04846  20658045.055                    20658050.723
 124653295.635 7  97132493.360 7  23720738.250                    23720750.219
 124623024.351 7  97108909.89744  23714975.914                    23714985.578
 11  8 25  0 13  0.0000000  0  9G04G10G17G12G09G05G02G25G30
 116138944.227 7  90498013.62945  22100474.820                    22100484.012
 109963185.566 8  85685766.83146  20925269.766                    20925278.043
 123197541.721 7  95998144.776 7  23443708.227                    23443717.859
 111441694.938 8  86837743.641 7  21206643.695                    21206651.438
 126345323.367 6  98450977.41844  24042729.922                    24042743.031
 113148560.553 7  88167797.878 7  21531419.273                    21531427.875
 108565587.546 8  84596739.15546  20659308.289                    20659314.430
 124558540.645 7  97058658.348 7  23702706.875                    23702719.266
 124527270.745 6  97034296.78743  23696753.867                    23696764.316
 11  8 25  0 13 30.0000000  0  9G04G10G17G12G09G05G02G25G30
 116218324.198 7  90559868.12845  22115580.477                    22115589.328
 109981111.572 8  85699735.16246  20928681.039                    20928689.203
 123253456.737 7  96041714.888 6  23454347.891                    23454357.938
 111392300.570 8  86799254.548 7  21197244.234                    21197251.516
 126425796.188 6  98513683.32543  24058043.672                    24058056.559
 113068109.824 8  88105109.089 7  21516109.664                    21516118.570
 108572481.242 8  84602110.88746  20660620.367                    20660625.980
 124464021.574 7  96985007.195 7  23684719.992                    23684732.277
 124431808.371 6  96959910.59443  23678588.617                    23678598.148
 11  8 25  0 14  0.0000000  0  9G04G10G17G12G09G05G02G25G30
 116297787.132 7  90621787.27145  22130701.523                    22130710.887
 109999662.203 8  85714190.21646  20932210.961                    20932219.406
 123309542.825 7  96085418.285 6  23465020.852                    23465031.090
 111343387.698 8  86761140.642 7  21187936.438                    21187944.055
 126506349.072 6  98576451.61544  24073372.938                    24073385.898
 112988039.392 7  88042716.636 7  21500872.813                    21500881.355
 108579628.175 8  84607679.93846  20661980.398                    20661986.207
 124369740.839 7  96911541.751 7  23666778.898                    23666790.902
 124336639.721 6  96885753.29643  23660477.930                    23660488.113
 11  8 25  0 14 30.0000000  0  9G04G10G17G12G09G05G02G25G30
 116377331.562 7  90683769.92645  22145838.875                    22145847.758
 110018837.359 8  85729131.91146  20935860.078                    20935868.277
 123365800.775 7  96129255.595 6  23475726.586                    23475736.398
 111294958.570 8  86723403.683 7  21178720.398                    21178727.957
 126586978.810 6  98639279.81044  24088715.992                    24088728.781
 112908352.051 8  87980622.697 7  21485708.844                    21485717.477
 108587027.729 8  84613445.83946  20663388.773                    20663394.066
 124275701.446 7  96838264.415 6  23648883.867                    23648895.852
 124241768.091 6  96811827.41343  23642423.977                    23642433.895
 11  8 25  0 15  0.0000000  0  9G04G10G17G12G09G05G02G25G30
 116456955.463 7  90745814.51845  22160990.305                    22160999.863
 110038636.143 8  85744559.55446  20939627.266                    20939635.617
 123422230.780 7  96173226.961 6  23486465.125                    23486474.762
 111247014.961 8  86686045.050 7  21169597.227                    21169604.832
 126667682.032 6  98702165.24843  24104073.328                    24104086.715
 112829050.694 8  87918829.517 7  21470618.438                    21470626.891
 108594678.160 8  84619407.23046  20664843.992                    20664849.480
 124181905.766 7  96765176.953 6  23631034.906                    23631046.559
 124147195.939 6  96738134.85343  23624428.070                    23624437.492
 11  8 25  0 15 30.0000000  0  9G04G10G17G12G09G05G02G25G30
 116536657.161 7  90807919.71945  22176157.859                    22176166.785
 110059057.722 8  85760472.48046  20943513.375                    20943521.785
 123478833.303 7  96217332.771 6  23497236.273                    23497246.109
 111199558.419 8  86649065.952 7  21160566.586                    21160573.637
 126748455.455 7  98765105.39543  24119444.586                    24119457.645
 112750137.008 8  87857338.415 7  21455601.438                    21455609.727
 108602578.244 8  84625563.16546  20666347.398                    20666353.133
 124088356.436 7  96692281.466 6  23613233.609                    23613244.449
 124052926.138 7  96664677.89143  23606490.031                    23606498.164
 11  8 25  0 16  0.0000000  0  9G04G10G17G12G09G05G02G25G30
 116616434.813 7  90870084.10545  22191338.727                    22191347.707
 110080101.343 8  85776870.11046  20947517.594                    20947526.332
 123535608.689 7  96261573.279 6  23508039.633                    23508049.883
 111152590.792 8  86612467.826 7  21151628.961                    21151636.254
 126829295.428 6  98828097.40543  24134827.430                    24134840.750
 112671614.037 8  87796151.761 7  21440658.891                    21440667.590
 108610726.561 8  84631912.51846  20667898.125                    20667903.512
 123995056.177 7  96619580.038 6  23595479.305                    23595490.395
 123958961.315 7  96591458.51443  23588608.859                    23588616.711
 11  8 25  0 16 30.0000000  0  9G04G10G17G12G09G05G02G25G30
 116696287.025 7  90932306.59645  22206534.547                    22206542.930
 110101766.583 8  85793752.11346  20951641.289                    20951649.176
 123592557.505 7  96305948.948 6  23518877.055                    23518887.020
 111106114.641 8  86576252.664 7  21142784.813                    21142792.363
 126910199.154 7  98891139.05744  24150223.047                    24150236.215
 112593484.724 7  87735271.867 7  21425790.930                    21425799.871
 108619122.584 8  84638454.89746  20669495.805                    20669501.230
 123902007.819 7  96547074.937 6  23577772.445                    23577783.438
 123865304.773 7  96518479.40843  23570785.938                    23570794.973
 11  8 25  0 17  0.0000000  0  9G04G10G17G12G09G05G02G25G30
 116776212.032 7  90994585.79445  22221743.453                    22221752.410
 110124052.504 8  85811117.76546  20955881.742                    20955889.723
 123649680.317 7  96350460.186 6  23529747.430                    23529756.891
 111060131.861 8  86540421.955 7  21134034.617                    21134041.879
 126991163.264 6  98954227.78343  24165630.609                    24165643.652
 112515751.507 8  87674700.607 7  21410998.867                    21411007.203
 108627764.746 8  84645189.06346  20671140.430                    20671146.020
 123809213.938 7  96474768.099 6  23560114.367                    23560125.535
 123771959.003 7  96445742.42743  23553023.063                    23553031.617
 11  8 25  0 17 30.0000000  0  9G04G10G17G12G09G05G02G25G30
 116856208.004 7  91056920.31345  22236966.000                    22236974.930
 110146958.206 8  85828966.36446  20960240.430                    20960248.617
 123706977.785 7  96395107.515 6  23540650.406                    23540660.543
 111014644.134 8  86504977.006 7  21125378.398                    21125385.555
 127072184.273 6  99017360.82443  24181048.313                    24181061.828
 112438416.790 8  87614439.865 7  21396282.742                    21396291.375
 108636651.657 8  84652113.94246  20672831.813                    20672837.277
 123716676.923 7  96402661.439 6  23542505.352                    23542516.672
 123678926.718 7  96373249.74143  23535319.758                    23535328.168
 11  8 25  0 18  0.0000000  0  9G04G10G17G12G09G05G02G25G30
 116936273.486 7  91119308.99745  22252202.180                    22252211.316
 110170483.072 8  85847297.42646  20964717.086                    20964725.598
 123764450.166 6  96439891.142 6  23551587.109                    23551597.133
 110969653.544 8  86469919.429 7  21116817.078                    21116824.223
 127153259.210 6  99080535.91743  24196477.016                    24196490.270
 112361483.093 8  87554491.608 7  21381642.820                    21381651.102
 108645782.707 8  84659229.06446  20674568.898                    20674574.516
 123624399.926 7  96330757.361 6  23524944.992                    23524956.762
 123586211.160 7  96301003.89143  23517676.250                    23517685.578
 11  8 25  0 18 30.0000000  0  9G04G10G17G12G09G05G02G25G30
 117016406.671 7  91181750.41645  22267450.555                    22267459.699
 110194626.303 8  85866110.33346  20969311.250                    20969319.797
 123822097.805 6  96484811.320 6  23562556.758                    23562567.348
 110925162.067 8  86435250.782 7  21108350.438                    21108357.910
 127234384.771 6  99143750.43843  24211914.133                    24211928.664
 112284953.170 8  87494857.978 7  21367079.664                    21367088.168
 108655156.032 8  84666532.96446  20676352.813                    20676358.434
 123532385.509 7  96259057.917 6  23507435.008                    23507446.980
 123493814.958 6  96229006.90643  23500093.563                    23500103.125
 11  8 25  0 19  0.0000000  0  9G04G10G17G12G09G05G02G25G30
 117096606.364 7  91244243.66745  22282712.133                    22282720.820
 110219386.713 8  85885404.17046  20974023.195                    20974031.527
 123879921.148 6  96529868.421 6  23573560.539                    23573570.453
 110881171.645 8  86400972.556 7  21099979.367                    21099986.750
 127315557.751 6  99207001.90443  24227361.047                    24227374.684
 112208829.522 8  87435540.919 7  21352593.234                    21352601.793
 108664770.744 8  84674024.95646  20678182.617                    20678187.879
 123440636.380 7  96187565.165 6  23489975.922                    23489987.230
 123401740.989 6  96157261.03743  23482572.258                    23482582.398
 11  8 25  0 19 30.0000000  0  9G04G10G17G12G09G05G02G25G30
 117176870.489 7  91306787.11345  22297985.656                    22297994.879
 110244763.646 8  85905178.41046  20978852.398                    20978860.465
 123937920.896 6  96575062.983 6  23584597.484                    23584607.203
 110837684.171 8  86367086.236 7  21091704.211                    21091710.879
 127396775.004 6  99270287.86143  24242816.156                    24242830.371
 112133114.880 7  87376542.570 7  21338185.523                    21338193.898
 108674625.614 8  84681704.08246  20680057.945                    20680063.250
 123349155.075 7  96116281.113 6  23472567.469                    23472579.078
 123309991.972 6  96085768.34844  23465113.391                    23465122.734
 11  8 25  0 20  0.0000000  0  9G04G10G17G12G09G05G02G25G30
 117257197.458 7  91369379.53145  22313271.578                    22313281.141
 110270756.069 8  85925432.25346  20983798.289                    20983806.852
 123996097.277 6  96620395.181 6  23595668.734                    23595678.367
 110794700.734 8  86333592.675 7  21083524.680                    21083531.906
 127478033.019 6  99333605.55943  24258279.484                    24258292.867
 112057811.476 7  87317864.666 7  21323855.609                    21323864.270
 108684719.264 8  84689569.26546  20681978.336                    20681983.719
 123257944.188 7  96045207.777 7  23455210.750                    23455222.277
 123218570.499 6  96014530.93644  23447715.984                    23447725.535
 11  8 25  0 20 30.0000000  0  9G04G10G17G12G09G05G02G25G30
 117337585.688 7  91432019.67445  22328569.164                    22328577.766
 110297363.089 8  85946165.01346  20988861.492                    20988869.984
 124054450.666 6  96665865.307 6  23606772.766                    23606782.480
 110752223.688 8  86300493.706 7  21075441.711                    21075448.719
 127559328.796 6  99396952.69143  24273750.539                    24273763.121
 111982921.780 8  87259509.137 7  21309604.227                    21309613.074
 108695050.371 8  84697619.48646  20683944.250                    20683949.879
 123167006.526 6  95974347.341 7  23437905.133                    23437916.828
 123127479.503 6  95943551.02743  23430381.883                    23430392.074
 11  8 25  0 21  0.0000000  0  9G04G10G17G12G09G05G02G25G30
 117418033.555 7  91494706.29544  22343877.953                    22343886.895
 110324583.920 8  85967376.06446  20994041.383                    20994049.887
 124112981.597 6  96711473.772 6  23617910.391                    23617920.777
 110710254.970 8  86267790.834 7  21067455.102                    21067462.324
 127640659.010 6  99460326.68243  24289226.625                    24289239.840
 111908448.581 8  87201478.147 7  21295432.625                    21295441.387
 108705617.806 8  84705853.85546  20685955.563                    20685961.367
 123076344.721 7  95903701.859 7  23420653.438                    23420664.469
 123036721.852 6  95872830.87744  23413111.711                    23413121.418
 11  8 25  0 21 30.0000000  0  9G04G10G17G12G09G05G02G25G30
 117498539.689 7  91557438.31445  22359197.766                    22359207.023
 110352417.480 8  85989064.57446  20999337.805                    20999346.441
 124171690.434 6  96757220.846 6  23629082.102                    23629092.746
 110668796.432 8  86235485.505 7  21059565.586                    21059572.887
 127722020.598 6  99523725.09743  24304709.180                    24304722.980
 111834394.123 8  87143773.451 7  21281340.648                    21281349.289
 108716420.673 8  84714271.67746  20688011.109                    20688016.648
 122985961.586 7  95833273.534 7  23403454.000                    23403464.957
 122946300.332 6  95802372.68043  23395904.469                    23395914.355
 11  8 25  0 22  0.0000000  0  9G04G10G17G12G09G05G02G25G30
 117579102.486 7  91620214.48844  22374528.797                    22374537.230
 110380862.858 8  86011229.81746  21004750.875                    21004759.242
 124230577.728 6  96803107.012 6  23640288.031                    23640298.863
 110627850.023 8  86203579.231 7  21051773.867                    21051781.371
 127803410.381 6  99587145.49343  24320198.266                    24320211.598
 111760761.225 7  87086397.231 7  21267328.367                    21267337.102
 108727457.963 8  84722872.17246  20690111.344                    20690116.973
 122895859.835 7  95763064.449 7  23386308.219                    23386319.527
 122856217.798 6  95732178.59244  23378762.719                    23378771.668
 11  8 25  0 22 30.0000000  0  9G04G10G17G12G09G05G02G25G30
 117659720.218 7  91683033.46944  22389869.477                    22389878.758
 110409918.644 8  86033870.70246  21010280.047                    21010288.191
 124289643.458 6  96849132.187 6  23651527.656                    23651538.227
 110587416.704 8  86172072.768 7  21044079.547                    21044086.930
 127884824.961 6  99650585.22743  24335690.789                    24335704.348
 111687551.681 8  87029350.906 7  21253397.461                    21253405.414
 108738727.627 8  84731653.72846  20692255.844                    20692261.621
 122806041.797 7  95693076.465 7  23369216.164                    23369227.695
 122766476.663 6  95662250.55543  23361684.398                    23361694.758
 11  8 25  0 23  0.0000000  0  9G04G10G17G12G09G05G02G25G30
 117740391.479 7  91745894.16244  22405220.617                    22405229.820
 110439584.266 8  86056986.80346  21015925.352                    21015934.070
 124348888.490 6  96895297.099 6  23662802.109                    23662812.574
 110547499.165 8  86140968.221 7  21036483.500                    21036490.844
 127966261.425 6  99714041.98343  24351187.969                    24351200.746
 111614768.460 8  86972636.776 7  21239546.852                    21239555.156
 108750228.951 8  84740615.80046  20694444.734                    20694449.848
 122716510.463 7  95623311.859 7  23352179.172                    23352190.273
 122677080.099 7  95592590.98344  23344673.773                    23344683.219
 11  8 25  0 23 30.0000000  0  9G04G10G17G12G09G05G02G25G30
 117821114.624 7  91808795.28244  22420582.172                    22420590.766
 110469858.308 8  86080577.00146  21021686.023                    21021694.426
 124408313.032 6  96941601.886 6  23674110.758                    23674120.133
 110508098.576 8  86110266.472 7  21028986.063                    21028993.066
 128047716.474 6  99777513.24943  24366687.648                    24366701.813
 111542413.839 8  86916256.619 7  21225778.336                    21225786.938
 108761960.883 8  84749757.56846  20696677.211                    20696682.449
 122627268.460 7  95553772.695 7  23335196.727                    23335207.852
 122588030.745 6  95523201.95444  23327728.219                    23327737.465
 11  8 25  0 24  0.0000000  0  9G04G10G17G12G09G05G02G25G30
 117901887.864 7  91871735.44344  22435953.039                    22435961.605
 110500739.139 8  86104640.01346  21027562.320                    21027570.793
 124467917.183 6  96988046.637 6  23685453.188                    23685462.691
 110469216.101 8  86079968.463 7  21021586.758                    21021593.563
 128129186.444 6  99840996.12843  24382191.375                    24382205.250
 111470489.802 8  86860211.981 7  21212091.336                    21212100.008
 108773921.197 8  84759077.30146  20698953.055                    20698958.520
 122538318.023 7  95484460.722 7  23318270.414                    23318281.703
 122499331.035 7  95454085.36644  23310848.664                    23310858.035
 11  8 25  0 24 30.0000000  0  9G04G10G17G12G09G05G02G25G30
 117982709.978 7  91934713.68344  22451332.492                    22451341.496
 110532226.074 8  86129175.30546  21033554.055                    21033562.918
 124527701.613 6  97034631.851 6  23696828.961                    23696838.980
 110430854.421 8  86050076.266 7  21014286.508                    21014294.027
 128210668.883 6  99904488.68343  24397696.875                    24397711.113
 111398999.471 8  86804505.286 7  21198487.570                    21198496.207
 108786109.664 8  84768574.80646  20701272.703                    20701277.848
 122449662.411 7  95415378.509 7  23301399.273                    23301410.527
 122410984.188 7  95385243.75844  23294036.836                    23294046.449
 11  8 25  0 25  0.0000000  0  9G04G10G17G12G09G05G02G25G30
 118063579.258 7  91997728.68644  22466721.563                    22466730.547
 110564317.889 8  86154181.93546  21039661.078                    21039669.793
 124587666.640 6  97081357.784 6  23708240.391                    23708250.809
 110393014.651 8  86020590.746 7  21007086.203                    21007093.082
 128292160.245 6  99967988.20543  24413204.883                    24413218.922
 111327944.834 8  86749138.109 7  21184965.898                    21184974.336
 108798524.691 8  84778248.85546  20703635.070                    20703640.184
 122361303.930 7  95346527.826 7  23284584.984                    23284595.965
 122322992.791 7  95316679.12843  23277292.977                    23277302.145
 11  8 25  0 25 30.0000000  0  9G04G10G17G12G09G05G02G25G30
 118144494.317 7  92060779.35745  22482118.992                    22482128.387
 110597013.385 8  86179658.96446  21045882.820                    21045891.367
 124647812.569 6  97128224.687 6  23719685.625                    23719695.832
 110355698.411 8  85991513.174 7  20999985.016                    20999992.422
 128373657.739 6 100031492.49243  24428712.891                    24428727.316
 111257328.191 8  86694112.220 7  21171528.078                    21171536.570
 108811165.499 8  84788098.84046  20706040.500                    20706045.840
 122273245.484 7  95277910.928 7  23267828.141                    23267839.180
 122235359.520 7  95248393.53144  23260617.055                    23260625.000
 11  8 25  0 26  0.0000000  0  9G04G10G17G12G09G05G02G25G30
 118225453.749 7  92123864.59145  22497525.391                    22497534.348
 110630311.551 8  86205605.61446  21052219.547                    21052227.605
 124708139.710 6  97175232.786 6  23731165.539                    23731176.574
 110318907.883 8  85962845.245 7  20992983.906                    20992991.238
 128455158.239 6 100094999.14543  24444221.789                    24444237.176
 111187151.917 8  86639429.465 7  21158174.141                    21158182.234
 108824030.562 8  84798123.57446  20708488.375                    20708494.254
 122185489.589 7  95209529.780 6  23251128.805                    23251139.656
 122148087.264 7  95180389.26944  23244009.516                    23244018.508
 11  8 25  0 26 30.0000000  0  9G04G10G17G12G09G05G02G25G30
 118306456.042 7  92186983.24044  22512939.484                    22512948.988
 110664210.958 8  86232020.75346  21058670.172                    21058678.488
 124768648.744 6  97222382.636 6  23742680.594                    23742690.594
 110282644.503 8  85934588.081 7  20986083.398                    20986090.477
 128536658.256 6 100158505.37943  24459731.648                    24459746.270
 111117418.656 8  86585091.929 7  21144904.156                    21144912.289
 108837118.728 8  84808322.14346  20710979.391                    20710985.055
 122098039.007 7  95141386.533 6  23234487.281                    23234498.227
 122061178.753 7  95112668.43144  23227471.125                    23227479.918
 11  8 25  0 27  0.0000000  0  9G04G10G17G12G09G05G02G25G30
 118387499.627 7  92250134.06945  22528361.453                    22528370.809
 110698710.436 8  86258903.49446  21065235.484                    21065243.629
 124829339.764 6  97269674.298 6  23754229.609                    23754239.871
 110246909.325 8  85906742.511 7  20979283.133                    20979290.496
 128618154.712 6 100222008.90143  24475240.547                    24475254.527
 111048130.660 8  86531101.340 7  21131718.727                    21131726.965
 108850428.611 8  84818693.48646  20713512.164                    20713517.820
 122010896.300 7  95073483.194 6  23217904.250                    23217915.637
 121974636.639 6  95045233.07943  23211002.594                    23211011.777
 11  8 25  0 27 30.0000000  0  9G04G10G17G12G09G05G02G25G30
 118468583.257 7  92313316.10145  22543791.492                    22543800.457
 110733808.534 8  86286252.68546  21071914.211                    21071922.676
 124890213.143 7  97317108.049 6  23765813.914                    23765824.059
 110211704.379 8  85879310.106 7  20972583.680                    20972591.176
 128699644.636 6 100285507.25943  24490746.648                    24490761.406
 110979290.067 8  86477459.386 7  21118619.242                    21118627.141
 108863959.189 8  84829236.78746  20716086.680                    20716092.238
 121924064.210 7  95005821.891 7  23201380.680                    23201391.820
 121888463.808 6  94978085.48544  23194603.906                    23194613.680
 11  8 25  0 28  0.0000000  0  9G04G10G17G12G09G05G02G25G30
 118549705.388 7  92376528.13644  22559228.008                    22559237.434
 110769503.971 8  86314067.33146  21078706.602                    21078715.008
 124951269.300 7  97364684.225 6  23777432.078                    23777442.207
 110177031.073 8  85852291.956 7  20965985.516                    20965992.918
 128781124.921 6 100348998.15043  24506252.992                    24506267.285
 110910899.017 8  86424167.724 7  21105604.797                    21105613.203
 108877709.355 8  84839951.20846  20718703.289                    20718708.465
 121837545.325 7  94938404.637 6  23184916.758                    23184927.633
 121802662.750 6  94911227.58643  23178276.969                    23178286.004
 11  8 25  0 28 30.0000000  0  9G04G10G17G12G09G05G02G25G30
 118630864.345 7  92439768.86044  22574672.172                    22574681.441
 110805795.176 8  86342346.22346  21085612.836                    21085620.652
 125012508.385 6  97412402.950 6  23789085.516                    23789095.809
 110142891.109 8  85825689.402 7  20959489.242                    20959496.223
 128862592.498 6 100412479.10543  24521755.727                    24521769.566
 110842960.313 8  86371228.545 7  21092675.961                    21092684.305
 108891677.679 8  84850835.61746  20721361.156                    20721366.711
 121751342.354 7  94871233.538 6  23168512.742                    23168523.930
 121717236.354 6  94844661.64144  23162021.313                    23162030.129
 11  8 25  0 29  0.0000000  0  9G04G10G17G12G09G05G02G25G30
 118712058.933 7  92503037.34044  22590122.867                    22590132.246
 110842680.574 8  86371088.09846  21092631.656                    21092640.148
 125073930.783 6  97460264.521 6  23800773.883                    23800784.320
 110109285.948 8  85799503.577 7  20953094.500                    20953101.469
 128944044.229 6 100475947.76043  24537255.031                    24537270.063
 110775475.798 8  86318643.264 7  21079834.203                    21079842.309
 108905862.981 8  84861889.11346  20724060.680                    20724066.324
 121665457.790 7  94804310.549 7  23152169.234                    23152180.742
 121632187.265 6  94778389.69443  23145836.047                    23145845.477
 11  8 25  0 29 30.0000000  0  9G04G10G17G12G09G05G02G25G30
 118793287.849 7  92566332.57744  22605580.109                    22605589.527
 110880159.362 8  86400292.36346  21099763.766                    21099771.492
 125135536.888 6  97508269.221 6  23812497.484                    23812507.742
 110076217.092 8  85773735.654 7  20946801.531                    20946808.641
 129025477.057 6 100539401.63643  24552752.383                    24552765.938
 110708448.023 8  86266413.897 7  21067078.930                    21067087.453
 108920264.383 8  84873110.99046  20726801.320                    20726806.918
 121579894.537 7  94737637.932 7  23135886.859                    23135898.523
 121547518.308 7  94712413.97044  23129724.242                    23129733.609
 11  8 25  0 30  0.0000000  0  9G04G10G17G12G09G05G02G25G30
 118874549.380 7  92629653.22444  22621043.586                    22621053.184
 110918229.550 8  86429957.46046  21107008.070                    21107016.234
 125197326.770 7  97556417.136 6  23824255.672                    23824265.855
 110043685.717 8  85748386.544 7  20940610.711                    20940617.891
 129106887.691 6 100602838.22243  24568243.656                    24568259.059
 110641878.871 8  86214541.889 7  21054411.711                    21054419.688
 108934879.977 8  84884499.76146  20729582.313                    20729588.102
 121494654.837 7  94671217.423 7  23119666.859                    23119677.859
 121463231.719 7  94646736.20044  23113685.820                    23113694.535
 11  8 25  0 30 30.0000000  0  9G04G10G17G12G09G05G02G25G30
 118955842.131 7  92692998.20544  22636513.773                    22636523.000
 110956890.084 8  86460082.55446  21114365.063                    21114373.504
 125259301.094 6  97604708.770 6  23836048.586                    23836059.117
 110011693.645 8  85723457.667 7  20934523.055                    20934530.465
 129188273.245 6 100666255.30443  24583730.453                    24583745.883
 110575770.883 8  86163029.238 7  21041831.727                    21041839.863
 108949708.994 8  84896054.84146  20732404.320                    20732409.855
 121409741.485 7  94605051.208 7  23103508.500                    23103519.461
 121379330.568 7  94581358.74344  23097719.633                    23097728.445
 11  8 25  0 31  0.0000000  0  9G04G10G17G12G09G05G02G25G30
 119037165.067 7  92756366.69044  22651988.867                    22651998.293
 110996139.487 8  86490666.50745  21121834.289                    21121842.242
 125321460.026 6  97653144.258 6  23847877.492                    23847887.805
 109980242.544 8  85698950.324 7  20928537.898                    20928544.824
 129269630.608 6 100729650.41043  24599213.109                    24599228.199
 110510125.841 8  86111877.316 7  21029339.430                    21029347.605
 108964750.216 8  84907775.28246  20735266.383                    20735272.563
 121325157.294 7  94539141.479 7  23087412.445                    23087423.285
 121295817.521 7  94516283.68444  23081827.531                    23081836.160
 11  8 25  0 31 30.0000000  0  9G04G10G17G12G09G05G02G25G30
 119118516.530 7  92819757.42344  22667469.109                    22667478.469
 111035975.751 8  86521707.76545  21129414.359                    21129422.723
 125383803.688 6  97701723.685 6  23859741.289                    23859751.633
 109949332.929 8  85674864.917 7  20922656.297                    20922662.941
 129350956.564 6 100793021.02643  24614688.523                    24614704.242
 110444946.128 8  86061087.992 7  21016936.328                    21016944.602
 108980002.432 8  84919660.12146  20738168.828                    20738174.695
 121240904.703 7  94473490.125 7  23071379.898                    23071390.605
 121212695.111 7  94451513.03844  23066009.461                    23066018.824
 11  8 25  0 32  0.0000000  0  9G04G10G17G12G09G05G02G25G30
 119199894.993 7  92883169.19644  22682955.703                    22682964.449
 111076397.627 8  86553205.32846  21137106.469                    21137114.762
 125446332.499 6  97750447.386 6  23871640.109                    23871650.215
 109918966.638 8  85651202.876 7  20916877.891                    20916884.844
 129432248.325 6 100856364.98543  24630159.813                    24630173.926
 110380233.630 8  86010662.730 7  21004621.766                    21004630.375
 108995464.223 8  84931708.27246  20741111.500                    20741116.785
 121156986.322 7  94408099.201 7  23055410.688                    23055421.879
 121129966.081 7  94387048.91744  23050267.250                    23050275.609
 11  8 25  0 32 30.0000000  0  9G04G10G17G12G09G05G02G25G30
 119281299.387 7  92946601.17244  22698445.891                    22698455.848
 111117403.622 8  86585158.04645  21144909.992                    21144917.910
 125509046.621 6  97799315.484 6  23883574.016                    23883584.488
 109889145.173 8  85627965.384 7  20911202.570                    20911209.723
 129513502.969 6 100919680.04943  24645620.617                    24645635.598
 110315991.051 8  85960603.632 7  20992397.227                    20992405.004
 109011134.959 8  84943919.23946  20744093.266                    20744099.059
 121073404.941 7  94342970.863 7  23039505.906                    23039516.305
 121047633.205 7  94322893.49344  23034599.227                    23034607.941
 11  8 25  0 33  0.0000000  0  9G04G10G17G12G09G05G02G25G30
 119362728.452 7  93010052.34644  22713941.602                    22713950.879
 111158992.215 8  86617564.74145  21152823.898                    21152831.938
 125571946.319 6  97848328.203 6  23895542.797                    23895554.117
 109859870.052 8  85605153.595 7  20905631.625                    20905638.637
 129594717.298 6 100982963.64243  24661075.938                    24661090.836
 110252220.295 8  85910912.184 7  20980261.656                    20980269.727
 109027013.037 8  84956291.77246  20747114.805                    20747120.195
 120990163.104 7  94278107.117 7  23023665.398                    23023675.805
 120965699.055 7  94259048.75344  23019007.867                    23019016.840
 11  8 25  0 33 30.0000000  0  9G04G10G17G12G09G05G02G25G30
 119444180.583 7  93073521.48444  22729441.484                    22729450.555
 111201161.771 7  86650424.12445  21160848.570                    21160856.492
 125635032.098 6  97897485.892 6  23907548.320                    23907558.500
 109831142.380 8  85582768.404 7  20900165.063                    20900172.215
 129675888.310 6 101046213.45543  24676522.813                    24676537.070
 110188923.549 8  85861590.107 7  20968216.875                    20968225.090
 109043097.410 8  84968825.05046  20750175.773                    20750181.027
 120907263.443 7  94213509.996 7  23007889.953                    23007900.945
 120884166.217 7  94195516.72144  23003492.305                    23003501.559
 11  8 25  0 34  0.0000000  0  9G04G10G17G12G09G05G02G25G30
 119525654.703 7  93137007.79344  22744945.633                    22744954.426
 111243910.887 8  86683735.12446  21168983.047                    21168991.188
 125698304.045 6  97946788.665 6  23919588.063                    23919598.637
 109802963.822 8  85560811.084 7  20894803.117                    20894810.043
 129757013.126 6 101109427.26443  24691960.305                    24691975.207
 110126102.758 8  85812638.888 7  20956262.086                    20956270.473
 109059386.925 8  84981518.18146  20753275.234                    20753280.621
 120824708.597 7  94149181.578 7  22992180.156                    22992191.008
 120803037.425 7  94132299.51344  22988053.992                    22988062.984
 11  8 25  0 34 30.0000000  0  9G04G10G17G12G09G05G02G25G30
 119607149.293 7  93200510.03844  22760453.422                    22760462.891
 111287237.359 8  86717496.00546  21177228.172                    21177236.633
 125761762.396 6  97996236.687 6  23931664.328                    23931674.477
 109775334.745 8  85539281.927 7  20889545.164                    20889552.480
 129838088.310 6 101172602.38143  24707388.953                    24707403.988
 110063760.221 8  85764060.349 7  20944398.820                    20944406.770
 109075880.214 8  84994370.09046  20756413.555                    20756419.422
 120742501.006 7  94085123.749 7  22976536.438                    22976547.555
 120722315.099 7  94069399.02544  22972692.961                    22972701.359
 11  8 25  0 35  0.0000000  0  9G04G10G17G12G09G05G02G25G30
 119688663.185 7  93264027.32144  22775964.992                    22775974.699
 111331139.740 7  86751705.65046  21185582.359                    21185590.949
 125825407.457 6  98045830.216 6  23943775.586                    23943786.043
 109748257.088 8  85518182.454 7  20884392.688                    20884399.824
 129919111.219 6 101235736.74243  24722807.141                    24722822.406
 110001897.997 8  85715856.075 7  20932626.578                    20932635.039
 109092576.303 8  85007380.03446  20759591.141                    20759596.375
 120660643.492 7  94021338.696 7  22960959.734                    22960970.352
 120642002.107 7  94006817.49343  22957409.586                    22957418.828
 11  8 25  0 35 30.0000000  0  9G04G10G17G12G09G05G02G25G30
 119770195.112 7  93327558.65444  22791479.961                    22791489.461
 111375616.496 8  86786362.84846  21194046.375                    21194054.414
 125889239.348 6  98095569.300 6  23955922.852                    23955932.898
 109721731.963 8  85497513.518 7  20879345.156                    20879352.137
 130000078.673 6 101298827.93543  24738214.711                    24738230.883
 109940517.874 8  85668027.459 7  20920946.734                    20920954.711
 109109473.882 8  85020546.99046  20762806.617                    20762811.789
 120579138.506 7  93957828.376 7  22945449.383                    22945460.320
 120562100.915 7  93944556.84644  22942205.461                    22942213.680
 11  8 25  0 36  0.0000000  0  9G04G10G17G12G09G05G02G25G30
 119851743.561 7  93391102.86644  22806998.117                    22807007.230
 111420665.955 8  86821466.31746  21202618.391                    21202627.063
 125953258.336 6  98145454.199 6  23968104.031                    23968115.469
 109695760.630 8  85477276.101 7  20874403.102                    20874410.297
 130080988.156 6 101361873.94143  24753612.148                    24753626.980
 109879622.069 8  85620576.232 7  20909358.734                    20909366.242
 109126571.700 8  85033869.96346  20766060.500                    20766065.512
 120497988.590 7  93894594.720 7  22930006.977                    22930017.688
 120482614.100 7  93882619.09044  22927079.625                    22927088.441
 11  8 25  0 36 30.0000000  0  9G04G10G17G12G09G05G02G25G30
 119933307.218 7  93454658.92844  22822518.828                    22822528.574
 111466285.859 7  86857014.29246  21211299.891                    21211308.031
 126017464.726 6  98195485.098 6  23980322.563                    23980333.648
 109670344.234 8  85457471.112 7  20869566.164                    20869573.539
 130161836.297 6 101424872.11743  24768997.484                    24769012.309
 109819212.371 8  85573503.798 7  20897862.867                    20897870.887
 109143868.421 8  85047347.92946  20769351.898                    20769356.895
 120417196.189 7  93831639.650 7  22914633.125                    22914643.672
 120403544.101 7  93821006.11844  22912033.055                    22912041.668
 11  8 25  0 37  0.0000000  0  9G04G10G17G12G09G05G02G25G30
 120014885.063 7  93518226.02944  22838043.297                    22838052.445
 111512475.051 8  86893005.87146  21220089.586                    21220097.563
 126081858.541 6  98245662.042 6  23992576.188                    23992587.105
 109645484.055 8  85438099.544 7  20864835.836                    20864842.625
 130242620.465 6 101487820.44643  24784370.219                    24784385.156
 109759290.829 8  85526811.737 8  20886460.203                    20886468.113
 109161363.292 8  85060980.30546  20772680.961                    20772686.137
 120336764.096 7  93768965.344 7  22899326.953                    22899337.691
 120324893.727 7  93759720.13044  22897065.898                    22897075.047
 11  8 25  0 37 30.0000000  0  9G04G10G17G12G09G05G02G25G30
 120096476.188 7  93581803.47144  22853568.906                    22853578.930
 111559231.660 8  86929439.59846  21228986.945                    21228995.090
 126146440.137 6  98295985.320 6  24004866.477                    24004876.301
 109621181.557 8  85419162.531 7  20860210.969                    20860217.613
 130323337.531 6 101550716.51943  24799730.609                    24799745.855
 109699859.884 8  85480501.965 8  20875150.539                    20875159.020
 109179055.489 8  85074766.44646  20776047.367                    20776052.699
 120256695.124 7  93706573.998 7  22884090.477                    22884101.152
 120246665.776 7  93698763.29744  22882179.734                    22882188.734
 11  8 25  0 38  0.0000000  0  9G04G10G17G12G09G05G02G25G30
 120178078.564 7  93645389.68544  22869098.086                    22869107.430
 111606553.544 8  86966313.79046  21237992.078                    21237999.871
 126211209.537 6  98346454.960 6  24017190.945                    24017201.238
 109597436.929 8  85400660.225 7  20855692.320                    20855699.438
 130403984.066 6 101613557.57143  24815076.852                    24815093.047
 109640920.864 8  85434575.507 7  20863934.672                    20863942.961
 109196942.399 8  85088704.30646  20779451.281                    20779456.746
 120176991.269 7  93644467.168 7  22868923.453                    22868934.020
 120168862.192 7  93638137.14944  22867374.180                    22867383.164
 11  8 25  0 38 30.0000000  0  9G04G10G17G12G09G05G02G25G30
 120259691.709 7  93708984.29744  22884628.141                    22884637.723
 111654439.283 8  87003627.36146  21247104.305                    21247112.715
 126276167.040 6  98397071.153 6  24029552.656                    24029562.535
 109574252.164 8  85382594.179 7  20851280.703                    20851287.660
 130484557.877 6 101676342.03443  24830409.945                    24830425.809
 109582475.956 8  85389034.069 7  20852813.375                    20852821.031
 109215024.443 8  85102794.22346  20782892.461                    20782897.488
 120097655.550 7  93582647.190 7  22853826.391                    22853836.816
 120091486.156 7  93577844.17844  22852649.703                    22852658.813
 11  8 25  0 39  0.0000000  0  9G04G10G17G12G09G05G02G25G30
 120341313.963 7  93772586.01344  22900160.664                    22900169.844
 111702886.424 8  87041378.39845  21256323.492                    21256331.375
 126341312.674 6  98447833.970 6  24041949.570                    24041959.469
 109551627.816 8  85364964.822 7  20846975.250                    20846982.547
 130565055.822 6 101739067.35743  24845728.758                    24845744.250
 109524527.003 8  85343879.099 8  20841785.742                    20841794.121
 109233299.703 8  85117034.70446  20786370.031                    20786374.926
 120018690.166 7  93521115.779 7  22838799.586                    22838810.285
 120014539.762 7  93517885.97644  22838008.289                    22838016.574
 11  8 25  0 39 30.0000000  0  9G04G10G17G12G09G05G02G25G30
 120422944.017 7  93836193.80144  22915694.539                    22915704.133
 111751893.161 8  87079565.47046  21265649.109                    21265657.488
 126406646.732 6  98498743.596 6  24054381.648                    24054392.086
 109529564.908 8  85347772.954 7  20842776.789                    20842784.012
 130645474.940 6 101801731.22443  24861032.828                    24861047.809
 109467075.675 8  85299111.884 7  20830852.961                    20830861.051
 109251766.927 8  85131424.76246  20789883.945                    20789889.043
 119940097.627 7  93459874.905 7  22823843.398                    22823853.887
 119938025.481 7  93458264.50044  22823448.094                    22823456.191
 11  8 25  0 40  0.0000000  0  8G04G10G17G12G05G02G25G30
 120504581.443 7  93899807.36244  22931229.141                    22931238.324
 111801458.711 8  87118187.99645  21275080.984                    21275089.371
 126472170.365 6  98549800.930 6  24066850.172                    24066861.090
 109508065.572 8  85331020.228 7  20838685.922                    20838693.000
 109410125.038 8  85254734.817 7  20820015.469                    20820023.836
 109270426.158 8  85145964.43946  20793434.781                    20793440.262
 119861881.396 7  93398927.259 7  22808959.422                    22808970.145
 119861946.814 7  93398982.47744  22808969.859                    22808979.480
 11  8 25  0 40 30.0000000  0  8G04G10G17G12G05G02G25G30
 120586224.445 7  93963425.23744  22946765.273                    22946775.012
 111851580.246 8  87157243.75145  21284619.078                    21284627.266
 126537882.878 6  98601005.451 6  24079355.273                    24079365.852
 109487130.011 8  85314706.821 7  20834701.961                    20834708.781
 109353675.934 8  85210748.551 8  20809273.969                    20809281.742
 109289274.985 8  85160651.84946  20797021.656                    20797026.492
 119784043.113 7  93338274.117 7  22794147.828                    22794158.023
 119786305.260 7  93340041.06844  22794575.703                    22794584.793
 11  8 25  0 41  0.0000000  0  8G04G10G17G12G05G02G25G30
 120667871.917 7  94027046.60444  22962302.648                    22962312.195
 111902255.871 8  87196731.26445  21294262.000                    21294270.188
 126603783.950 6  98652356.888 6  24091895.977                    24091906.359
 109466758.930 8  85298833.263 7  20830825.242                    20830832.273
 109297730.290 8  85167154.591 7  20798627.891                    20798635.770
 109308312.337 8  85175486.16546  20800644.539                    20800649.484
 119706585.346 7  93277917.488 7  22779408.063                    22779418.316
 119711103.523 6  93281442.36544  22780265.664                    22780274.832
 11  8 25  0 41 30.0000000  0  8G04G10G17G12G05G02G25G30
 120749522.475 7  94090670.36544  22977840.422                    22977849.367
 111953483.473 7  87236648.88345  21304010.383                    21304018.570
 126669873.865 6  98703855.491 6  24104472.227                    24104482.832
 109446953.299 8  85283400.320 7  20827056.492                    20827063.453
 109242289.961 8  85123954.376 8  20788077.742                    20788085.531
 109327536.909 8  85190466.36146  20804302.648                    20804307.684
 119629510.394 7  93217859.141 7  22764740.891                    22764751.465
 119636343.838 7  93223188.12344  22766039.336                    22766048.086
 11  8 25  0 42  0.0000000  0  8G04G10G17G12G05G02G25G30
 120831175.328 7  94154295.94244  22993378.445                    22993387.648
 112005261.468 7  87276995.37945  21313863.328                    21313871.633
 126736153.030 6  98755501.570 6  24117085.141                    24117095.387
 109427714.587 8  85268409.127 7  20823395.031                    20823402.773
 109187356.621 8  85081149.225 7  20777624.023                    20777632.375
 109346948.085 8  85205591.96546  20807996.313                    20808001.770
 119552821.210 7  93158101.395 7  22750147.453                    22750157.738
 119562029.004 7  93165280.52244  22751897.969                    22751906.672
 11  8 25  0 42 30.0000000  0  8G04G10G17G12G05G02G25G30
 120912828.848 7  94217922.03144  23008916.555                    23008925.652
 112057587.189 7  87317768.68645  21323820.555                    21323828.813
 126802621.416 7  98807295.090 6  24129733.859                    24129743.965
 109409043.183 8  85253859.989 7  20819842.352                    20819849.195
 109132931.893 8  85038740.389 8  20767267.641                    20767275.535
 109366544.547 8  85220861.95146  20811725.258                    20811730.672
 119476520.042 7  93098645.985 7  22735627.695                    22735638.063
 119488161.274 7  93107721.31244  22737841.328                    22737849.805
 11  8 25  0 43  0.0000000  0  8G04G10G17G12G05G02G25G30
 120994482.188 7  94281547.98744  23024454.648                    23024464.164
 112110458.963 7  87358967.48245  21333881.953                    21333889.801
 126869279.171 7  98859236.166 6  24142418.102                    24142428.676
 109390940.184 8  85239753.773 7  20816397.602                    20816404.563
 109079017.680 8  84996729.359 7  20757008.031                    20757015.543
 109386324.891 8  85236275.22046  20815489.508                    20815494.465
 119400609.226 7  93039494.761 7  22721182.453                    22721192.570
 119414743.092 7  93050512.41944  22723870.094                    22723878.738
 11  8 25  0 43 30.0000000  0  8G04G10G17G12G05G02G25G30
 121076134.186 7  94345172.91244  23039992.352                    23040002.410
 112163875.005 8  87400590.37445  21344046.539                    21344054.621
 126936126.313 6  98911324.824 6  24155138.664                    24155149.215
 109373406.442 8  85226091.130 8  20813060.867                    20813067.793
 109025615.942 8  84955117.656 8  20746846.008                    20746853.680
 109406288.208 8  85251831.05646  20819288.398                    20819293.754
 119325091.453 7  92980649.792 7  22706811.703                    22706822.324
 119341776.889 7  92993655.70944  22709984.617                    22709993.539
 11  8 25  0 44  0.0000000  0  8G04G10G17G12G05G02G25G30
 121157783.913 7  94408796.04744  23055529.867                    23055538.754
 112217833.249 7  87442635.75945  21354314.781                    21354322.547
 127003163.131 7  98963561.280 6  24167895.398                    24167906.191
 109356442.783 8  85212872.707 7  20809832.711                    20809839.523
 108972728.312 8  84913906.559 8  20736782.008                    20736789.629
 109426433.417 8  85267528.62846  20823121.953                    20823126.992
 119249969.183 7  92922112.993 7  22692516.641                    22692526.977
 119269265.264 7  92937153.20944  22696186.359                    22696195.336
 11  8 25  0 44 30.0000000  0  8G04G10G17G12G05G02G25G30
 121239429.990 7  94472416.35844  23071066.547                    23071075.840
 112272331.529 8  87485101.94845  21364685.336                    21364693.281
 127070389.666 6  99015945.563 6  24180687.891                    24180698.719
 109340050.052 8  85200099.169 7  20806713.359                    20806720.316
 108920356.447 8  84873097.359 8  20726815.570                    20726823.781
 109446759.310 8  85283366.98946  20826989.664                    20826995.469
 119175244.883 7  92863886.303 7  22678296.781                    22678307.031
 119197210.433 7  92881006.65844  22682475.242                    22682483.066
 11  8 25  0 45  0.0000000  0  8G04G10G17G12G05G02G25G30
 121321071.533 7  94536033.14044  23086602.836                    23086611.613
 112327367.481 8  87527987.09645  21375158.078                    21375166.547
 127137805.882 6  99068477.648 6  24193516.898                    24193528.117
 109324229.063 8  85187771.135 7  20803702.609                    20803709.559
 108868501.964 8  84832691.306 8  20716947.992                    20716955.680
 109467264.804 8  85299345.30546  20830891.852                    20830897.094
 119100920.930 7  92805971.582 7  22664153.398                    22664163.793
 119125614.845 7  92825217.94744  22668850.609                    22668858.797
 11  8 25  0 45 30.0000000  0  8G04G10G17G12G05G02G25G30
 121402707.489 7  94599645.54244  23102137.461                    23102146.977
 112382939.341 8  87571289.84045  21385733.328                    21385741.305
 127205412.150 6  99121157.815 6  24206382.102                    24206393.070
 109308980.687 8  85175889.301 7  20800801.094                    20800807.813
 108817166.599 8  84792689.767 7  20707179.617                    20707187.109
 109487948.878 8  85315462.76846  20834827.805                    20834833.055
 119026999.813 7  92748370.730 7  22650086.609                    22650096.945
 119054480.877 7  92769788.92744  22655313.852                    22655322.496
 11  8 25  0 46  0.0000000  0  8G04G10G17G12G05G02G25G30
 121484336.537 7  94663252.56144  23117671.094                    23117680.563
 112439044.768 8  87615008.35145  21396409.836                    21396417.980
 127273208.281 6  99173985.925 6  24219283.250                    24219294.699
 109294305.550 8  85164454.140 7  20798008.664                    20798015.512
 108766351.865 8  84753093.908 7  20697509.063                    20697517.160
 109508810.195 8  85331718.33846  20838797.680                    20838802.992
 118953483.894 7  92691085.625 7  22636097.031                    22636107.301
 118983810.889 7  92714721.46244  22641866.094                    22641874.582
 11  8 25  0 46 30.0000000  0  8G04G10G17G12G05G02G25G30
 121565957.605 7  94726853.37944  23133203.180                    23133212.535
 112495681.446 8  87659140.81945  21407187.414                    21407195.809
 127341194.419 6  99226962.104 6  24232220.820                    24232231.758
 109280204.335 8  85153466.195 7  20795324.938                    20795331.777
 108716059.548 8  84713905.129 8  20687939.000                    20687946.852
 109529847.571 8  85348111.10446  20842801.125                    20842806.250
 118880375.556 7  92634118.106 7  22622185.195                    22622195.492
 118913607.056 7  92660017.22744  22628506.148                    22628514.910
 11  8 25  0 47  0.0000000  0  8G04G10G17G12G05G02G25G30
 121647569.823 7  94790447.29644  23148733.133                    23148742.707
 112552847.636 8  87703685.88845  21418065.578                    21418074.000
 127409370.570 6  99280086.368 6  24245194.008                    24245205.137
 109266677.492 8  85142925.810 7  20792750.758                    20792758.332
 108666291.029 8  84675124.505 8  20678468.125                    20678476.078
 109551060.014 8  85364640.27446  20846837.555                    20846842.914
 118807677.294 7  92577470.123 7  22608351.109                    22608361.418
 118843871.909 7  92605678.19544  22615235.922                    22615244.934
 11  8 25  0 47 30.0000000  0  8G04G10G17G12G05G02G25G30
 121729172.263 7  94854033.59644  23164261.398                    23164271.227
 112610541.145 8  87748641.84945  21429044.688                    21429053.055
 127477736.930 6  99333358.830 6  24258204.578                    24258214.398
 109253726.556 8  85132834.181 7  20790286.703                    20790293.555
 108617048.401 8  84636753.669 8  20669097.875                    20669105.656
 109572446.843 8  85381305.32546  20850906.961                    20850912.574
 118735391.712 7  92521143.718 7  22594595.406                    22594605.863
 118774607.922 7  92551706.30344  22602055.930                    22602064.410
 11  8 25  0 48  0.0000000  0  8G04G10G17G12G05G02G25G30
 121810763.919 7  94917611.49244  23179787.414                    23179797.449
 112668760.098 7  87794007.25645  21440123.133                    21440131.461
 127546293.535 6  99386779.531 6  24271250.000                    24271260.336
 109241352.025 8  85123191.697 7  20787931.664                    20787938.367
 108568332.775 8  84598793.475 8  20659827.602                    20659835.180
 109594006.913 8  85398105.38246  20855010.039                    20855015.633
 118663521.280 7  92465140.805 7  22580918.914                    22580929.270
 118705817.525 7  92498103.43544  22588965.867                    22588973.832
 11  8 25  0 48 30.0000000  0  8G04G10G17G12G05G02G25G30
 121892343.725 6  94981180.12844  23195312.109                    23195321.672
 112727501.826 8  87839780.02145  21451301.547                    21451309.383
 127615040.268 6  99440348.365 6  24284331.813                    24284342.797
 109229554.055 8  85113998.487 7  20785686.563                    20785693.461
 108520145.825 8  84561245.251 8  20650657.602                    20650665.828
 109615738.992 8  85415039.46646  20859145.461                    20859150.910
 118592068.301 7  92409463.169 7  22567321.844                    22567332.445
 118637502.809 7  92444871.22444  22575965.461                    22575973.828
 11  8 25  0 49  0.0000000  0  8G04G10G17G12G05G02G25G30
 121973910.339 6  95044738.51644  23210833.648                    23210843.574
 112786763.519 7  87885957.93945  21462578.211                    21462586.652
 127683977.080 6  99494065.374 6  24297450.352                    24297461.273
 109218333.176 8  85105254.948 7  20783551.297                    20783558.148
 108472488.675 8  84524109.846 8  20641588.797                    20641596.594
 109637641.454 8  85432106.31746  20863313.297                    20863319.238
 118521034.616 7  92354112.265 7  22553804.516                    22553815.008
 118569665.687 7  92392011.15844  22563056.664                    22563064.973
 11  8 25  0 49 30.0000000  0  8G04G10G17G12G05G02G25G30
 122055463.031 6  95108286.03344  23226352.344                    23226362.348
 112846543.370 8  87932539.63345  21473954.203                    21473962.406
 127753104.068 6  99547930.510 6  24310604.508                    24310615.582
 109207690.089 8  85096961.640 7  20781525.906                    20781533.254
 108425363.127 8  84487388.680 8  20632621.484                    20632629.145
 109659713.678 8  85449305.44546  20867513.289                    20867518.961
 118450422.979 7  92299090.223 7  22540367.313                    22540377.703
 118502308.753 7  92339525.26744  22550238.773                    22550246.660
 11  8 25  0 50  0.0000000  0  8G04G10G17G12G05G02G25G30
 122137001.015 7  95171822.08644  23241868.250                    23241878.660
 112906839.729 7  87979523.80545  21485428.117                    21485436.438
 127822421.472 6  99601944.039 6  24323796.203                    24323806.195
 109197625.692 7  85089119.253 7  20779610.930                    20779617.668
 108378770.850 8  84451083.052 8  20623754.789                    20623762.617
 109681954.843 7  85466636.21446  20871746.078                    20871751.664
 118380235.955 7  92244399.052 7  22527011.477                    22527021.918
 118435434.424 7  92287415.42045  22537513.133                    22537521.531
 11  8 25  0 50 30.0000000  0  8G04G10G17G12G05G02G25G30
 122218523.090 7  95235345.75144  23257382.031                    23257392.156
 112967649.621 7  88026908.12945  21496999.945                    21497008.027
 127891928.791 6  99656105.549 6  24337022.430                    24337032.609
 109188140.067 8  85081727.855 7  20777805.875                    20777812.828
 108332713.096 8  84415193.933 8  20614990.625                    20614997.836
 109704363.594 8  85484097.56046  20876010.219                    20876015.633
 118310475.786 7  92190040.504 7  22513736.594                    22513747.047
 118369044.854 7  92235683.29444  22524879.445                    22524888.449
 11  8 25  0 51  0.0000000  0  8G04G10G17G12G05G02G25G30
 122300028.037 7  95298856.08744  23272891.688                    23272901.750
 113028970.575 7  88074690.68345  21508668.672                    21508677.414
 127961626.410 6  99710415.355 6  24350285.531                    24350296.211
 109179233.671 8  85074787.810 7  20776110.641                    20776117.930
 108287191.060 8  84379722.265 8  20606327.563                    20606335.348
 109726938.581 8  85501688.45446  20880305.945                    20880311.590
 118241144.441 7  92136016.110 7  22500543.594                    22500553.984
 118303141.948 7  92184330.40745  22512338.969                    22512346.867
 11  8 25  0 51 30.0000000  0  9G04G10G17G12G29G05G02G25G30
 122381515.280 7  95362352.60644  23288398.563                    23288408.254
 113090801.081 7  88122870.29245  21520434.469                    21520442.961
 128031514.248 6  99764873.370 6  24363584.047                    24363595.762
 109170907.182 8  85068299.635 7  20774526.375                    20774533.113
 129557633.57116 100954057.68415  24654005.664                    24654015.039
 108242206.329 8  84344669.262 8  20597767.266                    20597775.055
 109749679.015 8  85519408.27246  20884633.273                    20884639.125
 118172244.546 7  92082327.905 7  22487431.930                    22487442.723
 118237728.143 7  92133358.62045  22499890.938                    22499899.512
 11  8 25  0 52  0.0000000  0  9G04G10G17G12G29G05G02G25G30
 122462984.181 7  95425834.85044  23303901.414                    23303910.953
 113153138.711 7  88171445.06645  21532297.234                    21532305.711
 128101592.685 6  99819479.926 6  24376919.148                    24376931.090
 109163161.764 8  85062264.239 7  20773052.688                    20773059.582
 129477952.116 7 100891968.269 5  24638843.531                    24638852.824
 108197760.923 8  84310036.523 8  20589309.672                    20589317.320
 109772584.374 8  85537256.59746  20888991.984                    20888997.813
 118103778.876 7  92028978.079 7  22474402.664                    22474413.629
 118172806.177 7  92082770.09645  22487536.875                    22487545.641
 11  8 25  0 52 30.0000000  0  9G04G10G17G12G29G05G02G25G30
 122544434.106 6  95489302.30144  23319400.711                    23319410.766
 113215981.603 7  88220413.55445  21544256.109                    21544264.320
 128171861.958 6  99874235.158 6  24390291.414                    24390302.551
 109155997.807 8  85056681.932 7  20771689.367                    20771696.160
 129398190.745 6 100829816.521 5  24623664.688                    24623674.035
 108153856.121 8  84275825.023 8  20580954.813                    20580962.484
 109795653.627 8  85555232.62246  20893381.867                    20893388.086
 118035749.873 7  91975968.495 7  22461458.039                    22461468.094
 118108378.395 7  92032566.63345  22475276.352                    22475285.402
 11  8 25  0 53  0.0000000  0  9G04G10G17G12G29G05G02G25G30
 122625863.256 6  95552753.56144  23334895.961                    23334905.844
 113279326.377 7  88269773.12245  21556310.016                    21556318.523
 128242321.342 6  99929138.574 6  24403699.492                    24403710.348
 109149414.828 8  85051552.336 7  20770436.492                    20770443.563
 129318348.812 6 100767602.028 5  24608471.609                    24608480.980
 108110492.540 8  84242035.268 8  20572702.688                    20572711.035
 109818885.106 8  85573335.06746  20897802.766                    20897808.348
 117968159.004 7  91923300.319 7  22448595.563                    22448606.063
 118044445.978 7  91982749.18444  22463110.352                    22463119.176
 11  8 25  0 53 30.0000000  0  9G04G10G17G12G29G05G02G25G30
 122707270.702 6  95616187.90544  23350387.766                    23350397.449
 113343170.673 7  88319521.92945  21568459.016                    21568467.445
 128312970.626 6  99984189.951 6  24417144.086                    24417154.836
 109143413.348 8  85046875.853 7  20769294.563                    20769301.492
 129238427.004 6 100705325.379 5  24593263.953                    24593272.984
 108067671.365 8  84208668.163 8  20564554.469                    20564562.188
 109842277.735 8  85591563.08346  20902254.320                    20902260.035
 117901008.609 7  91870975.389 7  22435817.055                    22435827.914
 117981011.232 7  91933319.53045  22451039.305                    22451048.055
 11  8 25  0 54  0.0000000  0  9G04G10G17G12G29G05G02G25G30
 122788655.613 6  95679604.69144  23365874.617                    23365883.938
 113407512.164 8  88369658.15245  21580702.820                    21580711.371
 128383809.784 7 100039389.282 6  24430623.773                    24430634.762
 109137993.721 8  85042652.764 7  20768263.180                    20768269.883
 129158426.014 6 100642987.033 5  24578038.656                    24578048.922
 108025394.062 8  84175724.842 8  20556509.242                    20556516.910
 109865830.509 8  85609915.88446  20906736.477                    20906741.809
 117834300.988 7  91818995.476 7  22423123.766                    22423133.785
 117918076.323 7  91884279.37345  22439063.039                    22439071.492
 11  8 25  0 54 30.0000000  0  9G04G10G17G12G29G05G02G25G30
 122870016.947 6  95743003.11044  23381357.586                    23381367.465
 113472348.383 8  88420179.88345  21593040.688                    21593049.500
 128454838.604 7 100094736.437 5  24444140.320                    24444151.469
 109133156.154 8  85038883.228 7  20767342.633                    20767349.809
 129078346.331 5 100580587.364 5  24562799.648                    24562810.188
 107983661.805 8  84143206.234 8  20548567.602                    20548575.629
 109889542.247 8  85628392.55246  20911248.461                    20911254.207
 117768038.322 7  91767362.278 7  22410513.961                    22410524.336
 117855643.318 7  91835630.29245  22427182.516                    22427191.051
 11  8 25  0 55  0.0000000  0  9G04G10G17G12G29G05G02G25G30
 122951354.108 6  95806382.69544  23396834.953                    23396845.090
 113537676.989 8  88471085.28545  21605472.430                    21605480.516
 128526057.208 6 100150231.444 6  24457692.922                    24457703.902
 109128901.240 8  85035567.703 7  20766533.008                    20766540.156
 128998188.630 6 100518126.850 5  24547546.227                    24547556.254
 107942475.968 8  84111113.423 8  20540730.609                    20540738.332
 109913412.214 7  85646992.52046  20915791.023                    20915796.324
 117702222.960 7  91716077.632 7  22397989.906                    22398000.031
 117793714.355 7  91787373.99645  22415397.625                    22415406.199
 11  8 25  0 55 30.0000000  0  9G04G10G17G12G29G05G02G25G30
 123032665.947 6  95869742.53144  23412308.938                    23412318.473
 113603495.059 8  88522372.09545  21617997.609                    21618005.531
 128597465.400 6 100205874.196 5  24471282.125                    24471292.125
 109125229.139 8  85032706.311 7  20765834.391                    20765841.660
 128917953.392 6 100455605.986 6  24532277.906                    24532288.563
 107901837.890 8  84079447.415 8  20532997.281                    20533004.930
 109937438.903 7  85665714.60946  20920363.008                    20920368.320
 117636856.813 7  91665143.018 7  22385550.922                    22385560.871
 117732291.211 7  91739511.83945  22403709.492                    22403718.109
 11  8 25  0 56  0.0000000  0  9G04G10G17G12G29G05G02G25G30
 123113951.780 6  95933082.09544  23427776.719                    23427786.133
 113669800.833 8  88574038.92145  21630614.961                    21630623.344
 128669063.192 6 100261664.673 5  24484906.500                    24484917.176
 109122139.363 8  85030298.690 7  20765246.156                    20765253.523
 128837641.505 6 100393025.397 6  24516995.461                    24517006.027
 107861748.542 8  84048208.991 8  20525368.383                    20525376.270
 109961621.826 7  85684558.44946  20924964.820                    20924970.219
 117571942.451 7  91614560.440 7  22373198.125                    22373208.301
 117671376.398 7  91692045.78544  22392117.758                    22392125.969
 11  8 25  0 56 30.0000000  0  9G04G10G17G12G29G05G02G25G30
 123195210.998 6  95996400.92344  23443239.938                    23443249.398
 113736592.047 8  88626084.02645  21643324.586                    21643332.980
 128740850.641 6 100317602.966 5  24498566.750                    24498577.430
 109119633.222 8  85028345.845 7  20764769.563                    20764776.457
 128757253.195 6 100330385.233 6  24501698.672                    24501708.613
 107822209.221 8  84017399.162 8  20517844.203                    20517851.789
 109985960.102 8  85703523.33846  20929595.883                    20929601.781
 117507482.147 7  91564331.683 7  22360931.320                    22360941.887
 117610971.932 7  91644977.40845  22380623.352                    22380631.336
 11  8 25  0 57  0.0000000  0  8G04G10G12G29G05G02G25G30
 123276443.550 7  96059698.97443  23458697.672                    23458707.578
 113803866.752 8  88678505.87145  21656126.641                    21656134.977
 109117711.906 8  85026848.707 7  20764403.813                    20764410.848
 128676790.819 7 100267687.320 6  24486387.141                    24486396.813
 107783221.927 8  83987019.476 8  20510425.453                    20510433.480
 110010453.320 8  85722608.97046  20934256.922                    20934262.969
 117443479.081 7  91514459.212 7  22348752.117                    22348762.410
 117551080.832 7  91598309.07245  22369226.039                    22369234.590
 11  8 25  0 57 30.0000000  0  8G04G10G12G29G05G02G25G30
 123357647.448 7  96122974.71343  23474150.359                    23474159.965
 113871621.405 8  88731301.70445  21669020.172                    21669028.395
 109116373.775 7  85025806.003 7  20764149.211                    20764156.316
 128596253.512 7 100204931.059 6  24471061.164                    24471070.594
 107744786.803 8  83957070.056 8  20503111.484                    20503119.188
 110035099.377 8  85741813.67946  20938946.938                    20938952.742
 117379933.948 7  91464943.571 7  22336659.461                    22336670.012
 117491703.728 7  91552041.25645  22357926.813                    22357935.473
 11  8 25  0 58  0.0000000  0  8G04G10G12G29G05G02G25G30
 123438821.602 6  96186227.25743  23489597.383                    23489606.961
 113939853.335 7  88784469.42645  21682004.203                    21682012.637
 109115619.281 7  85025218.078 7  20764005.258                    20764012.438
 128515641.712 7 100142116.757 6  24455720.852                    24455730.875
 107706904.678 8  83927551.550 8  20495902.359                    20495910.445
 110059897.025 8  85761136.52046  20943665.898                    20943671.875
 117316848.950 7  91415786.478 7  22324655.242                    22324665.520
 117432842.521 7  91506175.42945  22346726.031                    22346734.137
 11  8 25  0 58 30.0000000  0  8G04G10G12G29G05G02G25G30
 123519965.572 6  96249456.27943  23505038.813                    23505047.926
 114008560.331 7  88838007.33945  21695078.797                    21695086.781
 109115448.557 8  85025085.044 7  20763973.023                    20763980.324
 128434956.291 7 100079245.041 6  24440367.227                    24440376.867
 107669576.761 8  83898464.891 8  20488799.234                    20488807.375
 110084845.648 7  85780577.00846  20948414.094                    20948419.211
 117254226.426 7  91366989.746 7  22312738.539                    22312748.500
 117374499.477 7  91460713.35945  22335623.734                    22335632.090
 11  8 25  0 59  0.0000000  0  8G04G10G12G29G05G02G25G30
 123601078.190 6  96312660.85443  23520474.547                    23520483.430
 114077739.374 7  88891913.07145  21708242.695                    21708251.621
 109115861.674 8  85025406.952 7  20764051.766                    20764058.805
 128354197.720 7 100016316.370 6  24424999.047                    24425009.164
 107632804.232 8  83869811.001 8  20481801.586                    20481809.406
 110109944.035 8  85800134.19746  20953189.711                    20953195.336
 117192068.332 7  91318554.905 7  22300910.313                    22300920.535
 117316676.217 7  91415656.32745  22324620.008                    22324628.559
 11  8 25  0 59 30.0000000  0  8G04G10G12G29G05G02G25G30
 123682159.134 6  96375840.76344  23535903.625                    23535912.801
 114147388.470 7  88946185.08945  21721496.805                    21721504.797
 109116858.458 7  85026183.659 7  20764241.289                    20764248.625
 128273367.057 6  99953331.541 6  24409616.734                    24409627.406
 107596588.048 8  83841590.626 8  20474909.922                    20474917.637
 110135191.570 8  85819807.60246  20957994.008                    20957999.820
 117130376.987 7  91270483.753 7  22289170.711                    22289180.953
 117259375.070 7  91371006.12545  22313715.539                    22313724.297
 11  8 25  1  0  0.0000000  0  8G04G10G12G29G05G02G25G30
 123763207.794 7  96438995.53943  23551326.859                    23551336.098
 114217505.477 7  89000821.72245  21734839.594                    21734847.742
 109118439.858 8  85027415.909 7  20764542.391                    20764549.461
 128192465.229 6  99890291.256 6  24394222.195                    24394231.902
 107560929.539 8  83813804.804 8  20468124.227                    20468132.055
 110160587.652 8  85839596.76646  20962826.773                    20962832.320
 117069154.931 7  91222778.277 7  22277520.383                    22277531.035
 117202598.189 7  91326764.44745  22302911.695                    22302919.922
 11  8 25  1  0 30.0000000  0  8G04G10G12G29G05G02G25G30
 123844223.056 7  96502124.27143  23566743.008                    23566752.500
 114288087.396 7  89055820.60445  21748270.750                    21748279.152
 109120605.319 8  85029103.277 7  20764954.828                    20764961.738
 128111492.321 6  99827195.537 6  24378813.828                    24378822.637
 107525829.515 8  83786454.171 8  20461444.859                    20461452.883
 110186130.777 8  85859500.49646  20967687.570                    20967693.367
 117008403.741 8  91175439.714 7  22265959.961                    22265969.859
 117146347.149 7  91282932.49945  22292207.617                    22292216.063
 11  8 25  1  1  0.0000000  0  8G04G10G12G29G05G02G25G30
 123925204.160 7  96565226.40344  23582153.875                    23582162.535
 114359131.085 8  89111179.31245  21761790.406                    21761798.254
 109123354.623 8  85031245.587 7  20765477.313                    20765484.543
 128030449.224 6  99764045.151 6  24363391.477                    24363400.418
 107491288.694 8  83759539.273 8  20454872.445                    20454879.996
 110211819.841 8  85879517.94746  20972575.891                    20972581.340
 116948125.343 8  91128469.549 7  22254488.977                    22254499.906
 117090623.576 7  91239511.58045  22281603.563                    22281611.875
 11  8 25  1  1 30.0000000  0  8G04G10G12G29G05G02G25G30
 124006150.413 7  96628301.36344  23597556.883                    23597566.391
 114430634.488 7  89166896.24745  21775396.602                    21775404.703
 109126687.708 8  85033842.788 7  20766111.844                    20766118.730
 127949336.619 6  99700840.612 6  24347955.906                    24347965.539
 107457308.022 8  83733060.857 8  20448405.656                    20448413.262
 110237653.998 8  85899648.46346  20977492.117                    20977497.934
 116888322.107 7  91081869.639 7  22243109.250                    22243119.289
 117035429.584 7  91196503.30745  22271100.148                    22271108.895
 11  8 25  1  2  0.0000000  0  8G04G10G12G29G05G02G25G30
 124087061.129 7  96691348.64243  23612953.773                    23612963.148
 114502595.230 7  89222969.53645  21789090.805                    21789098.430
 109130604.844 8  85036895.095 7  20766857.414                    20766864.613
 127868155.526 6  99637582.729 6  24332508.453                    24332517.039
 107423888.938 8  83707020.043 8  20442046.336                    20442053.766
 110263632.726 8  85919891.61946  20982435.406                    20982441.336
 116828996.236 8  91035641.704 7  22231819.719                    22231830.031
 116980767.235 7  91153909.30445  22260698.477                    22260706.953
 11  8 25  1  2 30.0000000  0  8G04G10G12G29G05G02G25G30
 124167935.421 7  96754367.54844  23628343.672                    23628353.195
 114575010.144 8  89279396.73845  21802870.586                    21802878.496
 109135105.703 8  85040402.248 7  20767713.641                    20767721.012
 127786906.528 6  99574271.871 5  24317046.813                    24317055.340
 107391031.836 8  83681417.135 8  20435793.734                    20435801.367
 110289754.638 8  85940246.35246  20987406.594                    20987412.070
 116770149.412 7  90989787.047 7  22220621.055                    22220631.742
 116926637.980 7  91111730.69245  22250398.398                    22250406.313
 11  8 25  1  3  0.0000000  0  8G04G10G12G29G05G02G25G30
 124248772.638 7  96817357.55144  23643725.961                    23643736.457
 114647876.880 8  89336175.99945  21816736.500                    21816744.758
 109140190.184 8  85044364.178 7  20768681.078                    20768688.137
 127705590.092 6  99510908.469 6  24301572.492                    24301581.793
 107358737.563 8  83656252.798 8  20429648.492                    20429655.961
 110316018.808 8  85960711.93446  20992404.289                    20992409.832
 116711783.687 7  90944307.269 7  22209515.211                    22209525.551
 116873043.602 7  91069968.86645  22240199.453                    22240207.699
 11  8 25  1  3 30.0000000  0  8G04G10G12G29G05G02G25G30
 124329571.842 7  96880317.93344  23659102.484                    23659111.918
 114721192.580 8  89393305.10145  21830687.945                    21830696.281
 109145857.996 8  85048780.647 7  20769759.578                    20769766.883
 127624207.154 6  99447493.277 6  24286085.266                    24286095.473
 107327006.653 8  83631527.445 8  20423609.992                    20423617.605
 110342423.990 8  85981287.40746  20997429.180                    20997434.941
 116653900.847 7  90899203.768 7  22198499.969                    22198510.117
 116819985.830 7  91028625.15745  22230103.086                    22230111.449
 11  8 25  1  4  0.0000000  0  8G04G10G12G29G05G02G25G30
 124410332.837 7  96943248.51844  23674470.172                    23674480.059
 114794955.139 8  89450782.40745  21844724.820                    21844732.891
 109152109.360 8  85053651.835 7  20770949.484                    20770956.582
 127542758.837 6  99384027.120 6  24270587.445                    24270596.238
 107295840.610 8  83607242.244 8  20417679.000                    20417687.094
 110368970.019 7  86001972.62246  21002480.703                    21002486.172
 116596503.389 7  90854478.485 7  22187577.758                    22187587.957
 116767466.797 7  90987701.26145  22220108.195                    22220117.008
 11  8 25  1  4 30.0000000  0  8G04G10G12G29G05G02G25G30
 124491054.762 7  97006148.70644  23689830.492                    23689840.914
 114869161.886 7  89508605.83345  21858845.523                    21858853.656
 109158944.478 8  85058977.884 7  20772250.117                    20772257.082
 127461245.747 6  99320510.478 6  24255073.898                    24255085.105
 107265240.186 8  83583397.786 8  20411856.320                    20411864.016
 110395655.925 8  86022766.83546  21007558.836                    21007563.910
 116539593.248 7  90810132.930 7  22176747.891                    22176758.344
 116715488.283 7  90947198.53845  22210217.781                    22210225.723
 11  8 25  1  5  0.0000000  0  8G04G10G12G29G05G02G25G30
 124571736.664 7  97069017.67243  23705184.344                    23705194.602
 114943809.686 7  89566772.92445  21873050.930                    21873059.063
 109166362.084 8  85064757.828 7  20773661.680                    20773668.602
 127379668.269 6  99256943.678 5  24239551.977                    24239560.906
 107235205.509 8  83559994.170 8  20406140.727                    20406148.086
 110422480.049 8  86043668.75246  21012663.031                    21012668.559
 116483171.864 7  90766168.227 7  22166011.438                    22166021.953
 116664051.427 7  90907117.89445  22200429.391                    22200437.754
 11  8 25  1  5 30.0000000  0  8G04G10G12G29G05G02G25G30
 124652378.146 7  97131855.16944  23720530.336                    23720539.762
 115018896.017 7  89625281.74745  21887339.516                    21887347.617
 109174362.760 8  85070992.105 7  20775184.539                    20775191.215
 127298027.841 6  99193327.784 5  24224015.156                    24224024.590
 107205737.803 8  83537032.356 8  20400533.492                    20400540.980
 110449442.147 8  86064678.16946  21017793.945                    21017799.637
 116427241.674 8  90722586.270 7  22155368.102                    22155378.336
 116613158.386 7  90867460.99345  22190745.055                    22190753.262
 11  8 25  1  6  0.0000000  0  8G04G10G12G29G05G02G25G30
 124732978.570 7  97194660.66244  23735868.016                    23735877.770
 115094418.334 7  89684130.28445  21901711.148                    21901718.977
 109182945.560 8  85077679.992 7  20776817.484                    20776824.473
 127216324.822 6  99129663.098 6  24208468.320                    24208477.277
 107176837.699 8  83514512.820 8  20395033.586                    20395041.215
 110476541.225 8  86085794.33646  21022950.977                    21022955.973
 116371804.386 7  90679388.389 7  22144819.086                    22144829.539
 116562810.729 7  90828229.07445  22181164.063                    22181172.605
 11  8 25  1  6 30.0000000  0  8G04G10G12G29G05G02G25G30
 124813537.202 7  97257433.59944  23751198.063                    23751207.797
 115170374.048 8  89743316.53445  21916164.875                    21916172.730
 109192110.598 8  85084821.562 7  20778561.492                    20778568.266
 127134560.304 6  99065950.536 6  24192908.828                    24192918.230
 107148505.880 8  83492436.105 8  20389642.602                    20389649.996
 110503776.408 8  86107016.55646  21028133.063                    21028138.746
 116316862.032 7  90636576.180 7  22134363.555                    22134374.090
 116513010.188 7  90789423.46845  22171687.719                    22171695.555
 11  8 25  1  7  0.0000000  0  8G04G10G12G29G05G02G25G30
 124894052.994 7  97320173.13243  23766518.992                    23766528.727
 115246759.937 7  89802837.98945  21930700.500                    21930708.910
 109201857.162 8  85092416.282 7  20780416.484                    20780423.590
 127052734.826 6  99002190.447 6  24177338.117                    24177347.648
 107120742.480 8  83470802.316 8  20384359.125                    20384366.621
 110531146.164 8  86128343.63546  21033341.953                    21033347.219
 116262416.010 8  90594150.717 7  22124003.031                    22124013.484
 116463757.909 7  90751045.07545  22162315.063                    22162322.852
 11  8 25  1  7 30.0000000  0  8G04G10G12G29G05G02G25G30
 124974525.482 6  97382878.94343  23781832.648                    23781842.398
 115323573.412 8  89862692.63145  21945317.375                    21945325.844
 109212185.049 8  85100463.962 7  20782381.320                    20782388.742
 126970849.291 6  98938383.530 6  24161755.914                    24161765.023
 107093548.543 8  83449612.266 8  20379184.414                    20379192.051
 110558649.941 8  86149775.14946  21038575.273                    21038580.738
 116208468.323 8  90552113.570 7  22113737.055                    22113747.379
 116415055.710 7  90713095.32445  22153047.320                    22153055.457
 11  8 25  1  8  0.0000000  0  8G04G10G12G29G05G02G25G30
 125054954.287 6  97445550.67143  23797137.727                    23797147.699
 115400811.956 8  89922878.49045  21960015.945                    21960023.703
 109223093.808 8  85108964.283 7  20784457.539                    20784464.336
 126888904.517 6  98874530.472 6  24146162.984                    24146171.516
 107066924.654 8  83428866.400 8  20374117.898                    20374125.211
 110586286.936 8  86171310.46846  21043834.711                    21043840.266
 116155021.014 8  90510466.323 7  22103566.578                    22103576.227
 116366905.238 7  90675575.49645  22143884.516                    22143892.840
 11  8 25  1  8 30.0000000  0  8G04G10G12G29G05G02G25G30
 125135338.844 6  97508187.98443  23812434.570                    23812444.852
 115478472.905 7  89983393.51445  21974794.094                    21974802.426
 109234583.322 8  85117917.136 7  20786643.469                    20786650.762
 126806901.306 7  98810631.873 6  24130557.695                    24130566.738
 107040871.431 8  83408565.213 8  20369159.922                    20369167.355
 110614056.401 8  86192949.00746  21049118.992                    21049124.438
 116102076.053 8  90469210.517 7  22093491.375                    22093501.461
 116319308.300 7  90638486.98445  22134826.828                    22134835.188
 11  8 25  1  9  0.0000000  0  8G04G10G12G29G05G02G25G30
 125215678.373 6  97570790.21043  23827722.023                    23827732.648
 115556553.233 7  90044235.31145  21989652.172                    21989660.289
 109246653.094 8  85127322.131 7  20788940.727                    20788947.555
 126724840.771 6  98746688.632 6  24114942.359                    24114951.676
 107015389.474 8  83388709.164 8  20364311.328                    20364318.734
 110641957.419 8  86214690.06146  21054428.328                    21054433.836
 116049635.038 8  90428347.403 7  22083512.023                    22083522.184
 116272266.203 7  90601830.81045  22125875.383                    22125883.691
 11  8 25  1  9 30.0000000  0  8G04G10G12G29G05G02G25G30
 125295972.474 6  97633357.04343  23843001.344                    23843012.043
 115635050.617 7  90105402.09345  22004589.914                    22004598.473
 109259303.037 8  85137179.217 7  20791347.977                    20791355.086
 126642724.370 6  98682701.874 6  24099315.586                    24099325.469
 106990479.619 8  83369298.913 8  20359571.039                    20359578.715
 110669989.710 8  86236533.40446  21059762.672                    21059768.137
 115997700.135 8  90387878.655 7  22073629.609                    22073638.820
 116225780.791 7  90565608.42045  22117029.445                    22117037.609
 11  8 25  1 10  0.0000000  0  8G04G10G12G29G05G02G25G30
 125376220.716 6  97695888.13643  23858272.055                    23858282.660
 115713962.537 7  90166891.88245  22019606.125                    22019614.859
 109272532.482 8  85147487.858 7  20793865.234                    20793872.543
 126560552.592 6  98618671.974 6  24083678.688                    24083688.461
 106966142.077 8  83350334.613 8  20354939.758                    20354947.156
 110698152.189 8  86258478.19746  21065121.672                    21065127.387
 115946273.144 8  90347805.692 7  22063842.813                    22063852.766
 116179853.675 7  90529821.07045  22108289.703                    22108297.840
 11  8 25  1 10 30.0000000  0  8G04G10G12G29G05G02G25G30
 125456422.233 6  97758382.82743  23873535.133                    23873544.520
 115793285.822 7  90228702.22545  22034701.164                    22034709.531
 109286340.450 8  85158247.302 7  20796492.453                    20796499.863
 126478325.936 6  98554599.343 6  24068031.555                    24068041.270
 106942377.367 8  83331816.684 8  20350417.227                    20350424.828
 110726443.521 8  86280523.37946  21070505.664                    21070511.059
 115895355.401 8  90308129.540 7  22054153.633                    22054163.410
 116134485.858 7  90494469.53045  22099656.359                    22099664.793
 11  8 25  1 11  0.0000000  0  8G04G10G12G29G05G02G25G30
 125536576.546 6  97820840.72043  23888787.859                    23888797.723
 115873017.616 7  90290830.87045  22049873.688                    22049881.590
 109300726.521 8  85169457.209 7  20799230.414                    20799237.793
 126396045.280 6  98490484.621 6  24052373.703                    24052382.980
 106919185.834 8  83313745.387 8  20346003.930                    20346011.273
 110754862.984 8  86302668.40446  21075913.602                    21075919.273
 115844948.747 8  90268851.657 7  22044561.805                    22044571.016
 116089678.918 7  90459555.03645  22091130.125                    22091138.344
 11  8 25  1 11 30.0000000  0  8G04G10G12G29G05G02G25G30
 125616682.793 7  97883261.16943  23904031.438                    23904041.203
 115953155.047 7  90353275.60845  22065123.125                    22065131.340
 109315690.172 8  85181117.185 7  20802077.844                    20802085.508
 126313711.871 6  98426328.831 6  24036705.930                    24036716.063
 106896567.599 8  83296120.808 8  20341699.766                    20341707.148
 110783409.631 8  86324912.53446  21081345.828                    21081351.453
 115795054.792 8  90229973.265 7  22035066.781                    22035076.914
 116045434.154 7  90425078.60345  22082710.516                    22082718.637
 11  8 25  1 12  0.0000000  0  8G04G10G12G29G05G02G25G30
 125696740.374 6  97945643.69443  23919265.758                    23919275.855
 116033695.305 7  90416034.22145  22080449.297                    22080457.516
 109331230.673 8  85193226.650 7  20805035.297                    20805042.727
 126231326.294 6  98362132.366 6  24021028.586                    24021037.984
 106874523.242 8  83278943.409 8  20337505.188                    20337512.668
 110812082.333 8  86347254.89546  21086801.984                    21086807.891
 115745675.084 8  90191495.595 7  22025670.586                    22025680.355
 116001752.771 7  90391041.17945  22074397.906                    22074406.473
 11  8 25  1 12 30.0000000  0  8G04G10G12G29G05G02G25G30
 125776749.179 6  98007988.21243  23934491.016                    23934501.164
 116114636.015 7  90479104.90545  22095851.984                    22095860.285
 109347347.721 8  85205785.375 7  20808102.516                    20808109.207
 126148889.869 6  98297896.308 6  24005341.484                    24005351.121
 106853053.403 8  83262213.690 8  20333419.828                    20333427.020
 110840881.074 8  86369695.46846  21092282.547                    21092288.418
 115696811.681 8  90153420.229 7  22016372.281                    22016382.207
 115958636.621 7  90357444.18245  22066193.602                    22066201.977
 11  8 25  1 13  0.0000000  0  8G04G10G12G29G05G02G25G30
 125856708.679 6  98070294.32543  23949706.633                    23949716.863
 116195974.525 7  90542485.53845  22111330.273                    22111338.211
 109364040.920 8  85218793.045 7  20811279.125                    20811286.406
 126066403.841 6  98233621.556 6  23989645.445                    23989653.945
 106832158.609 8  83245932.059 8  20329443.492                    20329450.684
 110869805.110 8  86392233.66746  21097786.695                    21097792.109
 115648466.419 8  90115748.625 7  22007171.852                    22007182.043
 115916087.154 7  90324288.76845  22058096.320                    22058104.789
 11  8 25  1 13 30.0000000  0  8G04G10G12G29G05G02G25G30
 125936618.241 6  98132561.51943  23964912.656                    23964922.648
 116277707.811 7  90606173.79945  22126883.281                    22126891.953
 109381309.231 8  85232248.861 7  20814565.250                    20814572.105
 125983868.705 6  98169308.579 6  23973938.516                    23973948.301
 106811838.792 8  83230098.458 8  20325576.453                    20325583.691
 110898853.394 8  86414868.69046  21103314.148                    21103319.473
 115600640.796 8  90078481.918 7  21998071.273                    21998081.484
 115874105.661 7  90291575.92945  22050107.719                    22050115.516
 11  8 25  1 14  0.0000000  0  8G04G10G12G29G05G02G25G30
 126016476.888 6  98194789.01943  23980108.883                    23980119.785
 116359832.268 7  90670166.86245  22142510.750                    22142519.820
 109399151.755 8  85246152.115 7  20817960.180                    20817967.711
 125901285.602 6  98104958.168 6  23958224.078                    23958233.094
 106792094.341 8  83214713.201 8  20321819.367                    20321826.586
 110928024.542 8  86437599.44446  21108864.883                    21108870.613
 115553335.954 8  90041621.028 7  21989069.398                    21989079.273
 115832692.871 7  90259306.23045  22042227.344                    22042235.074
 11  8 25  1 14 30.0000000  0  8G04G10G12G29G05G02G25G30
 126096284.389 6  98256976.67743  23995296.625                    23995305.961
 116442345.789 7  90734463.08645  22158213.047                    22158221.539
 109417568.026 8  85260502.450 7  20821464.867                    20821471.961
 125818655.115 6  98040570.900 6  23942499.727                    23942508.508
 106772925.197 8  83199776.228 8  20318171.531                    20318179.000
 110957317.953 8  86460425.47246  21114439.711                    21114444.973
 115506553.770 8  90005167.406 7  21980166.758                    21980176.988
 115791850.290 7  90227480.86045  22034454.719                    22034463.469
 11  8 25  1 15  0.0000000  0  8G04G10G12G29G05G02G25G30
 126176040.673 6  98319124.42643  24010474.023                    24010483.355
 116525245.651 7  90799060.36545  22173988.195                    22173996.668
 109436557.239 8  85275299.232 7  20825078.258                    20825085.652
 125735978.499 6  97976147.652 6  23926766.695                    23926775.848
 106754332.178 8  83185288.189 8  20314633.273                    20314640.496
 110986733.312 8  86483346.51846  21120036.984                    21120042.676
 115460295.973 8  89969122.396 7  21971364.336                    21971374.793
 115751579.583 7  90196101.10445  22026791.648                    22026800.188
 11  8 25  1 15 30.0000000  0  8G04G10G12G29G05G02G25G30
 126255745.124 7  98381231.78543  24025640.789                    24025650.727
 116608529.157 7  90863956.59745  22189836.695                    22189845.242
 109456119.107 8  85290542.237 7  20828800.664                    20828808.039
 125653256.946 7  97911689.358 6  23911025.594                    23911033.895
 106736315.620 8  83171249.346 8  20311205.023                    20311212.219
 111016270.078 8  86506362.17846  21125657.852                    21125663.172
 115414564.303 8  89933487.348 7  21962662.305                    21962672.215
 115711881.881 7  90165167.84245  22019237.313                    22019245.918
 11  8 25  1 16  0.0000000  0  8G04G10G12G29G05G02G25G30
 126335396.967 6  98443298.13543  24040797.703                    24040808.410
 116692193.022 7  90929149.20945  22205757.789                    22205766.043
 109476252.047 8  85306230.245 7  20832631.719                    20832639.500
 125570491.183 7  97847196.613 6  23895275.500                    23895284.625
 106718875.163 8  83157659.403 8  20307885.938                    20307893.488
 111045926.784 8  86529471.30246  21131301.211                    21131307.156
 115369359.985 8  89898263.229 7  21954060.031                    21954069.813
 115672758.262 7  90134681.92945  22011792.406                    22011800.715
 11  8 25  1 16 30.0000000  0  8G04G10G12G29G05G02G25G30
 126414995.970 6  98505323.30843  24055944.820                    24055955.609
 116776234.540 7  90994636.09745  22221749.766                    22221758.152
 109496955.615 8  85322362.890 7  20836571.359                    20836578.680
 125487682.602 7  97782670.520 6  23879517.563                    23879526.785
 106702011.385 8  83144518.822 8  20304677.141                    20304684.492
 111075703.127 8  86552673.64846  21136967.586                    21136973.250
 115324684.715 8  89863451.349 7  21945558.258                    21945568.461
 115634209.943 7  90104644.29545  22004457.313                    22004465.242
 11  8 25  1 17  0.0000000  0  8G04G10G12G29G05G02G25G30
 126494541.370 6  98567306.68643  24071082.594                    24071092.523
 116860650.920 7  91060415.08345  22237813.844                    22237822.379
 109518228.782 8  85338939.387 7  20840619.703                    20840627.051
 125404831.837 7  97718111.540 6  23863751.555                    23863760.773
 106685724.233 8  83131827.554 8  20301577.398                    20301584.996
 111105597.923 8  86575968.29746  21142656.195                    21142661.801
 115280539.764 8  89829052.711 7  21937157.977                    21937167.848
 115596237.995 7  90075055.79045  21997231.141                    21997239.383
 11  8 25  1 17 30.0000000  0  8G04G10G12G29G05G02G25G30
 126574032.885 6  98629248.09543  24086208.734                    24086218.848
 116945439.304 7  91126483.94245  22253948.531                    22253956.664
 109540070.699 8  85355959.057 7  20844776.367                    20844783.344
 125321939.959 7  97653520.488 6  23847977.781                    23847986.344
 106670013.743 8  83119585.642 8  20298588.195                    20298595.363
 111135610.575 8  86599354.78346  21148367.945                    21148373.324
 115236926.684 8  89795068.514 7  21928858.820                    21928868.590
 115558843.507 7  90045917.23845  21990115.328                    21990123.277
 11  8 25  1 18  0.0000000  0  8G04G10G12G29G05G02G25G30
 126653469.964 6  98691147.07443  24101325.563                    24101335.703
 117030596.941 7  91192840.52445  22270153.422                    22270162.074
 109562480.569 8  85373421.293 7  20849040.875                    20849048.121
 125239008.093 7  97588898.310 6  23832195.977                    23832205.590
 106654879.953 8  83107793.094 8  20295708.758                    20295715.691
 111165740.344 8  86622832.53846  21154101.094                    21154106.680
 115193847.022 8  89761499.967 7  21920660.914                    21920671.176
 115522027.806 7  90017229.70145  21983109.422                    21983117.781
 11  8 25  1 18 30.0000000  0  8G04G10G12G29G05G02G25G30
 126732852.272 6  98753003.40443  24116430.992                    24116441.258
 117116120.766 7  91259482.46045  22286428.281                    22286436.813
 109585457.391 8  85391325.314 7  20853413.016                    20853420.242
 125156037.291 7  97524245.734 6  23816407.227                    23816416.215
 106640323.174 8  83096450.176 8  20292938.125                    20292945.566
 111195986.493 8  86646400.97046  21159857.148                    21159862.328
 115151302.164 8  89728348.145 7  21912564.820                    21912574.676
 115485791.867 7  89988993.92145  21976213.813                    21976222.301
 11  8 25  1 19  0.0000000  0  8G04G10G12G29G05G02G25G30
 126812179.444 6  98814816.72243  24131526.664                    24131536.906
 117202008.308 7  91326407.81245  22302771.859                    22302780.555
 109609000.373 8  85409670.489 7  20857893.055                    20857900.168
 125073028.799 7  97459563.820 6  23800611.469                    23800620.406
 106626343.129 8  83085556.651 8  20290277.953                    20290285.023
 111226348.496 8  86670059.67846  21165634.633                    21165639.832
 115109293.501 8  89695614.134 7  21904570.836                    21904580.820
 115450136.685 7  89961210.68445  21969428.805                    21969437.695
 11  8 25  1 19 30.0000000  0  8G04G10G12G29G05G02G25G30
 126891451.056 6  98876586.73443  24146611.883                    24146621.832
 117288256.479 7  91393614.16444  22319184.656                    22319192.656
 109633108.239 8  85428455.836 7  20862480.477                    20862488.168
 124989983.449 7  97394853.159 6  23784807.867                    23784817.785
 106612940.038 8  83075112.703 8  20287727.336                    20287734.746
 111256825.332 8  86693807.86146  21171433.922                    21171439.410
 115067822.433 8  89663299.038 7  21896678.930                    21896689.180
 115415063.386 7  89933880.86045  21962755.156                    21962763.043
 11  8 25  1 20  0.0000000  0  8G04G10G12G29G05G02G25G30
 126970666.829 6  98938313.25843  24161686.211                    24161695.941
 117374862.643 7  91461099.48444  22335665.078                    22335673.090
 109657780.341 8  85447680.842 7  20867175.711                    20867183.039
 124906902.662 7  97330114.901 6  23768998.758                    23769007.445
 106600114.222 8  83065118.576 8  20285286.484                    20285293.883
 111287416.754 8  86717645.33946  21177255.195                    21177261.051
 115026890.618 8  89631404.126 7  21888890.141                    21888900.086
 115380573.288 7  89907005.47845  21956191.406                    21956199.555
 11  8 25  1 20 30.0000000  0  8G04G10G12G29G05G02G25G30
 127049826.100 6  98999995.74843  24176749.742                    24176759.547
 117461823.345 7  91528861.05844  22352212.797                    22352221.379
 109683015.525 8  85467344.606 7  20871977.781                    20871984.965
 124823787.466 6  97265349.808 6  23753181.750                    23753190.938
 106587865.360 8  83055574.032 8  20282955.242                    20282962.898
 111318121.689 8  86741571.26346  21183098.203                    21183103.918
 114986499.235 8  89599930.335 7  21881203.500                    21881213.648
 115346667.074 7  89880585.06645  21949739.188                    21949747.398
 11  8 25  1 21  0.0000000  0  8G04G10G12G29G05G02G25G30
 127128928.638 6  99061634.02643  24191802.539                    24191812.555
 117549136.314 7  91596897.13944  22368828.008                    22368836.090
 109708812.674 8  85487446.272 7  20876886.938                    20876894.027
 124740639.040 6  97200558.849 6  23737359.188                    23737368.504
 106576193.649 8  83046479.216 8  20280734.617                    20280741.992
 111348939.610 8  86765585.24046  21188962.438                    21188968.176
 114946649.634 8  89568878.707 7  21873620.836                    21873630.902
 115313345.841 7  89854620.48745  21943398.656                    21943406.707
 11  8 25  1 21 30.0000000  0  9G04G10G26G12G29G05G02G25G30
 127207973.912 6  99123227.72043  24206844.766                    24206854.758
 117636798.098 7  91665205.02244  22385509.516                    22385518.188
 130565055.03516 101739079.66453  24845709.992                    24845722.844
 109735170.659 8  85507984.941 7  20881902.586                    20881910.012
 124657458.141 7  97135742.555 6  23721530.875                    23721539.695
 106565098.376 8  83037833.569 8  20278623.055                    20278630.512
 111379869.478 8  86789686.43846  21194848.336                    21194853.949
 114907342.850 8  89538250.047 7  21866140.688                    21866150.879
 115280610.172 7  89829112.18645  21937169.344                    21937177.223
 11  8 25  1 22  0.0000000  0  9G04G10G26G12G29G05G02G25G30
 127286960.865 6  99184775.94243  24221875.109                    24221885.543
 117724805.241 7  91733782.00544  22402257.094                    22402265.371
 130473709.181 6 101667901.46943  24828327.477                    24828341.789
 109762087.814 8  85528959.337 7  20887024.984                    20887032.031
 124574245.592 7  97070901.645 6  23705695.867                    23705705.590
 106554579.200 8  83029636.829 8  20276621.641                    20276628.668
 111410910.104 7  86813873.94646  21200755.016                    21200760.922
 114868579.766 8  89508045.054 7  21858764.414                    21858774.664
 115248460.608 7  89804060.59045  21931051.180                    21931059.566
 11  8 25  1 22 30.0000000  0  9G04G10G26G12G29G05G02G25G30
 127365889.105 6  99246278.42943  24236894.656                    24236904.086
 117813154.818 7  91802625.81544  22419069.609                    22419078.070
 130382221.124 6 101596612.47243  24810917.516                    24810931.164
 109789562.855 8  85550368.445 7  20892253.344                    20892260.434
 124491001.857 7  97006036.410 6  23689855.406                    23689864.676
 106544635.638 8  83021888.619 8  20274729.234                    20274736.727
 111442060.472 8  86838146.95246  21206682.820                    21206688.492
 114830361.322 7  89478264.445 7  21851491.539                    21851501.879
 115216897.706 7  89779466.13545  21925045.211                    21925053.254
 11  8 25  1 23  0.0000000  0  9G04G10G26G12G29G05G02G25G30
 127444759.234 6  99307735.62843  24251903.453                    24251913.551
 117901845.172 7  91871735.17444  22435946.602                    22435954.648
 130290594.289 6 101525215.33442  24793481.211                    24793495.477
 109817595.288 7  85572211.880 7  20897587.734                    20897594.766
 124407729.511 7  96941148.893 6  23674009.195                    23674018.375
 106535268.643 8  83014589.692 8  20272946.797                    20272954.129
 111473320.881 7  86862505.71546  21212631.625                    21212637.129
 114792689.893 8  89448910.091 7  21844323.016                    21844332.914
 115185923.427 7  89755330.33845  21919150.414                    21919158.973
 11  8 25  1 23 30.0000000  0  9G04G10G26G12G29G05G02G25G30
 127523571.108 6  99369147.49643  24266900.727                    24266910.500
 117990873.400 7  91941107.81144  22452888.383                    22452896.523
 130198831.715 6 101453712.40542  24776019.078                    24776032.613
 109846184.453 8  85594489.126 7  20903027.766                    20903035.344
 124324430.022 7  96876240.230 6  23658157.945                    23658167.137
 106526478.289 8  83007740.082 8  20271273.797                    20271281.441
 111504691.765 8  86886950.56446  21218601.203                    21218606.992
 114755566.849 8  89419983.043 7  21837258.828                    21837269.070
 115155538.847 7  89731654.06045  21913369.273                    21913377.527
 11  8 25  1 24  0.0000000  0  9G04G10G26G12G29G05G02G25G30
 127602324.224 6  99430513.53843  24281886.500                    24281896.895
 118080236.337 7  92010741.25044  22469893.234                    22469902.203
 130106936.124 6 101382105.79342  24758531.258                    24758544.652
 109875328.866 8  85617199.044 7  20908573.906                    20908580.922
 124241104.457 7  96811311.258 6  23642301.156                    23642310.895
 106518263.950 8  83001339.322 8  20269710.563                    20269718.316
 111536171.532 8  86911480.26246  21224591.922                    21224597.426
 114718993.171 8  89391484.067 7  21830299.047                    21830309.332
 115125744.470 7  89708437.67045  21907699.039                    21907707.063
 11  8 25  1 24 30.0000000  0  9G04G10G26G12G29G05G02G25G30
 127681018.076 6  99491833.43443  24296861.555                    24296871.703
 118169931.297 7  92080633.41444  22486961.875                    22486969.988
 130014910.198 5 101310397.67442  24741019.086                    24741032.852
 109905027.837 8  85640341.079 7  20914225.492                    20914232.844
 124157753.567 7  96746362.572 6  23626440.406                    23626449.344
 106510625.349 8  82995387.193 8  20268257.281                    20268264.793
 111567759.432 7  86936094.20946  21230602.578                    21230608.230
 114682970.099 8  89363414.141 7  21823444.109                    21823454.051
 115096541.187 7  89685681.87245  21902142.008                    21902149.848
 11  8 25  1 25  0.0000000  0  9G04G10G26G12G29G05G02G25G30
 127759652.527 6  99553107.02643  24311825.492                    24311835.629
 118259955.464 7  92150782.10544  22504092.359                    22504101.211
 129922757.313 5 101238590.52742  24723482.594                    24723496.215
 109935279.200 8  85663913.549 7  20919982.266                    20919989.172
 124074378.821 7  96681395.294 6  23610574.945                    23610583.461
 106503562.687 8  82989883.846 8  20266913.273                    20266920.309
 111599455.249 7  86960792.25246  21236634.070                    21236639.672
 114647498.894 8  89335774.236 7  21816694.281                    21816703.895
 115067929.781 7  89663387.26645  21896697.672                    21896705.191
 11  8 25  1 25 30.0000000  0  9G04G10G26G12G29G05G02G25G30
 127838227.307 6  99614334.12243  24326777.430                    24326787.406
 118350305.804 7  92221184.94144  22521286.313                    22521294.418
 129830479.85415 101166686.41652  24705922.234                    24705936.559
 109966082.212 8  85687915.874 7  20925843.656                    20925851.109
 123990981.376 7  96616410.365 6  23594704.602                    23594713.355
 106497075.551 8  82984828.950 8  20265678.547                    20265686.004
 111631257.972 8  86985573.58646  21242685.961                    21242691.832
 114612580.560 8  89308565.135 7  21810049.336                    21810059.492
 115039910.992 7  89641554.46345  21891365.328                    21891373.797
 11  8 25  1 26  0.0000000  0  9G04G10G26G12G29G05G02G25G30
 127916741.831 6  99675514.30943  24341718.227                    24341728.285
 118440979.337 7  92291839.61244  22538540.523                    22538549.000
 129738080.716 5 101094687.46842  24688339.352                    24688353.840
 109997435.721 8  85712347.161 7  20931810.039                    20931817.625
 123907562.660 7  96551408.845 6  23578830.789                    23578839.594
 106491163.233 8  82980221.972 8  20264553.836                    20264561.012
 111663166.969 8  87010437.73846  21248758.266                    21248763.629
 114578216.200 8  89281787.704 7  21803510.125                    21803520.008
 115012485.417 7  89620183.88545  21886146.805                    21886154.828
 11  8 25  1 26 30.0000000  0  9G04G10G26G12G29G05G02G25G30
 127995195.804 6  99736647.29343  24356647.492                    24356657.449
 118531973.180 7  92362743.88244  22555856.000                    22555864.445
 129645562.717 5 101022595.88542  24670733.039                    24670747.238
 110029337.843 8  85737205.941 7  20937880.922                    20937888.078
 123824123.587 7  96486391.464 6  23562952.219                    23562961.043
 106485825.388 8  82976062.640 8  20263537.531                    20263544.984
 111695181.753 8  87035384.32046  21254850.094                    21254855.867
 114544406.864 8  89255442.761 7  21797076.594                    21797086.430
 114985653.702 7  89599276.05345  21881040.422                    21881048.512
 11  8 25  1 27  0.0000000  0  9G04G10G26G12G29G05G02G25G30
 128073589.024 6  99797732.90243  24371565.766                    24371575.738
 118623284.322 7  92433895.41144  22573231.641                    22573240.441
 129552928.853 5 100950414.01042  24653105.383                    24653119.484
 110061787.359 7  85762491.260 7  20944055.828                    20944063.168
 123740665.294 7  96421359.117 6  23547070.727                    23547079.148
 106481062.014 8  82972350.947 8  20262631.422                    20262638.723
 111727301.561 7  87060412.74546  21260962.555                    21260968.219
 114511153.513 7  89229531.048 7  21790748.531                    21790758.766
 114959416.365 7  89578831.38645  21876048.133                    21876056.277
 11  8 25  1 27 30.0000000  0  9G04G10G26G12G29G05G02G25G30
 128151921.088 6  99858770.87343  24386472.250                    24386482.258
 118714909.900 6  92505291.92744  22590667.406                    22590676.133
 129460181.711 6 100878143.81843  24635455.828                    24635469.223
 110094782.920 8  85788202.065 7  20950334.688                    20950341.902
 123657189.243 6  96356312.924 6  23531185.344                    23531193.688
 106476872.372 8  82969086.309 8  20261834.172                    20261841.480
 111759525.825 7  87085522.54946  21267094.734                    21267099.934
 114478457.139 8  89204053.346 7  21784526.516                    21784536.508
 114933774.017 7  89558850.33345  21871168.172                    21871176.242
 11  8 25  1 28  0.0000000  0  9G04G10G26G12G29G05G02G25G30
 128230191.817 6  99919761.03443  24401366.102                    24401376.688
 118806847.097 6  92576931.28144  22608163.070                    22608171.266
 129367324.341 6 100805787.74443  24617786.156                    24617798.977
 110128323.261 7  85814337.386 7  20956716.625                    20956724.773
 123573696.640 6  96291253.832 6  23515297.555                    23515305.695
 106473256.452 8  82966268.734 8  20261146.078                    20261153.352
 111791854.038 7  87110713.35946  21273246.461                    21273251.770
 114446318.922 8  89179010.581 7  21778410.891                    21778420.891
 114908727.467 7  89539333.54445  21866401.953                    21866410.305
 11  8 25  1 28 30.0000000  0  9G04G10G26G12G29G05G02G25G30
 128308400.850 6  99980703.11542  24416248.500                    24416258.922
 118899092.735 7  92648810.97944  22625716.430                    22625724.734
 129274359.798 6 100733348.14643  24600095.000                    24600108.188
 110162406.827 8  85840895.993 7  20963203.281                    20963210.418
 123490188.511 6  96226182.654 6  23499405.961                    23499415.082
 106470213.274 8  82963897.444 8  20260567.023                    20260574.441
 111824285.443 8  87135984.56646  21279417.836                    21279423.277
 114414739.714 8  89154403.390 7  21772401.344                    21772411.098
 114884277.026 7  89520281.25245  21861749.227                    21861757.945
 11  8 25  1 29  0.0000000  0  9G04G10G26G12G29G05G02G25G30
 128386548.026 6 100041597.01943  24431119.734                    24431129.414
 118991644.158 7  92720928.94244  22643329.094                    22643336.523
 129181290.868 6 100660827.18643  24582385.141                    24582397.102
 110197032.377 8  85867876.931 7  20969792.242                    20969799.328
 123406666.192 6  96161100.434 6  23483512.789                    23483521.402
 106467742.617 8  82961972.277 8  20260096.820                    20260104.199
 111856819.594 7  87161335.85446  21285609.109                    21285614.531
 114383720.565 7  89130232.611 7  21766498.836                    21766509.176
 114860423.406 7  89501694.01045  21857209.883                    21857218.152
 11  8 25  1 29 30.0000000  0  9G04G10G26G12G29G05G02G25G30
 128464633.040 6 100102442.48743  24445978.422                    24445988.516
 119084498.678 6  92793283.10044  22660998.023                    22661006.551
 129088120.663 6 100588227.30643  24564655.211                    24564667.559
 110232198.325 8  85895278.952 7  20976484.188                    20976491.578
 123323131.221 6  96096008.341 6  23467616.148                    23467624.852
 106465844.302 8  82960493.092 8  20259735.313                    20259742.793
 111889456.076 7  87186766.87046  21291819.727                    21291825.109
 114353262.566 8  89106499.099 7  21760702.977                    21760713.102
 114837167.241 7  89483572.32045  21852784.289                    21852792.949
 11  8 25  1 30  0.0000000  0  9G04G10G26G12G29G05G02G25G30
 128542655.658 7 100163239.33543  24460826.563                    24460835.895
 119177652.933 7  92865870.82844  22678725.016                    22678732.840
 128994851.759 6 100515550.49344  24546906.258                    24546918.422
 110267903.087 7  85923100.836 7  20983278.516                    20983285.578
 123239584.983 7  96030907.467 6  23451718.078                    23451726.898
 106464517.426 8  82959459.185 8  20259483.195                    20259490.340
 111922193.931 7  87212276.87046  21298049.359                    21298055.156
 114323366.359 8  89083203.347 7  21755013.820                    21755023.949
 114814508.791 7  89465916.37345  21848472.789                    21848480.949
 11  8 25  1 30 30.0000000  0  9G04G10G26G12G29G05G02G25G30
 128620615.612 6 100223987.34843  24475661.250                    24475671.051
 119271103.928 6  92938689.76744  22696508.289                    22696516.613
 128901487.331 6 100442799.26043  24529139.297                    24529151.793
 110304145.160 8  85951341.395 7  20990174.969                    20990181.984
 123156028.260 6  95965798.408 6  23435817.180                    23435826.328
 106463761.149 8  82958869.894 8  20259338.898                    20259345.992
 111955032.465 7  87237865.32346  21304298.453                    21304303.711
 114294032.772 8  89060346.000 7  21749431.656                    21749441.504
 114792448.322 7  89448726.38845  21844274.938                    21844283.020
 11  8 25  1 31  0.0000000  0  9G04G10G26G12G29G05G02G25G30
 128698512.635 6 100284686.32743  24490484.469                    24490494.492
 119364849.069 6  93011737.93344  22714347.219                    22714355.383
 128808030.396 6 100369975.90243  24511355.211                    24511367.359
 110340923.258 8  85979999.643 7  20997173.641                    20997180.953
 123072462.638 7  95900682.434 6  23419915.688                    23419924.195
 106463575.336 8  82958725.125 8  20259303.648                    20259310.828
 111987971.409 7  87263532.03146  21310566.398                    21310572.039
 114265262.844 7  89037927.859 7  21743957.328                    21743966.879
 114770986.538 7  89432002.89845  21840190.711                    21840198.684
 11  8 25  1 31 30.0000000  0  9G04G10G26G12G29G05G02G25G30
 128776346.527 6 100345336.11343  24505296.500                    24505305.551
 119458885.476 6  93085013.02344  22732241.859                    22732250.199
 128714484.044 6 100297082.87443  24493552.813                    24493565.492
 110378235.476 8  86009074.077 7  21004273.953                    21004281.676
 122988889.688 7  95835560.707 6  23404012.133                    23404020.891
 106463959.697 8  82959024.643 8  20259377.031                    20259384.453
 112021010.458 7  87289276.73746  21316853.656                    21316858.555
 114237057.654 7  89015949.784 7  21738590.086                    21738599.832
 114750124.012 7  89415746.36945  21836221.078                    21836229.180
 11  8 25  1 32  0.0000000  0  9G04G10G26G12G29G05G02G25G30
 128854116.963 6 100405936.44443  24520094.914                    24520104.938
 119553210.284 6  93158512.85244  22750191.359                    22750199.520
 128620851.239 6 100224122.49943  24475735.219                    24475747.824
 110416080.437 8  86038563.638 7  21011475.227                    21011482.945
 122905310.630 7  95770434.224 6  23388107.102                    23388116.574
 106464913.463 8  82959767.856 8  20259558.430                    20259565.633
 112054148.452 7  87315098.52946  21323159.477                    21323164.926
 114209417.831 8  88994412.251 7  21733330.055                    21733340.238
 114729860.974 7  89399956.97145  21832364.820                    21832372.777
 11  8 25  1 32 30.0000000  0  9G04G10G26G12G29G05G02G25G30
 128931824.068 6 100466487.45643  24534882.039                    24534892.512
 119647820.680 6  93232235.21644  22768195.148                    22768203.168
 128527134.647 6 100151096.78543  24457901.672                    24457913.758
 110454456.636 8  86068467.150 7  21018778.125                    21018785.605
 122821726.626 6  95705303.876 6  23372202.063                    23372210.617
 106466435.663 8  82960954.000 8  20259847.617                    20259854.777
 112087385.693 7  87340997.66846  21329483.805                    21329489.793
 114182344.155 8  88973315.878 7  21728178.531                    21728188.172
 114710197.797 7  89384634.98945  21828623.250                    21828631.184
 11  8 25  1 33  0.0000000  0  9G04G10G26G12G29G05G02G25G30
 129009467.581 6 100526988.91343  24549656.602                    24549667.676
 119742713.519 6  93306177.68044  22786253.039                    22786261.148
 128433337.747 6 100078008.53843  24440051.930                    24440064.781
 110493362.336 8  86098783.268 7  21026181.820                    21026189.371
 122738139.037 7  95640170.718 6  23356295.516                    23356304.352
 106468525.889 8  82962582.756 8  20260246.125                    20260253.148
 112120721.280 7  87366973.43346  21335827.914                    21335833.273
 114155837.372 8  88952661.234 7  21723134.297                    21723144.273
 114691134.639 7  89369780.55645  21824995.938                    21825003.496
 11  8 25  1 33 30.0000000  0  9G04G10G26G12G29G05G02G25G30
 129087047.275 6 100587440.62743  24564420.688                    24564429.984
 119837886.006 6  93380338.01744  22804363.484                    22804372.184
 128339463.430 6 100004859.90242  24422188.711                    24422200.496
 110532795.864 8  86129510.670 7  21033685.898                    21033693.512
 122654549.657 6  95575036.175 6  23340388.953                    23340398.016
 106471183.785 8  82964653.858 8  20260751.547                    20260758.750
 112154154.891 7  87393025.58446  21342190.063                    21342195.684
 114129898.468 8  88932449.089 7  21718198.180                    21718208.113
 114672672.149 7  89355394.17945  21821482.188                    21821490.730
 11  8 25  1 34  0.0000000  0  9G04G10G26G12G29G05G02G25G30
 129164562.768 6 100647842.30443  24579171.484                    24579180.965
 119933334.961 6  93454713.80244  22822526.984                    22822535.344
 128245514.447 6  99931653.07442  24404311.211                    24404322.941
 110572755.279 8  86160647.854 7  21041289.695                    21041297.285
 122570959.738 6  95509901.222 6  23324482.469                    23324491.164
 106474408.008 8  82967166.249 8  20261364.906                    20261371.996
 112187685.721 7  87419153.49246  21348570.648                    21348576.305
 114104527.893 7  88912679.811 7  21713370.430                    21713380.535
 114654810.245 7  89341475.78245  21818083.641                    21818091.320
 11  8 25  1 34 30.0000000  0  9G04G10G26G12G29G05G02G25G30
 129242013.811 6 100708193.81543  24593910.180                    24593919.934
 120029057.389 6  93529302.66544  22840741.906                    22840750.598
 128151494.011 6  99858390.58142  24386418.711                    24386431.148
 110613239.353 8  86192193.868 7  21048993.813                    21049001.078
 122487370.519 7  95444766.771 6  23308575.953                    23308584.422
 106478197.809 8  82970119.360 8  20262086.195                    20262093.426
 112221312.946 7  87445356.51446  21354969.969                    21354975.406
 114079726.223 8  88893353.838 7  21708650.891                    21708661.000
 114637549.109 8  89328025.52145  21814798.719                    21814806.965
 11  8 25  1 35  0.0000000  0  9G04G10G26G12G29G05G02G25G30
 129319400.448 6 100768495.12443  24608635.484                    24608645.242
 120125050.935 7  93604102.80944  22859008.602                    22859017.113
 128057405.258 6  99785074.88542  24368513.961                    24368526.789
 110654246.234 8  86224147.257 7  21056797.570                    21056804.762
 122403783.440 7  95379634.016 6  23292669.531                    23292678.742
 106482552.899 8  82973512.948 8  20262914.750                    20262922.066
 112255036.446 7  87471634.56946  21361387.242                    21361392.695
 114055494.379 8  88874471.876 7  21704039.305                    21704049.555
 114620889.152 7  89315043.71145  21811628.695                    21811636.516
 11  8 25  1 35 30.0000000  0  9G04G10G26G12G29G05G02G25G30
 129396722.631 6 100828746.18143  24623349.453                    24623359.559
 120221312.274 6  93679111.61344  22877326.828                    22877335.602
 127963251.339 6  99711708.38842  24350597.766                    24350609.359
 110695774.083 8  86256506.601 7  21064699.539                    21064707.465
 122320199.709 7  95314503.830 6  23276764.250                    23276772.082
 106487472.365 8  82977346.319 8  20263851.133                    20263858.098
 112288855.977 7  87497987.44746  21367822.805                    21367828.738
 114031833.029 8  88856034.471 7  21699536.930                    21699546.973
 114604830.704 7  89302530.61745  21808572.492                    21808580.863
 11  8 25  1 36  0.0000000  0  9G04G10G26G12G29G05G02G25G30
 129473979.822 6 100888946.62043  24638050.906                    24638060.816
 120317838.628 7  93754326.91144  22895695.047                    22895703.742
 127869035.068 6  99638293.28343  24332667.961                    24332679.828
 110737821.273 8  86289270.617 7  21072700.867                    21072708.637
 122236621.015 7  95249377.580 6  23260859.836                    23260867.996
 106492955.103 8  82981618.588 8  20264894.508                    20264902.125
 112322770.495 7  87524414.34046  21374276.898                    21374282.191
 114008742.600 8  88838041.934 7  21695142.852                    21695153.035
 114589373.525 7  89290486.03445  21805631.508                    21805639.313
 11  8 25  1 36 30.0000000  0  9G04G10G26G12G29G05G02G25G30
 129551172.205 6 100949096.56743  24652739.891                    24652749.844
 120414627.600 7  93829746.83944  22914113.266                    22914122.523
 127774759.725 6  99564832.14743  24314728.156                    24314740.402
 110780386.131 8  86322438.013 7  21080800.813                    21080808.336
 122153048.646 7  95184256.267 6  23244956.734                    23244964.328
 106499000.792 7  82986329.540 8  20266044.922                    20266052.023
 112356780.016 7  87550915.26846  21380748.602                    21380754.059
 113986223.908 8  88820494.909 7  21690857.984                    21690867.984
 114574518.027 7  89278910.32145  21802804.352                    21802812.277
 11  8 25  1 37  0.0000000  0  9G04G10G26G12G29G05G02G25G30
 129628299.588 6 101009195.82343  24667416.977                    24667427.387
 120511675.956 7  93905368.91044  22932581.688                    22932589.863
 127680428.446 6  99491327.44943  24296777.227                    24296788.914
 110823466.625 8  86356007.204 7  21088999.219                    21089006.500
 122069484.065 6  95119141.009 6  23229054.563                    23229063.094
 106505608.260 8  82991478.235 8  20267302.227                    20267309.398
 112390883.934 7  87577489.76346  21387238.273                    21387243.836
 113964277.397 8  88803393.744 7  21686681.375                    21686691.789
 114560264.263 8  89267803.48045  21800091.617                    21800099.770
 11  8 25  1 37 30.0000000  0  8G10G26G12G29G05G02G25G30
 120608981.177 7  93981191.15244  22951098.070                    22951106.352
 127586044.707 6  99417781.91043  24278816.492                    24278828.301
 110867061.281 8  86389977.048 7  21097294.656                    21097301.934
 121985929.245 6  95054033.376 6  23213154.469                    23213163.223
 106512777.186 8  82997064.427 8  20268666.500                    20268673.930
 112425082.337 7  87604137.87546  21393746.031                    21393751.520
 113942904.212 8  88786739.329 7  21682614.484                    21682624.551
 114546612.827 7  89257166.00345  21797494.039                    21797502.215
 11  8 25  1 38  0.0000000  0  8G10G26G12G29G05G02G25G30
 120706539.787 7  94057210.83744  22969662.781                    22969671.570
 127491611.417 6  99344197.73643  24260847.125                    24260858.129
 110911168.014 8  86424345.902 7  21105687.891                    21105695.660
 121902385.102 7  94988934.052 6  23197257.023                    23197264.813
 106520506.373 8  83003087.189 8  20270137.273                    20270144.430
 112459374.111 8  87630858.74646  21400271.414                    21400277.250
 113922104.260 8  88770531.585 7  21678656.242                    21678666.297
 114533563.211 7  89246997.48345  21795011.063                    21795019.113
 11  8 25  1 38 30.0000000  0  8G10G26G12G29G05G02G25G30
 120804349.091 6  94133425.85244  22988275.375                    22988284.039
 127397131.484 7  99270577.19443  24242867.766                    24242878.836
 110955785.394 8  86459112.672 7  21114178.375                    21114185.777
 121818853.562 6  94923844.547 6  23181361.063                    23181369.305
 106528795.142 8  83009545.990 8  20271714.430                    20271722.125
 112493759.008 8  87657652.17946  21406814.414                    21406820.211
 113901878.314 8  88754771.134 7  21674807.359                    21674817.102
 114521115.622 8  89237298.06745  21792642.313                    21792650.520
 11  8 25  1 39  0.0000000  0  8G10G26G12G29G05G02G25G30
 120902405.918 7  94209833.74344  23006934.898                    23006943.504
 127302607.756 7  99196922.53643  24224879.781                    24224891.629
 111000910.707 8  86494275.229 7  21122765.633                    21122772.906
 121735335.482 6  94858765.533 6  23165468.313                    23165476.176
 106537641.429 8  83016439.224 8  20273398.086                    20273405.066
 112528236.285 8  87684517.60546  21413375.359                    21413381.352
 113882226.336 8  88739457.915 7  21671067.734                    21671077.578
 114509269.621 7  89228067.42645  21790388.289                    21790396.133
 11  8 25  1 39 30.0000000  0  8G10G26G12G29G05G02G25G30
 121000707.731 7  94286432.56144  23025642.125                    23025649.656
 127208043.838 7  99123236.52843  24206884.914                    24206896.465
 111046542.583 8  86529832.518 7  21131448.828                    21131456.320
 121651832.531 7  94793698.315 6  23149578.148                    23149586.879
 106547045.209 8  83023766.864 8  20275187.133                    20275194.938
 112562805.394 8  87711454.58846  21419953.953                    21419959.500
 113863149.104 8  88724592.551 7  21667437.445                    21667447.207
 114498025.431 8  89219305.73245  21788248.109                    21788256.586
 11  8 25  1 40  0.0000000  0  8G10G26G12G29G05G02G25G30
 121099251.524 6  94363219.91644  23044393.344                    23044401.652
 127113442.597 6  99049521.45743  24188883.031                    24188894.164
 111092679.202 8  86565783.105 7  21140228.453                    21140235.930
 121568346.654 7  94728644.415 6  23133691.000                    23133699.684
 106557005.209 8  83031527.926 8  20277082.844                    20277090.055
 112597466.370 8  87738463.15946  21426549.258                    21426554.875
 113844646.961 8  88710175.308 7  21663916.555                    21663926.777
 114487382.894 8  89211012.85945  21786223.227                    21786231.246
 11  8 25  1 40 30.0000000  0  8G10G26G12G29G05G02G25G30
 121198034.302 6  94440193.49144  23063191.094                    23063199.270
 127018807.335 6  98975779.87243  24170873.781                    24170885.398
 111139317.742 8  86602124.802 7  21149103.328                    21149111.109
 121484878.827 7  94663604.571 6  23117807.336                    23117816.105
 106567520.239 8  83039721.477 8  20279083.359                    20279091.129
 112632218.663 8  87765542.87646  21433162.352                    21433168.020
 113826720.271 8  88696206.476 7  21660505.211                    21660515.324
 114477341.939 8  89203188.76445  21784312.609                    21784320.414
 11  8 25  1 41  0.0000000  0  8G10G26G12G29G05G02G25G30
 121297053.303 6  94517351.12844  23082034.477                    23082042.801
 126924141.295 6  98902014.30043  24152859.492                    24152870.848
 111186457.038 8  86638856.705 7  21158073.781                    21158081.008
 121401430.872 7  94598580.236 6  23101928.172                    23101937.195
 106578589.632 8  83048346.994 8  20281189.734                    20281197.242
 112667062.095 8  87792693.60346  21439792.961                    21439798.379
 113809369.596 8  88682686.473 7  21657203.414                    21657213.473
 114467902.660 7  89195833.51345  21782516.445                    21782524.098
 11  8 25  1 41 30.0000000  0  8G10G26G12G29G05G02G25G30
 121396305.951 6  94594690.84944  23100921.242                    23100929.332
 126829447.967 6  98828227.50043  24134840.281                    24134851.871
 111234095.279 8  86675977.384 7  21167139.039                    21167146.699
 121318004.585 7  94533572.797 6  23086052.945                    23086061.313
 106590212.783 8  83057404.018 8  20283401.750                    20283408.965
 112701996.639 8  87819915.33946  21446440.609                    21446446.121
 113792595.502 8  88669615.761 7  21654011.273                    21654021.617
 114459065.112 8  89188947.12945  21780834.648                    21780842.824
 11  8 25  1 42  0.0000000  0  8G10G26G12G29G05G02G25G30
 121495789.209 6  94672210.24943  23119852.398                    23119860.605
 126734730.229 6  98754421.64143  24116815.484                    24116826.707
 111282230.530 8  86713485.359 7  21176298.688                    21176306.320
 121234601.367 7  94468583.329 6  23070181.563                    23070190.102
 106602388.183 8  83066891.365 8  20285718.648                    20285725.758
 112737021.668 8  87847207.57746  21453105.867                    21453111.336
 113776398.109 8  88656994.423 7  21650929.211                    21650939.211
 114450828.837 7  89182529.27545  21779267.391                    21779275.234
 11  8 25  1 42 30.0000000  0  8G10G26G12G29G05G02G25G30
 121595500.025 6  94749906.97144  23138826.383                    23138835.047
 126639991.374 6  98680599.32843  24098787.031                    24098798.160
 111330860.265 8  86751378.635 7  21185552.922                    21185560.691
 121151222.605 7  94403612.921 7  23054314.695                    23054323.895
 106615114.587 8  83076808.066 8  20288140.570                    20288147.949
 112772135.975 8  87874569.37845  21459787.938                    21459793.449
 113760777.454 8  88644822.489 7  21647956.695                    21647966.820
 114443193.406 8  89176579.61145  21777814.141                    21777822.063
 11  8 25  1 43  0.0000000  0  8G10G26G12G29G05G02G25G30
 121695435.739 6  94827778.93044  23157843.188                    23157852.559
 126545234.586 6  98606763.02843  24080755.344                    24080766.883
 111379982.597 8  86789655.759 7  21194900.281                    21194907.730
 121067869.879 7  94338662.807 6  23038453.750                    23038462.480
 106628390.899 8  83087153.261 8  20290666.969                    20290674.402
 112807339.742 8  87902000.89545  21466486.609                    21466492.605
 113745733.924 8  88633100.254 7  21645094.070                    21645103.871
 114436158.723 8  89171098.05445  21776475.383                    21776483.492
 11  8 25  1 43 30.0000000  0  8G10G26G12G29G05G02G25G30
 121795593.424 7  94905823.85544  23176902.508                    23176911.633
 126450462.859 6  98532915.09843  24062720.828                    24062732.184
 111429595.172 8  86828314.890 7  21204341.500                    21204349.254
 120984544.556 7  94273734.056 6  23022596.922                    23022606.055
 106642215.606 8  83097925.784 8  20293297.516                    20293304.680
 112842632.682 8  87929501.88246  21473202.836                    21473208.551
 113731267.595 8  88621827.789 7  21642341.031                    21642351.063
 114429724.344 7  89166084.26845  21775251.008                    21775259.301
 11  8 25  1 44  0.0000000  0  8G10G26G12G29G05G02G25G30
 121895970.756 7  94984039.92844  23196004.523                    23196012.816
 126355680.032 6  98459058.50543  24044683.367                    24044695.270
 111479696.604 8  86867354.951 7  21213875.352                    21213883.133
 120901248.761 7  94208828.303 6  23006746.086                    23006754.543
 106656588.625 8  83109125.552 8  20296032.523                    20296039.590
 112878014.674 8  87957072.27045  21479935.813                    21479941.238
 113717379.239 8  88611005.693 7  21639698.180                    21639708.391
 114423890.619 7  89161538.53845  21774140.828                    21774148.879
 11  8 25  1 44 30.0000000  0  8G10G26G12G29G05G02G25G30
 121996564.679 7  95062424.78544  23215146.211                    23215155.344
 126260889.280 6  98385195.72543  24026645.680                    24026657.121
 111530284.917 8  86906774.408 7  21223502.219                    21223509.836
 120817984.131 7  94143946.851 6  22990901.852                    22990910.449
 106671508.333 8  83120751.319 8  20298871.641                    20298879.063
 112913485.194 8  87984711.63345  21486685.875                    21486691.355
 113704069.035 7  88600634.090 7  21637165.063                    21637175.316
 114418657.079 8  89157460.46845  21773144.727                    21773152.957
 11  8 25  1 45  0.0000000  0  8G10G26G12G29G05G02G25G30
 122097372.286 7  95140976.15444  23234330.141                    23234338.176
 126166093.572 6  98311329.10743  24008606.953                    24008617.895
 111581357.421 8  86946571.146 7  21233220.805                    21233228.578
 120734751.940 7  94079090.674 6  22975063.242                    22975071.066
 106686973.481 8  83132802.102 8  20301814.766                    20301821.832
 112949043.742 7  88012419.59946  21493452.039                    21493457.672
 113691336.816 8  88590712.869 7  21634742.547                    21634752.734
 114414023.158 8  89153849.62845  21772263.242                    21772271.277
 11  8 25  1 45 30.0000000  0  8G10G26G12G29G05G02G25G30
 122198390.465 7  95219691.60444  23253552.547                    23253561.676
 126071296.260 6  98237461.22043  23990567.438                    23990578.133
 111632912.141 8  86986743.642 7  21243031.484                    21243038.957
 120651553.686 7  94014260.930 6  22959230.656                    22959239.078
 106702982.723 8  83145276.847 8  20304861.172                    20304868.238
 112984689.941 8  88040195.86046  21500235.227                    21500241.020
 113679182.696 8  88581242.109 7  21632429.688                    21632439.859
 114409988.387 8  89150705.66645  21771495.172                    21771503.688
 11  8 25  1 46  0.0000000  0  8G10G26G12G29G05G02G25G30
 122299616.108 7  95298568.71244  23272815.742                    23272824.012
 125976500.413 6  98163594.45443  23972528.344                    23972539.191
 111684946.156 8  87027289.606 7  21252933.023                    21252940.555
 120568390.901 7  93949458.820 6  22943405.609                    22943413.707
 106719534.321 8  83158174.213 8  20308010.703                    20308018.020
 113020423.228 8  88068039.97446  21507035.656                    21507041.117
 113667606.383 8  88572221.592 7  21630226.773                    21630236.945
 114406552.064 8  89148028.01245  21770841.406                    21770849.477
 11  8 25  1 46 30.0000000  0  8G10G26G12G29G05G02G25G30
 122401046.853 7  95377605.63044  23292117.023                    23292125.602
 125881709.554 6  98089731.60743  23954490.008                    23954500.648
 111737458.057 8  87068207.954 7  21262925.930                    21262933.695
 120485265.503 7  93884685.839 6  22927587.211                    22927595.371
 106736627.584 8  83171493.652 8  20311263.719                    20311270.484
 113056243.693 8  88095952.01945  21513851.836                    21513857.395
 113656608.541 8  88563651.816 7  21628134.063                    21628144.434
 114403714.182 7  89145816.67745  21770301.070                    21770309.453
 11  8 25  1 47  0.0000000  0  8G10G26G12G29G05G02G25G30
 122502679.559 7  95456799.92844  23311457.055                    23311465.434
 125786926.760 6  98015875.03643  23936453.078                    23936464.223
 111790445.665 8  87109496.987 7  21273009.016                    21273016.840
 120402179.129 7  93819943.250 6  22911776.734                    22911784.801
 106754260.964 8  83185233.956 8  20314619.023                    20314625.941
 113092151.108 8  88123931.81846  21520684.945                    21520690.742
 113646188.982 8  88555532.659 7  21626151.383                    21626161.570
 114401474.165 8  89144071.19845  21769875.117                    21769883.297
 11  8 25  1 47 30.0000000  0  8G10G26G12G29G05G02G25G30
 122604511.761 7  95536149.67843  23330835.344                    23330843.477
 125692155.698 6  97942027.57943  23918419.844                    23918429.762
 111843906.892 8  87151155.067 7  21283182.227                    21283190.031
 120319133.352 7  93755232.289 6  22895973.164                    22895981.191
 106772433.641 8  83199394.499 8  20318077.227                    20318084.457
 113128145.171 8  88151979.13246  21527534.242                    21527539.531
 113636348.025 8  88547864.355 7  21624278.305                    21624288.922
 114399831.732 8  89142791.37145  21769562.430                    21769570.961
 11  8 25  1 48  0.0000000  0  8G10G26G12G29G05G02G25G30
 122706540.546 7  95615652.62943  23350250.359                    23350259.180
 125597399.453 6  97868191.72343  23900387.125                    23900397.965
 111897839.333 8  87193180.340 7  21293445.516                    21293452.797
 120236130.088 7  93690554.471 6  22880178.359                    22880186.691
 106791143.967 8  83213973.995 8  20321637.727                    20321644.719
 113164225.548 8  88180093.70046  21534399.883                    21534405.648
 113627085.512 8  88540646.783 7  21622516.016                    21622526.039
 114398786.174 8  89141976.63245  21769363.844                    21769371.719
 11  8 25  1 48 30.0000000  0  8G10G26G12G29G05G02G25G30
 122808763.196 7  95695306.60543  23369702.938                    23369711.430
 125502661.521 6  97794370.08143  23882359.367                    23882370.367
 111952240.870 8  87235571.127 7  21303797.625                    21303805.211
 120153171.021 7  93625911.083 6  22864391.289                    22864399.648
 106810390.936 8  83228971.636 8  20325300.039                    20325307.191
 113200391.739 8  88208275.14846  21541282.375                    21541288.047
 113618401.495 8  88533879.991 7  21620863.688                    21620873.703
 114398337.131 8  89141626.70845  21769278.164                    21769286.418
 11  8 25  1 49  0.0000000  0  8G10G26G12G29G05G02G25G30
 122911176.862 7  95775109.46544  23389191.445                    23389200.117
 125407945.052 6  97720565.18943  23864334.383                    23864345.500
 112007109.283 8  87278325.717 7  21314239.133                    21314246.359
 120070257.410 7  93561303.089 6  22848613.414                    22848622.090
 106830172.530 8  83244385.880 8  20329064.461                    20329071.805
 113236643.438 8  88236523.21846  21548180.852                    21548186.410
 113610295.692 8  88527563.760 7  21619320.859                    21619331.227
 114398483.772 8  89141740.93945  21769305.914                    21769314.469
 11  8 25  1 49 30.0000000  0  8G10G26G12G29G05G02G25G30
 123013778.842 7  95855059.03043  23408715.969                    23408724.391
 125313253.595 6  97646779.79343  23846315.250                    23846326.547
 112062442.447 8  87321442.446 7  21324768.781                    21324775.859
 119987391.244 7  93496732.078 6  22832844.688                    22832853.242
 106850487.860 8  83260216.028 8  20332930.422                    20332937.375
 113272980.614 8  88264837.89946  21555095.602                    21555101.180
 113602768.336 8  88521698.259 7  21617888.727                    21617899.270
 114399225.714 8  89142319.05445  21769447.172                    21769455.516
 11  8 25  1 50  0.0000000  0  8G10G26G12G29G05G02G25G30
 123116566.228 6  95935153.09143  23428275.367                    23428284.180
 125218590.425 6  97573016.42943  23828301.750                    23828312.402
 112118237.556 8  87364919.135 7  21335385.906                    21335393.609
 119904574.277 7  93432199.412 6  22817084.953                    22817093.340
 106871335.365 8  83276460.846 8  20336897.578                    20336904.656
 113309402.767 8  88293218.78746  21562026.320                    21562031.887
 113595819.110 8  88516283.256 7  21616566.195                    21616576.852
 114400562.249 8  89143360.47445  21769701.711                    21769710.063
 11  8 25  1 50 30.0000000  0  8G10G26G12G29G05G02G25G30
 123219536.165 6  96015389.40443  23447869.680                    23447878.957
 125123958.776 6  97499277.67544  23810293.469                    23810304.980
 112174492.294 8  87408753.977 7  21346091.258                    21346098.496
 119821808.050 7  93367706.267 7  22801335.430                    22801343.680
 106892713.456 8  83293119.108 8  20340965.438                    20340972.848
 113345909.730 8  88321665.77346  21568973.430                    21568978.926
 113589447.847 8  88511318.615 7  21615354.094                    21615364.207
 114402492.619 8  89144864.62545  21770069.148                    21770076.633
 11  8 25  1 51  0.0000000  0  8G10G26G12G29G05G02G25G30
 123322685.960 7  96095765.83344  23467498.516                    23467507.742
 125029362.070 6  97425566.09343  23792292.500                    23792303.465
 112231204.627 8  87452945.392 7  21356882.906                    21356890.500
 119739094.303 7  93303254.024 7  22785595.609                    22785603.895
 106914620.566 8  83310189.592 8  20345134.164                    20345141.496
 113382501.488 8  88350178.82946  21575936.609                    21575942.418
 113583654.408 8  88506804.240 7  21614251.602                    21614261.633
 114405016.107 7  89146830.93545  21770549.539                    21770557.258
 11  8 25  1 51 30.0000000  0  8G10G26G12G29G05G02G25G30
 123426013.420 7  96176280.71043  23487161.984                    23487170.086
 124934804.045 6  97351884.67843  23774298.328                    23774308.898
 112288372.816 7  87497492.006 7  21367761.258                    21367769.141
 119656435.286 7  93238844.430 7  22769866.227                    22769874.285
 106937056.516 8  83327672.166 8  20349403.664                    20349410.914
 113419178.039 8  88378757.96146  21582915.773                    21582921.598
 113578439.137 8  88502740.377 7  21613259.102                    21613269.605
 114408132.608 8  89149259.34345  21771142.039                    21771150.340
 11  8 25  1 52  0.0000000  0  8G10G26G12G29G05G02G25G30
 123529514.811 6  96256931.12943  23506856.953                    23506866.133
 124840287.691 6  97278235.74143  23756312.484                    23756323.152
 112345993.434 8  87542391.164 7  21378726.359                    21378734.129
 119573832.122 7  93174478.348 7  22754147.234                    22754155.750
 106960018.254 8  83345564.432 8  20353773.180                    20353780.559
 113455938.611 7  88407402.56345  21589911.133                    21589916.898
 113573801.201 8  88499126.396 7  21612376.734                    21612386.977
 114411840.724 7  89152148.74645  21771847.414                    21771856.172
 11  8 25  1 52 30.0000000  0  8G10G26G12G29G05G02G25G30
 123633187.542 7  96337715.05743  23526585.258                    23526594.066
 124745816.277 6  97204621.81044  23738335.844                    23738345.727
 112404064.315 7  87587641.176 7  21389777.438                    21389784.781
 119491286.587 7  93110157.192 7  22738438.930                    22738447.840
 106983504.492 8  83363865.403 8  20358242.109                    20358249.480
 113492782.713 8  88436112.25746  21596922.227                    21596927.996
 113569740.356 8  88495962.105 7  21611603.773                    21611614.008
 114416139.722 8  89155498.57845  21772666.250                    21772674.336
 11  8 25  1 53  0.0000000  0  9G15G10G26G12G29G05G02G25G30
 129402054.24916 100832819.26416  24624399.266                    24624412.008
 123737029.113 7  96418630.53843  23546345.906                    23546354.691
 124651393.488 6  97131045.75143  23720366.633                    23720377.648
 112462583.448 7  87633240.474 7  21400912.859                    21400920.254
 119408800.683 7  93045882.486 7  22722742.453                    22722750.602
 107007514.093 8  83382574.203 8  20362811.352                    20362818.871
 113529710.549 8  88464887.19945  21603949.664                    21603955.141
 113566256.616 8  88493247.502 7  21610940.758                    21610951.113
 114421029.008 7  89159308.37845  21773596.141                    21773604.996
 11  8 25  1 53 30.0000000  0  9G15G10G26G12G29G05G02G25G30
 129309304.668 6 100760547.309 6  24606749.164                    24606763.133
 123841036.174 7  96499674.99943  23566137.531                    23566146.484
 124557022.169 6  97057509.80643  23702408.727                    23702419.121
 112521547.665 7  87679186.592 7  21412133.367                    21412141.211
 119326375.698 7  92981655.245 7  22707057.672                    22707065.449
 107032044.891 8  83401689.116 8  20367479.195                    20367486.582
 113566721.661 8  88493727.03146  21610992.719                    21610998.301
 113563349.149 7  88490981.944 7  21610387.445                    21610398.023
 114426507.355 7  89163577.18445  21774638.508                    21774646.973
 11  8 25  1 54  0.0000000  0  9G15G10G26G12G29G05G02G25G30
 129216421.353 6 100688171.143 6  24589073.070                    24589087.191
 123945206.312 7  96580846.49944  23585960.688                    23585969.734
 124462705.820 7  96984016.66943  23684460.398                    23684471.563
 112580954.698 8  87725477.749 7  21423438.125                    21423445.676
 119244013.367 7  92917476.836 7  22691384.133                    22691392.668
 107057095.703 8  83421209.238 8  20372246.336                    20372253.598
 113603815.690 8  88522631.47145  21618051.555                    21618057.199
 113561017.702 8  88489165.245 7  21609943.875                    21609953.730
 114432573.862 7  89168304.32045  21775793.406                    21775801.582
 11  8 25  1 54 30.0000000  0  9G15G10G26G12G29G05G02G25G30
 129123407.439 6 100615693.204 6  24571373.375                    24571387.660
 124049537.435 7  96662143.44043  23605814.578                    23605822.938
 124368448.593 7  96910569.60243  23666523.781                    23666534.848
 112640802.873 7  87772112.656 7  21434827.055                    21434834.867
 119161715.991 7  92853349.034 7  22675723.836                    22675732.344
 107082665.447 8  83441133.726 8  20377112.008                    20377119.574
 113640992.807 8  88551600.66645  21625125.945                    21625131.750
 113559262.570 8  88487797.615 7  21609609.891                    21609620.043
 114439228.388 8  89173489.63045  21777059.711                    21777068.242
 11  8 25  1 55  0.0000000  0  9G15G10G26G12G29G05G02G25G30
 129030265.451 6 100543115.455 6  24553648.594                    24553662.539
 124154026.500 7  96743563.46843  23625698.273                    23625707.031
 124274253.857 7  96837171.22844  23648599.320                    23648610.223
 112701090.008 7  87819089.607 7  21446299.250                    21446306.918
 119079485.808 7  92789273.584 7  22660075.828                    22660084.277
 107108752.546 8  83461461.350 8  20382076.625                    20382083.762
 113678252.986 8  88580634.57245  21632216.336                    21632221.773
 113558083.438 8  88486878.818 7  21609385.633                    21609395.211
 114446469.943 8  89179132.39345  21778437.383                    21778446.031
 11  8 25  1 55 30.0000000  0  9G15G10G26G12G29G05G02G25G30
 128936997.320 6 100470439.378 6  24535900.102                    24535913.496
 124258670.577 7  96825104.28343  23645611.070                    23645620.285
 124180124.822 7  96763824.05144  23630687.313                    23630697.207
 112761812.938 7  87866406.142 7  21457854.469                    21457861.672
 118997324.327 7  92725251.683 7  22644441.469                    22644449.629
 107135354.938 8  83482190.498 8  20387138.727                    20387145.871
 113715596.168 8  88609733.16445  21639322.570                    21639328.164
 113557479.727 8  88486408.408 7  21609270.758                    21609281.152
 114454297.540 8  89185231.79945  21779927.070                    21779935.648
 11  8 25  1 56  0.0000000  0  9G15G10G26G12G29G05G02G25G30
 128843605.694 6 100397667.075 5  24518127.664                    24518141.500
 124363467.237 7  96906763.99943  23665553.164                    23665562.051
 124086065.130 7  96690530.89243  23612788.008                    23612798.160
 112822969.342 7  87914060.458 7  21469492.508                    21469500.035
 118915233.524 7  92661284.837 7  22628818.875                    22628827.453
 107162471.263 8  83503320.106 8  20392298.375                    20392305.840
 113753021.984 8  88638896.14945  21646444.484                    21646450.188
 113557450.954 8  88486385.987 7  21609265.078                    21609275.266
 114462710.172 7  89191787.08845  21781528.016                    21781536.164
 11  8 25  1 56 30.0000000  0  9G15G10G26G12G29G05G02G25G30
 128750093.397 6 100324800.742 5  24500332.750                    24500346.297
 124468413.835 7  96988540.53643  23685524.227                    23685532.832
 123992078.348 7  96617294.54043  23594902.500                    23594913.445
 112884557.074 7  87962050.859 7  21481211.742                    21481219.617
 118833214.867 7  92597374.226 7  22613212.117                    22613220.473
 107190100.024 8  83524849.022 8  20397555.797                    20397563.469
 113790530.441 8  88668123.53445  21653582.086                    21653587.000
 113557996.864 8  88486811.383 7  21609368.914                    21609379.180
 114471706.942 7  89198797.54445  21783240.039                    21783248.621
 11  8 25  1 57  0.0000000  0  9G15G10G26G12G29G05G02G25G30
 128656462.871 6 100251842.251 5  24482515.445                    24482528.039
 124573507.621 6  97070431.76543  23705523.039                    23705531.730
 123898167.826 6  96544117.62543  23577032.258                    23577042.691
 112946573.312 8  88010375.161 7  21493013.648                    21493020.914
 118751270.514 7  92533521.522 7  22597618.648                    22597626.707
 107218239.477 7  83546775.873 8  20402910.906                    20402918.234
 113828121.407 7  88697415.19845  21660735.063                    21660741.031
 113559116.948 8  88487684.181 7  21609582.031                    21609592.254
 114481286.895 7  89206262.44845  21785062.828                    21785071.434
 11  8 25  1 57 30.0000000  0  9G15G10G26G12G29G05G02G25G30
 128562716.301 6 100178793.309 5  24464675.750                    24464689.020
 124678745.626 6  97152435.38643  23725548.867                    23725557.270
 123804336.704 6  96471002.60243  23559176.703                    23559186.969
 113009015.238 7  88059031.172 7  21504895.758                    21504903.172
 118669402.223 7  92469728.083 7  22582039.508                    22582047.629
 107246887.445 7  83569098.969 8  20408362.367                    20408369.684
 113865793.999 8  88726770.46845  21667904.492                    21667909.484
 113560810.420 8  88489003.775 7  21609904.172                    21609914.617
 114491448.682 7  89214180.71245  21786997.086                    21787005.156
 11  8 25  1 58  0.0000000  0  9G15G10G26G12G29G05G02G25G30
 128468856.327 6 100105655.984 5  24446813.711                    24446827.563
 124784125.620 6  97234549.64743  23745602.227                    23745611.098
 123710588.960 6  96397952.54143  23541336.805                    23541346.777
 113071880.848 7  88108017.326 7  21516858.492                    21516866.043
 118587611.758 7  92405995.288 7  22566475.266                    22566483.379
 107276042.777 8  83591817.417 8  20413910.430                    20413917.500
 113903548.945 8  88756189.92745  21675089.039                    21675094.031
 113563077.112 8  88490770.036 7  21610336.188                    21610346.230
 114502191.565 7  89222551.79845  21789041.492                    21789049.598
 11  8 25  1 58 30.0000000  0  9G15G10G26G12G29G05G02G25G30
 128374885.739 6 100032432.463 5  24428932.125                    24428944.715
 124889644.702 6  97316772.30643  23765681.781                    23765690.527
 123616927.877 6  96324970.01544  23523513.695                    23523523.734
 113135167.576 8  88157331.631 7  21528901.539                    21528909.113
 118505901.020 7  92342324.621 7  22550926.078                    22550934.656
 107305703.647 8  83614929.796 8  20419554.563                    20419561.945
 113941385.858 8  88785673.24745  21682288.594                    21682294.328
 113565916.294 8  88492982.395 7  21610876.063                    21610886.000
 114513514.382 7  89231374.77245  21791195.891                    21791204.586
 11  8 25  1 59  0.0000000  0  9G15G10G26G12G29G05G02G25G30
 128280806.927 6  99959124.600 5  24411029.500                    24411042.297
 124995300.265 6  97399101.30443  23785787.000                    23785796.094
 123523356.899 6  96252057.70543  23505707.492                    23505717.953
 113198872.611 7  88206971.898 7  21541024.211                    21541031.859
 118424271.816 7  92278717.497 7  22535392.563                    22535401.195
 107335868.217 8  83638434.658 8  20425294.563                    20425302.129
 113979304.603 8  88815220.32645  21689504.297                    21689509.754
 113569327.459 8  88495640.447 7  21611525.039                    21611535.453
 114525415.990 8  89240648.76445  21793460.664                    21793468.914
 11  8 25  1 59 30.0000000  0  9G15G10G26G12G29G05G02G25G30
 128186622.253 6  99885734.224 6  24393105.195                    24393119.309
 125101089.456 6  97481534.43643  23805918.352                    23805926.855
 123429879.599 6  96179218.37744  23487919.594                    23487929.879
 113262993.552 8  88256936.235 7  21553226.391                    21553233.949
 118342726.132 7  92215175.448 7  22519875.031                    22519882.875
 107366534.695 8  83662330.622 8  20431130.508                    20431137.613
 114017304.978 8  88844831.00945  21696735.898                    21696741.039
 113573309.994 8  88498743.719 7  21612282.750                    21612293.082
 114537895.253 8  89250372.87145  21795835.484                    21795843.813
 11  8 25  2  0  0.0000000  0  9G15G10G26G12G29G05G02G25G30
 128092334.550 6  99812263.613 6  24375163.172                    24375176.637
 125207009.857 6  97564069.78743  23826073.930                    23826083.289
 123336499.556 7  96106454.86444  23470149.336                    23470159.586
 113327527.793 7  88307222.648 7  21565506.523                    21565514.609
 118261265.985 7  92151700.070 7  22504373.477                    22504381.605
 107397701.651 8  83686616.557 8  20437061.023                    20437068.652
 114055387.107 7  88874505.39545  21703982.172                    21703987.957
 113577863.275 8  88502291.731 7  21613149.539                    21613159.547
 114550951.093 8  89260546.25845  21798319.703                    21798328.281
 11  8 25  2  0 30.0000000  0  9G15G10G26G12G29G05G02G25G30
 127997946.259 6  99738714.607 6  24357202.008                    24357215.320
 125313058.696 6  97646705.23043  23846254.375                    23846263.426
 123243220.374 6  96033769.94343  23452398.906                    23452409.566
 113392472.910 7  88357829.205 7  21577865.172                    21577873.188
 118179893.248 7  92088292.806 7  22488888.781                    22488896.668
 107429367.109 7  83711290.939 8  20443086.859                    20443093.957
 114093550.596 7  88904243.18045  21711244.898                    21711250.090
 113582986.763 8  88506284.053 7  21614124.344                    21614134.523
 114564582.243 8  89271167.94045  21800913.867                    21800921.875
 11  8 25  2  1  0.0000000  0  9G15G10G26G12G29G05G02G25G30
 127903459.988 6  99665089.277 6  24339221.383                    24339234.789
 125419233.085 6  97729438.52243  23866458.852                    23866468.113
 123150045.331 6  95961166.14744  23434668.086                    23434678.734
 113457825.913 7  88408753.602 7  21590301.516                    21590309.227
 118098609.775 7  92024955.095 7  22473420.430                    22473428.977
 107461529.011 8  83736352.173 8  20449207.172                    20449214.406
 114131795.516 7  88934044.41045  21718522.391                    21718528.117
 113588679.509 8  88510719.957 7  21615207.625                    21615217.809
 114578787.430 8  89282236.92945  21803617.156                    21803625.238
 11  8 25  2  1 30.0000000  0  9G15G10G26G12G29G05G02G25G30
 127808878.501 6  99591389.755 6  24321223.086                    24321235.664
 125525530.965 6  97812268.04843  23886687.422                    23886695.797
 123056978.053 7  95888646.34244  23416957.914                    23416968.945
 113523584.510 7  88459994.052 7  21602815.227                    21602822.727
 118017417.434 7  91961688.411 7  22457970.516                    22457979.105
 107494185.974 8  83761799.159 8  20455421.664                    20455428.887
 114170121.859 7  88963909.08545  21725815.734                    21725821.371
 113594941.129 8  88515599.125 7  21616399.016                    21616409.801
 114593565.585 8  89293752.37845  21806429.297                    21806437.391
 11  8 25  2  2  0.0000000  0  9G15G10G26G12G29G05G02G25G30
 127714204.110 6  99517617.830 6  24303206.836                    24303219.488
 125631949.300 6  97895191.40443  23906937.977                    23906946.313
 122964022.111 7  95816213.25344  23399269.375                    23399279.137
 113589745.675 7  88511548.194 7  21615405.258                    21615412.621
 117936318.242 7  91898494.309 7  22442537.727                    22442546.238
 107527336.022 7  83787630.376 8  20461729.789                    20461737.172
 114208529.311 7  88993836.96245  21733124.602                    21733130.266
 113601770.721 8  88520920.868 7  21617698.773                    21617709.195
 114608915.378 8  89305713.26345  21809350.422                    21809358.566
 11  8 25  2  2 30.0000000  0  9G15G10G26G12G29G05G02G25G30
 127619439.559 6  99443775.652 6  24285173.594                    24285186.141
 125738485.361 7  97978206.50843  23927211.289                    23927219.484
 122871180.747 7  95743869.47444  23381602.039                    23381611.844
 113656307.031 7  88563414.175 7  21628071.234                    21628079.078
 117855314.120 7  91835374.280 7  22427122.844                    22427131.195
 107560976.994 8  83813844.134 8  20468131.508                    20468138.090
 114247017.796 7  89023827.97845  21740448.695                    21740453.934
 113609167.337 8  88526684.452 7  21619106.398                    21619116.781
 114624835.177 8  89318118.29945  21812379.641                    21812387.738
 11  8 25  2  3  0.0000000  0  9G15G10G26G12G29G05G02G25G30
 127524587.067 6  99369864.938 6  24267123.141                    24267135.629
 125845136.300 7  98061311.11743  23947505.734                    23947514.477
 122778457.812 7  95671617.96644  23363957.250                    23363967.582
 113723265.321 7  88615589.455 7  21640812.977                    21640820.813
 117774406.716 7  91772329.605 7  22411727.219                    22411735.496
 107595106.697 8  83840438.719 8  20474626.195                    20474632.984
 114285586.980 7  89053881.87945  21747788.063                    21747793.824
 113617130.060 8  88532889.153 7  21620621.508                    21620631.906
 114641323.741 8  89330966.53845  21815517.180                    21815525.707
 11  8 25  2  3 30.0000000  0  9G15G10G26G12G29G05G02G25G30
 127429649.823 6  99295888.192 6  24249057.313                    24249069.387
 125951900.223 6  98144503.80143  23967822.141                    23967831.090
 122685856.804 7  95599461.45644  23346335.570                    23346345.445
 113790618.583 7  88668072.511 7  21653630.023                    21653637.617
 117693598.352 7  91709362.118 7  22396349.688                    22396357.723
 107629724.239 8  83867413.431 7  20481214.055                    20481220.641
 114324237.194 8  89083998.91645  21755142.930                    21755148.309
 113625658.628 8  88539534.758 7  21622244.531                    21622255.074
 114658380.118 8  89344257.21345  21818763.320                    21818771.445
 11  8 25  2  4  0.0000000  0  9G15G10G26G12G29G05G02G25G30
 127334630.136 6  99221847.177 5  24230975.781                    24230987.348
 126058774.239 7  98227782.24543  23988160.211                    23988168.730
 122593381.284 7  95527402.73344  23328738.039                    23328748.266
 113858364.015 7  88720861.147 7  21666522.031                    21666529.402
 117612890.838 7  91646473.200 7  22380991.469                    22380999.492
 107664827.199 8  83894766.403 8  20487893.383                    20487900.438
 114362968.419 7  89114179.08545  21762513.406                    21762518.563
 113634751.985 8  88546620.467 7  21623975.031                    21623985.207
 114676002.731 8  89357989.11545  21822116.289                    21822125.059
 11  8 25  2  4 30.0000000  0  9G15G10G26G12G29G05G02G25G30
 127239530.804 6  99147744.098 6  24212877.992                    24212890.348
 126165755.914 6  98311144.55343  24008518.563                    24008526.309
 122501034.779 6  95455444.51844  23311165.211                    23311174.813
 113926498.808 8  88773953.181 7  21679487.141                    21679494.918
 117532286.146 7  91583664.404 7  22365652.688                    22365660.766
 107700413.793 8  83922496.229 8  20494665.430                    20494672.695
 114401780.396 7  89144422.16545  21769898.836                    21769904.484
 113644409.170 8  88554145.513 7  21625813.016                    21625823.215
 114694190.077 8  89372161.05145  21825577.961                    21825585.758
 11  8 25  2  5  0.0000000  0  9G15G10G26G12G29G05G02G25G30
 127144354.442 6  99073581.001 6  24194766.359                    24194778.645
 126272842.527 6  98394588.66443  24028895.891                    24028904.469
 122408820.892 7  95383589.65344  23293617.742                    23293627.559
 113995020.338 8  88827346.567 7  21692526.391                    21692534.117
 117451786.374 7  91520937.361 7  22350334.281                    22350342.535
 107736482.045 8  83950601.376 8  20501529.070                    20501535.793
 114440673.230 7  89174728.25445  21777299.906                    21777305.742
 113654629.296 8  88562109.217 7  21627757.633                    21627767.691
 114712940.831 8  89386772.01245  21829145.523                    21829153.930
 11  8 25  2  5 30.0000000  0  9G15G10G26G12G29G05G02G25G30
 127049103.281 6  98999359.634 6  24176640.414                    24176652.668
 126380031.348 6  98478112.38243  24049293.047                    24049301.293
 122316743.092 7  95311840.81844  23276095.828                    23276105.098
 114063925.498 7  88881038.894 7  21705638.719                    21705646.141
 117371393.574 7  91458293.665 7  22335036.117                    22335043.613
 107773029.802 7  83979080.156 8  20508483.828                    20508490.828
 114479646.759 7  89205097.23245  21784716.445                    21784722.262
 113665411.452 8  88570510.869 7  21629809.430                    21629819.875
 114732253.438 8  89401820.77545  21832821.008                    21832829.113
 11  8 25  2  6  0.0000000  0  9G15G10G26G12G29G05G02G25G30
 126953780.840 6  98925082.705 6  24158501.172                    24158512.996
 126487320.079 6  98561713.99243  24069709.531                    24069718.242
 122224805.272 7  95240201.06844  23258599.977                    23258609.703
 114133212.035 7  88935028.382 7  21718823.320                    21718831.316
 117291109.706 7  91395734.856 7  22319758.422                    22319766.355
 107810055.679 7  84007931.504 8  20515529.844                    20515536.457
 114518701.111 7  89235529.18445  21792148.180                    21792153.703
 113676754.965 8  88579349.937 7  21631967.727                    21631978.902
 114752126.721 8  89417306.42945  21836602.672                    21836610.406
 11  8 25  2  6 30.0000000  0  9G15G10G26G12G29G05G02G25G30
 126858389.381 6  98850752.006 6  24140348.711                    24140360.734
 126594706.098 6  98645391.36743  24090144.523                    24090153.301
 122133010.955 7  95168673.12344  23241132.664                    23241141.695
 114202877.261 7  88989312.958 7  21732080.508                    21732087.887
 117210936.916 7  91333262.589 7  22304501.859                    22304509.727
 107847557.627 8  84037153.818 8  20522666.000                    20522672.902
 114557836.419 7  89266024.23045  21799595.313                    21799601.164
 113688658.890 8  88588625.688 7  21634233.313                    21634243.742
 114772559.172 8  89433227.78945  21840490.258                    21840498.559
 11  8 25  2  7  0.0000000  0  9G15G10G26G12G29G05G02G25G30
 126762931.294 6  98776369.373 6  24122183.383                    24122194.895
 126702186.540 6  98729142.39043  24110597.211                    24110606.578
 122041363.582 7  95097259.69344  23223692.125                    23223701.906
 114272918.085 7  89043890.209 7  21745408.359                    21745416.465
 117130876.740 7  91270878.074 7  22289266.992                    22289274.594
 107885532.900 7  84066744.950 8  20529892.461                    20529899.121
 114597052.442 7  89296582.16645  21807058.211                    21807063.625
 113701121.809 8  88598337.021 7  21636604.922                    21636615.410
 114793548.893 8  89449583.38345  21844484.852                    21844492.883
 11  8 25  2  7 30.0000000  0  9G15G10G26G12G29G05G02G25G30
 126667409.735 6  98701937.277 6  24104006.297                    24104017.582
 126809759.377 6  98812965.35243  24131067.328                    24131076.441
 121949866.729 6  95025963.55244  23206281.125                    23206290.270
 114343332.145 7  89098758.283 7  21758808.078                    21758815.781
 117050931.566 7  91208583.167 7  22274053.758                    22274061.723
 107923980.255 8  84096703.943 8  20537208.703                    20537215.340
 114636349.338 7  89327203.12245  21814535.977                    21814541.918
 113714143.041 8  88608483.404 7  21639082.984                    21639093.316
 114815094.655 8  89466372.24445  21848584.906                    21848593.016
 11  8 25  2  8  0.0000000  0  9G15G10G26G12G29G05G02G25G30
 126571827.230 6  98627457.657 6  24085817.766                    24085828.895
 126917421.948 6  98896858.23843  24151554.250                    24151563.965
 121858524.049 7  94954787.54343  23188898.211                    23188908.273
 114414116.234 7  89153914.693 7  21772277.461                    21772285.504
 116971103.361 7  91146379.412 7  22258863.172                    22258871.051
 107962897.597 8  84127029.148 8  20544614.805                    20544621.406
 114675727.130 7  89357887.11645  21822029.727                    21822034.910
 113727721.531 8  88619064.016 7  21641666.797                    21641676.965
 114837194.851 8  89483593.13045  21852790.391                    21852798.316
 11  8 25  2  8 30.0000000  0  9G15G10G26G12G29G05G02G25G30
 126476186.391 6  98552932.569 5  24067617.102                    24067628.164
 127025171.650 6  98980818.98443  24172059.086                    24172067.625
 121767339.218 7  94883734.51843  23171546.602                    23171556.363
 114485267.539 7  89209357.246 7  21785817.336                    21785825.324
 116891394.209 7  91084268.426 7  22243694.570                    22243702.617
 108002282.796 8  84157718.927 8  20552109.281                    20552115.902
 114715185.398 7  89388633.82245  21829538.094                    21829543.613
 113741856.069 8  88630077.917 7  21644356.445                    21644366.719
 114859847.759 7  89501244.71445  21857100.961                    21857109.469
 11  8 25  2  9  0.0000000  0  9G15G10G26G12G29G05G02G25G30
 126380490.266 7  98478364.388 6  24049406.430                    24049417.781
 127133006.074 6  99064845.79843  24192579.148                    24192588.098
 121676315.880 7  94812807.35643  23154225.148                    23154235.211
 114556783.696 7  89265084.098 7  21799426.648                    21799434.297
 116811806.339 7  91022251.930 7  22228549.867                    22228557.688
 108042134.124 8  84188771.922 8  20559692.867                    20559699.711
 114754724.538 7  89419443.54345  21837062.352                    21837067.230
 113756545.764 8  88641524.409 7  21647151.820                    21647162.313
 114883051.950 8  89519325.84845  21861517.055                    21861524.852
 11  8 25  2  9 30.0000000  0  9G15G10G26G12G29G05G02G25G30
 126284740.965 7  98403754.770 6  24031185.805                    24031197.898
 127240922.606 6  99148936.57243  24213115.281                    24213124.281
 121585457.192 7  94742008.48544  23136935.523                    23136945.168
 114628661.148 7  89321092.473 7  21813104.359                    21813112.277
 116732341.321 7  90960331.173 7  22213428.477                    22213435.969
 108082448.676 8  84220185.867 8  20567364.086                    20567370.832
 114794344.300 7  89450316.09645  21844601.664                    21844606.895
 113771789.054 8  88653402.281 7  21650052.734                    21650062.926
 114906805.312 8  89537834.90445  21866037.023                    21866045.152
 11  8 25  2 10  0.0000000  0  9G15G10G26G12G29G05G02G25G30
 126188941.680 7  98329106.219 6  24012955.344                    24012967.141
 127348918.782 6  99233089.43743  24233665.523                    24233674.906
 121494767.319 7  94671341.17544  23119677.938                    23119686.793
 114700897.435 7  89377380.465 7  21826850.734                    21826857.855
 116653001.340 7  90898507.847 7  22198330.164                    22198337.992
 108123224.981 7  84251959.615 8  20575123.711                    20575130.824
 114834044.829 7  89481251.58645  21852156.422                    21852161.988
 113787585.103 8  88665710.872 7  21653058.703                    21653068.902
 114931106.590 7  89556770.93145  21870661.539                    21870669.363
 11  8 25  2 10 30.0000000  0  9G15G10G26G12G29G05G02G25G30
 126093095.084 7  98254420.811 6  23994716.914                    23994727.980
 127456992.080 6  99317302.38042  24254231.594                    24254240.406
 121404249.658 7  94600808.04744  23102452.680                    23102461.879
 114773490.283 7  89433946.298 7  21840664.492                    21840672.648
 116573788.800 7  90836783.831 7  22183256.539                    22183264.414
 108164461.028 8  84284091.618 8  20582971.047                    20582977.762
 114873826.084 7  89512249.97545  21859726.563                    21859731.703
 113803932.796 8  88678449.325 7  21656169.281                    21656179.734
 114955953.998 8  89576132.50145  21875389.883                    21875397.594
 11  8 25  2 11  0.0000000  0  9G15G10G26G12G29G05G02G25G30
 125997203.767 7  98179700.550 6  23976469.289                    23976480.227
 127565139.792 6  99401573.30943  24274812.000                    24274820.563
 121313907.754 7  94530411.86444  23085261.148                    23085270.586
 114846436.183 7  89490787.222 7  21854545.586                    21854553.457
 116494705.369 7  90775160.415 7  22168207.523                    22168215.871
 108206154.134 8  84316579.758 8  20590905.102                    20590911.734
 114913688.070 7  89543311.27845  21867311.891                    21867317.645
 113820830.723 8  88691616.535 7  21659385.320                    21659395.410
 114981345.770 7  89595918.25145  21880221.414                    21880229.891
 11  8 25  2 11 30.0000000  0  9G15G10G26G12G29G05G02G25G30
 125901270.862 6  98104947.899 6  23958213.180                    23958224.539
 127673359.915 6  99485900.64543  24295405.672                    24295414.191
 121223745.624 7  94460155.78144  23068104.438                    23068113.531
 114919732.557 7  89547901.265 7  21868493.789                    21868501.223
 116415753.374 7  90713639.410 7  22153183.563                    22153191.102
 108248303.092 8  84349423.116 8  20598925.539                    20598932.242
 114953631.349 7  89574435.91945  21874912.727                    21874917.980
 113838278.071 8  88705211.861 7  21662705.203                    21662715.426
 115007280.472 7  89616127.07545  21885157.102                    21885165.211
 11  8 25  2 12  0.0000000  0  9G15G10G26G12G29G05G02G25G30
 125805298.670 6  98030164.636 6  23939949.320                    23939961.141
 127781649.701 6  99570282.24443  24316012.219                    24316020.805
 121133766.429 7  94390042.24844  23050982.063                    23050990.691
 114993376.514 7  89605286.139 7  21882507.531                    21882515.453
 116336934.967 7  90652222.502 7  22138184.859                    22138192.793
 108290905.133 8  84382619.514 8  20607032.438                    20607039.164
 114993655.641 7  89605623.68245  21882529.109                    21882534.797
 113856273.282 8  88719234.108 7  21666129.523                    21666139.871
 115033756.060 7  89636757.36545  21890195.250                    21890203.637
 11  8 25  2 12 30.0000000  0  9G15G10G26G12G29G05G02G25G30
 125709290.048 6  97955352.991 6  23921680.016                    23921691.008
 127890006.858 6  99654716.38043  24336631.461                    24336640.340
 121043974.176 7  94320074.38344  23033894.617                    23033904.359
 115067365.438 7  89662939.810 7  21896587.352                    21896595.184
 116258252.292 7  90590911.364 7  22123211.703                    22123219.371
 108333958.503 8  84416167.611 8  20615225.102                    20615231.758
 115033760.973 7  89636874.59145  21890160.906                    21890166.004
 113874815.346 8  88733682.469 7  21669658.094                    21669668.125
 115060770.925 7  89657807.88145  21895335.445                    21895344.215
 11  8 25  2 13  0.0000000  0  9G15G10G26G12G29G05G02G25G30
 125613247.932 6  97880515.231 6  23903403.531                    23903414.465
 127998428.924 6  99739201.11043  24357264.305                    24357272.945
 120954372.076 7  94250254.68244  23016843.852                    23016853.227
 115141696.099 7  89720859.782 7  21910731.664                    21910739.418
 116179707.348 7  90529707.551 7  22108265.398                    22108273.105
 108377460.741 8  84450065.463 8  20623503.102                    20623510.109
 115073947.136 7  89668188.49145  21897808.352                    21897813.301
 113893902.672 8  88748555.715 7  21673290.281                    21673300.316
 115088323.030 7  89679277.02245  21900579.156                    21900587.398
 11  8 25  2 13 30.0000000  0  9G15G10G26G12G29G05G02G25G30
 125517175.200 6  97805653.584 6  23885121.000                    23885132.293
 128106913.493 6  99823734.54243  24377908.148                    24377916.945
 120864964.375 7  94180586.47344  22999830.203                    22999839.270
 115216365.766 7  89779043.912 7  21924940.930                    21924949.148
 116101302.221 7  90468612.675 7  22093344.875                    22093352.621
 108421410.093 8  84484311.726 8  20631866.633                    20631873.738
 115114214.551 8  89699565.69445  21905471.063                    21905476.617
 113913534.144 8  88763852.969 7  21677025.789                    21677035.824
 115116410.859 7  89701163.63245  21905923.531                    21905932.211
 11  8 25  2 14  0.0000000  0  9G15G10G26G12G29G05G02G25G30
 125421074.527 6  97730770.190 6  23866834.117                    23866844.773
 128215458.64815  99908314.82352  24398564.125                    24398572.348
 120775754.175 7  94111072.13544  22982853.570                    22982863.273
 115291371.329 8  89837489.778 7  21939214.078                    21939221.574
 116023038.849 7  90407628.279 7  22078452.133                    22078459.887
 108465804.114 8  84518904.471 8  20640314.359                    20640321.238
 115154563.141 7  89731006.15845  21913148.859                    21913154.266
 113933708.221 8  88779573.021 7  21680864.938                    21680875.129
 115145032.153 7  89723465.92745  21911370.383                    21911378.660
 11  8 25  2 14 30.0000000  0  9G15G10G26G12G29G05G02G25G30
 125324949.132 6  97655867.543 6  23848541.078                    23848552.426
 128324060.688 6  99992940.16542  24419229.664                    24419238.234
 120686745.557 7  94041714.89344  22965915.789                    22965924.910
 115366710.488 7  89896195.592 7  21953550.984                    21953558.391
 115944920.010 7  90346756.493 7  22063586.539                    22063594.371
 108510641.286 8  84553842.533 8  20648846.445                    20648853.336
 115194993.283 7  89762510.17245  21920843.000                    21920848.051
 113954424.074 8  88795715.236 7  21684806.945                    21684817.480
 115174185.631 7  89746182.90945  21916918.109                    21916926.289
 11  8 25  2 15  0.0000000  0  9G15G10G26G12G29G05G02G25G30
 125228801.370 6  97580947.427 6  23830245.344                    23830256.480
 128432718.419 6 100077608.47543  24439907.055                    24439915.613
 120597942.020 7  93972517.44144  22949016.758                    22949026.313
 115442380.584 8  89955159.269 7  21967950.383                    21967958.008
 115866947.616 7  90285998.819 7  22048749.008                    22048756.496
 108555918.931 8  84589123.821 7  20657462.633                    20657469.523
 115235505.054 8  89794077.77345  21928551.398                    21928557.297
 113975679.991 8  88812278.288 7  21688851.750                    21688862.203
 115203869.059 8  89769312.84145  21922566.617                    21922574.832
 11  8 25  2 15 30.0000000  0  9G15G10G26G12G29G05G02G25G30
 125132633.815 7  97506011.874 6  23811944.758                    23811955.359
 128541428.859 6 100162317.90543  24460594.172                    24460602.383
 120509346.981 7  93903482.45644  22932158.063                    22932167.168
 115518377.471 8  90014377.590 7  21982411.898                    21982420.027
 115789123.220 7  90225356.470 7  22033938.992                    22033947.414
 108601634.372 8  84624746.254 7  20666161.727                    20666168.727
 115276098.300 7  89825708.87145  21936276.375                    21936281.695
 113997474.274 8  88829260.837 7  21692999.234                    21693009.559
 115234080.307 7  89792854.06445  21928315.641                    21928324.180
 11  8 25  2 16  0.0000000  0  9G15G10G26G12G29G05G02G25G30
 125036449.481 7  97431063.220 6  23793641.820                    23793651.586
 128650189.807 6 100247066.67943  24481290.438                    24481298.930
 120420964.016 7  93834612.72544  22915338.906                    22915348.355
 115594698.436 8  90073848.448 7  21996935.609                    21996943.551
 115711449.518 7  90164831.544 7  22019158.414                    22019166.363
 108647785.827 8  84660708.433 8  20674944.203                    20674951.191
 115316773.031 7  89857403.46745  21944016.320                    21944021.977
 114019805.622 8  88846661.870 7  21697248.852                    21697259.352
 115264817.508 7  89816805.13145  21934164.773                    21934173.375
 11  8 25  2 16 30.0000000  0  9G15G10G26G12G29G05G02G25G30
 124940251.573 7  97356103.955 6  23775335.430                    23775345.391
 128758998.985 6 100331853.05143  24501996.164                    24502004.539
 120332797.180 7  93765911.39044  22898561.539                    22898570.887
 115671341.072 8  90133569.958 7  22011520.344                    22011527.895
 115633928.597 7  90104425.661 7  22004406.828                    22004414.570
 108694371.359 8  84697008.858 8  20683809.023                    20683815.898
 115357529.599 7  89889161.82645  21951772.273                    21951777.934
 114042672.837 8  88864480.468 7  21701599.953                    21701610.203
 115296078.853 7  89841164.61345  21940113.688                    21940122.016
 11  8 25  2 17  0.0000000  0  9G15G10G26G12G29G05G02G25G30
 124844042.661 7  97281136.136 6  23757027.695                    23757037.539
 128867853.775 6 100416674.96143  24522710.039                    24522719.191
 120244850.087 7  93697381.29444  22881824.906                    22881834.414
 115748302.552 8  90193539.909 7  22026165.445                    22026173.031
 115556562.594 7  90044140.494 7  21989685.039                    21989692.105
 108741388.507 8  84733645.606 8  20692756.547                    20692763.039
 115398368.078 7  89920984.00345  21959543.375                    21959549.207
 114066074.377 8  88882715.415 7  21706053.203                    21706063.777
 115327862.424 7  89865931.01945  21946162.242                    21946170.539
 11  8 25  2 17 30.0000000  0  9G15G10G26G12G29G05G02G25G30
 124747825.428 7  97206161.874 6  23738717.383                    23738728.715
 128976751.924 6 100501530.65242  24543432.328                    24543442.039
 120157126.394 7  93629025.27744  22865131.813                    22865140.730
 115825579.828 7  90253755.940 7  22040870.961                    22040878.582
 115479353.890 7  89983977.884 7  21974991.898                    21974999.641
 108788834.977 8  84770616.887 8  20701785.016                    20701792.156
 115439288.566 7  89952870.08845  21967330.273                    21967335.648
 114090008.612 8  88901365.442 7  21710607.867                    21710618.691
 115360166.136 7  89891102.73145  21952308.930                    21952317.672
 11  8 25  2 18  0.0000000  0  9G15G10G26G12G29G05G02G25G30
 124651603.278 6  97131183.795 6  23720407.156                    23720418.105
 129085691.286 6 100586418.46243  24564162.656                    24564172.383
 120069629.574 7  93560846.02744  22848482.141                    22848491.074
 115903169.859 8  90314215.663 7  22055636.008                    22055643.797
 115402304.557 7  89923939.467 7  21960329.711                    21960337.957
 108836708.769 8  84807921.139 8  20710895.195                    20710902.254
 115480291.163 7  89984820.15345  21975132.930                    21975138.223
 114114474.169 8  88920429.492 7  21715263.477                    21715274.023
 115392987.966 7  89916678.16845  21958554.367                    21958562.969
 11  8 25  2 18 30.0000000  0  9G15G10G26G12G29G05G02G25G30
 124555379.176 7  97056204.178 6  23702096.164                    23702106.844
 129194669.676 6 100671336.66943  24584900.898                    24584910.086
 119982363.989 7  93492846.96444  22831875.906                    22831884.699
 115981070.310 7  90374917.281 7  22070459.930                    22070467.477
 115325416.933 7  89864027.060 7  21945698.867                    21945706.945
 108885008.049 8  84845556.948 7  20720085.984                    20720093.148
 115521376.521 7  90016834.72345  21982951.117                    21982956.539
 114139469.876 8  88939906.642 7  21720020.109                    21720030.563
 115426326.285 7  89942656.05945  21964898.656                    21964907.371
 11  8 25  2 19  0.0000000  0  9G15G21G26G12G29G05G02G25G30
 124459156.231 6  96981225.474 6  23683784.586                    23683795.352
 132350766.44516 103130516.46352  25185516.906                    25185525.445
 119895333.286 7  93425030.91944  22815314.102                    22815323.070
 116059278.358 7  90435858.594 7  22085342.031                    22085349.773
 115248693.583 8  89804242.654 7  21931099.016                    21931106.484
 108933730.732 8  84883522.681 8  20729357.703                    20729365.094
 115562545.157 7  90048914.17245  21990785.391                    21990790.633
 114164994.497 8  88959795.930 7  21724876.984                    21724886.980
 115460179.331 8  89969035.02945  21971340.672                    21971349.406
 11  8 25  2 19 30.0000000  0  9G15G21G26G12G29G05G02G25G30
 124362936.988 6  96906249.672 6  23665474.539                    23665485.793
 132295191.066 6 103087211.02442  25174942.070                    25174949.809
 119808541.144 7  93357400.77444  22798797.953                    22798807.293
 116137790.465 7  90497036.829 7  22100282.383                    22100290.359
 115172136.611 8  89744587.880 7  21916530.641                    21916538.547
 108982874.354 8  84921816.422 8  20738709.453                    20738716.402
 115603796.713 7  90081058.23345  21998634.695                    21998640.418
 114191045.997 8  88980095.777 7  21729834.805                    21729845.230
 115494544.687 7  89995813.20345  21977880.211                    21977889.008
 11  8 25  2 20  0.0000000  0  9G15G21G26G12G29G05G02G25G30
 124266724.464 6  96831279.085 6  23647166.234                    23647177.363
 132239621.241 6 103043909.87343  25164366.883                    25164375.320
 119721990.966 7  93289959.15844  22782327.969                    22782336.992
 116216603.867 7  90558449.833 7  22115280.469                    22115288.309
 115095748.108 7  89685064.391 7  21901994.289                    21902002.156
 109032436.610 8  84960436.367 8  20748140.969                    20748147.945
 115645131.606 7  90113267.23145  22006500.594                    22006506.410
 114217622.830 8  89000804.981 7  21734892.117                    21734902.680
 115529420.164 8  90022988.86145  21984517.047                    21984525.160
 11  8 25  2 20 30.0000000  0  9G15G21G26G12G29G05G02G25G30
 124170520.616 6  96756315.275 6  23628859.094                    23628869.707
 132184055.842 6 103000612.23442  25153793.273                    25153802.230
 119635685.799 7  93222708.47644  22765905.086                    22765913.898
 116295714.795 7  90620094.668 7  22130334.555                    22130342.145
 115019529.571 7  89625673.339 7  21887490.289                    21887497.891
 109082414.111 8  84999379.878 7  20757651.141                    20757658.316
 115686548.853 7  90145540.40545  22014382.484                    22014387.887
 114244722.539 8  89021921.612 7  21740048.852                    21740059.719
 115564802.887 8  90050559.77745  21991250.805                    21991258.637
 11  8 25  2 21  0.0000000  0  9G15G21G26G12G29G05G02G25G30
 124074328.921 6  96681360.922 6  23610554.359                    23610564.746
 132128494.566 5 102957317.70642  25143219.367                    25143229.523
 119549629.620 7  93155651.79844  22749529.008                    22749537.422
 116375120.811 7  90681969.453 7  22145445.000                    22145452.969
 114943483.571 8  89566416.728 7  21873019.656                    21873027.480
 109132805.527 8  85038645.921 7  20767240.586                    20767247.504
 115728049.119 7  90177878.26745  22022279.711                    22022285.078
 114272344.056 8  89043444.860 7  21745305.383                    21745315.613
 115600691.197 7  90078524.66845  21998079.633                    21998088.152
 11  8 25  2 21 30.0000000  0  9G15G21G26G12G29G05G02G25G30
 123978151.971 6  96606418.069 6  23592252.734                    23592262.617
 132072936.105 5 102914025.50942  25132647.086                    25132657.000
 119463825.922 7  93088791.86445  22733200.758                    22733209.824
 116454819.013 7  90744071.918 7  22160611.047                    22160619.133
 114867612.178 8  89507296.186 7  21858581.555                    21858589.480
 109183608.007 8  85078232.279 7  20776907.789                    20776914.836
 115769632.714 7  90210281.06045  22030193.047                    22030198.141
 114300485.326 8  89065373.107 7  21750660.305                    21750670.805
 115637082.801 7  90106881.73545  22005004.742                    22005013.223
 11  8 25  2 22  0.0000000  0  9G15G21G26G12G29G05G02G25G30
 123881992.740 7  96531489.025 6  23573954.148                    23573963.980
 132017380.384 5 102870735.56942  25122075.148                    25122085.207
 119378278.189 7  93022131.37544  22716921.969                    22716930.590
 116534805.566 7  90806399.071 7  22175832.242                    22175839.785
 114791917.497 7  89448313.344 7  21844177.352                    21844184.809
 109234818.950 8  85118136.913 7  20786652.992                    20786659.848
 115811299.390 7  90242748.60145  22038121.672                    22038127.020
 114329144.614 8  89087704.999 7  21756114.203                    21756124.238
 115673975.353 7  90135629.14645  22012024.984                    22012033.543
 11  8 25  2 22 30.0000000  0  9G15G21G26G12G29G05G02G25G30
 123785854.725 6  96456576.490 6  23555659.117                    23555668.719
 131961827.101 5 102827447.26442  25111504.109                    25111514.145
 119292991.016 7  92955673.93044  22700691.641                    22700700.957
 116615078.679 7  90868949.514 7  22191108.008                    22191115.867
 114716402.506 8  89389470.527 7  21829807.125                    21829814.961
 109286437.452 8  85158359.130 7  20796475.367                    20796482.285
 115853050.144 7  90275281.65945  22046066.609                    22046071.680
 114358320.901 8  89110439.769 7  21761666.211                    21761676.574
 115711367.302 7  90164765.69145  22019140.648                    22019149.125
 11  8 25  2 23  0.0000000  0  9G15G21G26G12G29G05G02G25G30
 123689740.358 7  96381682.344 6  23537369.086                    23537378.109
 131906275.048 5 102784160.02742  25100932.914                    25100942.563
 119207967.398 7  92889421.84944  22684512.609                    22684521.238
 116695634.766 7  90931720.468 7  22206437.031                    22206445.004
 114641068.977 8  89330769.116 7  21815471.781                    21815479.473
 109338460.090 8  85198896.260 7  20806374.977                    20806382.336
 115894884.637 7  90307879.96045  22054027.211                    22054032.871
 114388011.840 8  89133575.551 7  21767316.289                    21767326.543
 115749255.736 7  90194289.11345  22026350.406                    22026358.855
 11  8 25  2 23 30.0000000  0  9G15G21G26G12G29G05G02G25G30
 123593652.891 7  96306809.180 6  23519083.844                    23519093.645
 131850724.084 6 102740873.62042  25090360.719                    25090371.289
 119123211.546 7  92823378.41744  22668383.922                    22668393.105
 116776471.469 7  90994710.065 7  22221819.758                    22221827.898
 114565919.293 8  89272210.963 7  21801171.344                    21801179.047
 109390885.290 8  85239747.069 7  20816351.383                    20816358.477
 115936803.553 7  90340544.04845  22062004.203                    22062009.898
 114418216.116 8  89157111.350 7  21773063.906                    21773074.160
 115787639.015 7  90224198.13745  22033654.734                    22033663.141
 11  8 25  2 24  0.0000000  0  9G15G21G26G12G29G05G02G25G30
 123497595.010 7  96231959.092 6  23500804.906                    23500814.289
 131795173.314 6 102697587.32442  25079790.898                    25079800.332
 119038726.465 7  92757545.98144  22652306.852                    22652315.762
 116857584.617 7  91057915.087 7  22237255.172                    22237263.199
 114490955.386 8  89213797.570 7  21786905.969                    21786913.246
 109443709.810 8  85280909.045 7  20826403.789                    20826410.770
 115978806.272 7  90373273.43545  22069997.328                    22070002.637
 114448931.374 8  89181045.328 7  21778908.727                    21778918.863
 115826514.226 7  90254490.48445  22041052.297                    22041060.742
 11  8 25  2 24 30.0000000  0  9G15G21G26G12G29G05G02G25G30
 123401569.024 7  96157133.841 6  23482531.383                    23482540.859
 131739621.883 6 102654300.49743  25069219.633                    25069228.555
 118954515.673 7  92691927.26744  22636281.711                    22636291.098
 116938971.203 7  91121333.182 7  22252742.336                    22252750.574
 114416179.388 8  89155530.611 7  21772676.320                    21772684.141
 109496931.137 8  85322380.202 8  20836531.086                    20836537.766
 116020893.133 7  90406068.38845  22078006.117                    22078011.754
 114480155.650 8  89205375.921 7  21784850.430                    21784860.711
 115865879.090 7  90285164.40045  22048543.102                    22048551.852
 11  8 25  2 25  0.0000000  0  9G15G21G26G12G29G05G02G25G30
 123305578.608 7  96082336.291 6  23464264.883                    23464274.426
 131684069.924 6 102611013.29343  25058648.273                    25058657.672
 118870583.311 7  92626525.50744  22620310.383                    22620318.902
 117020628.824 7  91184962.473 7  22268281.789                    22268289.723
 114341594.048 8  89097412.217 7  21758482.938                    21758490.891
 109550547.805 8  85364159.425 8  20846733.977                    20846741.141
 116063064.559 7  90438929.24245  22086030.922                    22086036.383
 114511887.706 8  89230102.194 7  21790888.664                    21790899.176
 115905731.722 7  90316218.38245  22056127.094                    22056134.992
 11  8 25  2 25 30.0000000  0  9G15G21G26G12G29G05G02G25G30
 123209626.533 7  96007568.600 6  23446005.578                    23446014.977
 131628516.102 6 102567724.61143  25048076.828                    25048085.898
 118786932.958 7  92561343.49744  22604392.219                    22604400.746
 117102554.318 7  91248800.487 7  22283871.148                    22283879.297
 114267201.351 8  89039443.938 7  21744326.563                    21744334.547
 109604556.866 8  85406244.400 7  20857011.953                    20857019.191
 116105320.854 7  90471856.22045  22094072.156                    22094077.598
 114544125.436 8  89255222.508 7  21797023.789                    21797034.000
 115946069.501 8  90347650.40745  22063802.844                    22063811.297
 11  8 25  2 26  0.0000000  0  9G15G21G26G12G29G05G02G25G30
 123113716.087 6  95932833.368 6  23427754.078                    23427764.156
 131572960.173 6 102524434.27243  25037504.750                    25037513.602
 118703567.992 7  92496383.86544  22588528.305                    22588536.824
 117184744.670 7  91312844.880 7  22299511.500                    22299519.707
 114193003.723 8  88981627.669 7  21730207.000                    21730214.793
 109658956.346 8  85448633.620 8  20867363.727                    20867371.031
 116147662.380 7  90504849.61645  22102129.289                    22102134.727
 114576866.915 8  89280735.349 7  21803254.195                    21803264.598
 115986890.197 8  90379458.74045  22071570.617                    22071579.492
 11  8 25  2 26 30.0000000  0  9G15G21G26G12G29G05G02G25G30
 123017850.000 7  95858132.715 6  23409512.531                    23409521.441
 131517401.775 6 102481142.05243  25026932.477                    25026941.402
 118620492.660 7  92431649.93544  22572719.250                    22572728.219
 117267197.167 7  91377093.557 7  22315201.805                    22315209.398
 114119003.680 8  88923965.350 7  21716125.516                    21716133.332
 109713744.067 8  85491325.342 7  20877789.086                    20877796.313
 116190089.435 7  90537909.65645  22110202.766                    22110208.254
 114610110.621 8  89306639.524 7  21809580.313                    21809590.434
 116028191.781 7  90411641.77145  22079430.070                    22079439.004
 11  8 25  2 27  0.0000000  0  9G15G21G26G12G29G05G02G25G30
 122922031.331 7  95783468.998 6  23391277.961                    23391287.168
 131461840.374 6 102437847.45443  25016358.945                    25016368.332
 118537710.653 7  92367144.55645  22556966.313                    22556974.973
 117349908.604 7  91441543.994 7  22330941.516                    22330949.133
 114045203.428 8  88866458.724 7  21702082.039                    21702089.496
 109768917.506 8  85534317.631 8  20888288.461                    20888295.699
 116232601.898 7  90571036.25745  22118293.102                    22118298.363
 114643854.516 8  89332933.468 7  21816001.234                    21816011.629
 116069971.713 7  90444197.56145  22087381.438                    22087389.070
 11  8 25  2 27 30.0000000  0  9G15G21G26G12G29G05G02G25G30
 122826263.081 7  95708844.569 6  23373053.789                    23373063.117
 131406275.171 6 102394549.91343  25005785.469                    25005795.250
 118455225.083 7  92302870.18044  22541269.766                    22541278.340
 117432875.870 7  91506193.771 7  22346729.586                    22346737.703
 113971605.193 8  88809109.497 7  21688076.398                    21688084.078
 109824474.363 8  85577608.687 8  20898860.555                    20898867.582
 116275200.434 7  90604229.92745  22126398.969                    22126404.836
 114678096.644 8  89359615.637 7  21822517.430                    21822527.820
 116112227.597 7  90477124.22245  22095421.742                    22095430.168
 11  8 25  2 28  0.0000000  0  9G15G21G26G12G29G05G02G25G30
 122730547.969 7  95634261.516 6  23354839.508                    23354848.730
 131350705.170 6 102351248.64343  24995211.523                    24995220.035
 118373039.962 7  92238829.91245  22525630.172                    22525638.598
 117516095.764 7  91571040.420 7  22362566.102                    22362573.605
 113898211.227 8  88751919.444 7  21674110.055                    21674117.660
 109880411.796 8  85621196.297 7  20909504.828                    20909512.176
 116317884.909 7  90637490.55445  22134521.500                    22134526.777
 114712834.756 8  89386684.287 7  21829128.180                    21829138.586
 116154956.683 8  90510419.60945  22103552.883                    22103561.734
 11  8 25  2 28 30.0000000  0  9G15G21G26G12G29G05G02G25G30
 122634888.992 7  95559722.222 6  23336635.695                    23336645.465
 131295130.188 6 102307943.56543  24984635.961                    24984644.523
 118291158.738 7  92175026.43144  22510048.367                    22510057.184
 117599565.333 7  91636081.625 7  22378449.414                    22378457.258
 113825023.524 8  88694890.105 7  21660182.828                    21660190.672
 109936727.608 8  85665078.753 7  20920221.445                    20920228.379
 116360655.793 7  90670818.50945  22142660.844                    22142666.848
 114748067.037 8  89414138.004 7  21835832.570                    21835843.051
 116198156.758 7  90544082.00545  22111773.852                    22111782.320
 11  8 25  2 29  0.0000000  0  9G15G21G26G12G29G05G02G25G30
 122539289.231 7  95485229.074 6  23318443.945                    23318453.852
 131239549.712 6 102264634.16743  24974058.914                    24974067.609
 118209585.034 7  92111462.59744  22494525.969                    22494534.438
 117683281.353 7  91701314.851 7  22394380.227                    22394387.883
 113752044.337 8  88638023.253 7  21646295.438                    21646303.164
 109993419.323 8  85709254.105 7  20931009.711                    20931016.809
 116403513.106 7  90704213.83145  22150816.000                    22150821.563
 114783791.435 8  89441975.184 7  21842630.641                    21842640.688
 116241825.326 7  90578109.45345  22120083.445                    22120091.652
 11  8 25  2 29 30.0000000  0  9G15G21G26G12G29G05G02G25G30
 122443751.667 7  95410784.419 6  23300263.563                    23300273.586
 131183963.188 6 102221320.08943  24963480.930                    24963490.160
 118128322.896 7  92048141.52344  22479061.820                    22479070.789
 117767241.043 7  91766737.956 7  22410357.438                    22410365.027
 113679276.962 8  88581321.441 7  21632447.875                    21632455.547
 110050485.002 8  85753720.864 8  20941868.813                    20941876.309
 116446457.390 7  90737676.91645  22158988.211                    22158993.930
 114820006.226 8  89470194.484 7  21849522.094                    21849532.488
 116285960.213 7  90612500.27345  22128481.797                    22128490.695
 11  8 25  2 30  0.0000000  0  9G15G21G26G12G29G05G02G25G30
 122348279.496 7  95336390.679 6  23282095.234                    23282104.563
 131128369.697 6 102178000.58643  24952901.352                    24952910.645
 118047375.384 7  91985065.61745  22463658.430                    22463666.504
 117851441.360 7  91832348.567 7  22426380.039                    22426387.949
 113606722.744 8  88524785.721 7  21618641.695                    21618649.031
 110107921.463 8  85798476.548 7  20952798.461                    20952805.984
 116489488.559 7  90771207.69845  22167176.656                    22167181.941
 114856708.881 8  89498793.939 7  21856506.180                    21856516.777
 116330558.376 7  90647252.07445  22136968.695                    22136977.180
 11  8 25  2 30 30.0000000  0  9G15G21G26G12G29G05G02G25G30
 122252876.009 7  95262050.456 6  23263941.445                    23263949.895
 131072769.281 6 102134675.66543  24942320.406                    24942330.621
 117966746.885 7  91922238.28645  22448314.695                    22448323.332
 117935879.728 7  91898144.670 7  22442447.633                    22442456.191
 113534384.427 8  88468418.240 7  21604876.070                    21604883.840
 110165727.432 8  85843520.154 7  20963798.898                    20963805.777
 116532607.532 7  90804806.90645  22175382.133                    22175387.375
 114893898.121 8  89527772.551 7  21863583.281                    21863593.949
 116375618.116 7  90682363.54945  22145543.461                    22145551.762
 11  8 25  2 31  0.0000000  0  9G15G21G26G12G29G05G02G25G30
 122157543.896 7  95187765.857 6  23245799.727                    23245808.770
 131017160.694 6 102091344.37943  24931739.469                    24931748.039
 117886440.476 7  91859661.93745  22433032.945                    22433041.480
 118020552.166 7  91964123.160 7  22458561.141                    22458569.160
 113462264.108 8  88412220.622 7  21591152.086                    21591159.922
 110223899.455 8  85888849.002 7  20974868.961                    20974875.629
 116575814.007 7  90838474.29345  22183603.523                    22183609.441
 114931571.148 8  89557128.143 7  21870752.180                    21870762.512
 116421136.234 7  90717832.21345  22154205.195                    22154213.418
 11  8 25  2 31 30.0000000  0  9G15G21G26G12G29G05G02G25G30
 122062285.794 7  95113538.943 6  23227672.125                    23227681.953
 130961543.315 6 102048006.25743  24921156.250                    24921164.672
 117806459.641 7  91797339.28945  22417813.164                    22417821.785
 118105455.393 7  92030281.492 7  22474717.539                    22474725.625
 113390364.160 8  88356194.723 7  21577469.789                    21577477.531
 110282435.104 8  85934461.193 7  20986007.766                    20986014.805
 116619108.286 7  90872210.09345  22191842.508                    22191848.004
 114969725.838 8  89586859.051 7  21878012.695                    21878023.637
 116467110.094 7  90753655.98145  22162954.016                    22162962.297
 11  8 25  2 32  0.0000000  0  9G15G21G26G12G29G05G02G25G30
 121967105.374 7  95039372.543 6  23209560.109                    23209569.723
 130905916.955 6 102004661.17043  24910571.102                    24910579.297
 117726808.319 7  91735273.38544  22402655.961                    22402664.320
 118190587.263 7  92096617.979 7  22490917.422                    22490925.762
 113318687.174 8  88300342.565 7  21563830.203                    21563837.527
 110341332.568 8  85980355.323 7  20997215.320                    20997222.348
 116662490.961 7  90906014.78545  22200097.945                    22200103.395
 115008360.476 8  89616963.941 7  21885364.422                    21885375.250
 116513537.618 7  90789833.25445  22171788.672                    22171797.348
 11  8 25  2 32 30.0000000  0  9G15G21G26G12G29G05G02G25G30
 121872005.788 7  94965269.116 6  23191462.633                    23191472.086
 130850281.277 6 101961308.84443  24899982.422                    24899991.609
 117647490.678 7  91673467.51044  22387562.336                    22387570.863
 118275944.803 7  92163130.325 7  22507160.195                    22507168.426
 113247235.975 8  88244666.343 7  21550233.352                    21550241.070
 110400589.924 8  86026529.884 7  21008491.867                    21008498.711
 116705962.594 7  90939888.78445  22208370.086                    22208375.969
 115047473.376 8  89647441.501 7  21892807.773                    21892818.039
 116560416.758 7  90826362.43345  22180709.477                    22180717.969
 11  8 25  2 33  0.0000000  0  9G15G21G26G12G29G05G02G25G30
 121776989.446 7  94891230.559 6  23173381.953                    23173390.742
 130794635.541 6 101917948.65543  24889393.742                    24889403.023
 117568509.796 7  91611924.02545  22372532.750                    22372541.371
 118361524.510 7  92229815.777 7  22523445.938                    22523453.434
 113176012.271 8  88189167.392 7  21536679.680                    21536687.324
 110460203.803 8  86072982.260 7  21019835.938                    21019842.719
 116749523.013 7  90973831.97645  22216659.922                    22216665.273
 115087061.865 8  89678289.664 7  21900341.570                    21900351.758
 116607744.259 7  90863240.98445  22189715.570                    22189723.359
 11  8 25  2 33 30.0000000  0  9G15G21G26G12G29G05G02G25G30
 121682059.885 7  94817259.652 6  23155317.469                    23155326.543
 130738979.101 6 101874580.08942  24878802.273                    24878811.586
 117489869.390 7  91550645.84444  22357567.398                    22357576.156
 118447323.890 7  92296672.397 7  22539772.820                    22539781.168
 113105018.642 8  88133847.715 7  21523169.844                    21523177.527
 110520172.040 8  86119710.760 7  21031247.328                    21031254.191
 116793172.795 7  91007844.79545  22224965.945                    22224971.547
 115127123.980 8  89709506.874 7  21907964.914                    21907975.016
 116655517.729 7  90900467.04445  22198806.461                    22198814.883
 11  8 25  2 34  0.0000000  0  9G15G21G26G12G29G05G02G25G30
 121587220.298 7  94743358.841 6  23137269.680                    23137278.910
 130683311.258 6 101831202.65342  24868208.555                    24868217.840
 117411573.281 7  91489635.95545  22342668.633                    22342676.883
 118533339.403 7  92363697.442 7  22556140.984                    22556149.293
 113034257.401 8  88078709.126 7  21509704.719                    21509712.711
 110580492.543 8  86166713.754 7  21042726.195                    21042733.078
 116836912.300 7  91041927.51445  22233289.555                    22233294.945
 115167657.507 8  89741091.424 7  21915678.320                    21915688.500
 116703734.665 7  90938038.66145  22207981.711                    22207990.387
 11  8 25  2 34 30.0000000  0  9G15G21G26G12G29G05G02G25G30
 121492473.072 7  94669529.995 6  23119240.078                    23119248.684
 130627631.486 6 101787815.95242  24857612.703                    24857622.691
 117333624.469 7  91428896.69244  22327835.609                    22327843.770
 118619567.825 7  92430888.379 7  22572550.086                    22572558.172
 112963730.299 8  88023752.982 7  21496283.602                    21496291.551
 110641162.162 8  86213988.788 7  21054271.359                    21054278.305
 116880741.403 7  91076080.05845  22241629.680                    22241635.520
 115208659.877 8  89773041.307 7  21923480.711                    21923491.004
 116752391.980 7  90975953.42645  22217241.547                    22217249.461
 11  8 25  2 35  0.0000000  0  9G15G21G26G12G29G05G02G25G30
 121397821.725 7  94595775.856 6  23101228.547                    23101236.703
 130571939.412 6                  24847015.195
 117256026.979 7  91368431.18545  22313069.422                    22313077.430
 118706005.930 7  92498242.714 7  22588998.273                    22589006.371
 112893440.379 8  87968981.649 7  21482908.305                    21482915.609
 110702178.875 8  86261534.286 7  21065882.211                    21065889.086
 116924660.857 7  91110303.00345  22249987.438                    22249992.941
 115250129.142 8  89805355.009 7  21931372.008                    21931382.254
 116801487.407 8  91014209.56745  22226583.813                    22226592.477
 11  8 25  2 35 30.0000000  0  9G15G21G26G12G29G05G02G25G30
 121303269.089 7  94522098.644 6  23083235.133                    23083244.426
 130516234.352 6                  24836415.938
 117178784.493 7  91308242.30845  22298370.422                    22298378.605
 118792650.891 7  92565758.241 7  22605486.281                    22605494.484
 112823389.788 8  87914396.804 7  21469578.000                    21469585.664
 110763540.252 8  86309348.351 7  21077558.906                    21077566.164
 116968670.861 7  91144596.50445  22258361.969                    22258367.926
 115292063.067 8  89838030.780 7  21939351.570                    21939362.035
 116851018.196 8  91052804.95645  22236009.688                    22236017.641
 11  8 25  2 36  0.0000000  0  9G15G21G26G12G29G05G02G25G30
 121208817.940 7  94448500.500 6  23065262.023                    23065270.586
 130460515.326 5                  24825812.641
 117101899.949 7  91248332.34045  22283739.453                    22283748.164
 118879499.255 7  92633432.254 7  22622012.898                    22622021.266
 112753580.528 8  87860000.013 7  21456293.711                    21456301.441
 110825243.325 8  86357428.675 7  21089300.750                    21089307.582
 117012771.367 7  91178960.52645  22266754.047                    22266759.742
 115334458.952 8  89871066.525 7  21947419.063                    21947429.285
 116900981.192 7  91091737.12245  22245516.883                    22245525.598
 11  8 25  2 36 30.0000000  0  9G15G21G26G12G29G05G02G25G30
 121114471.834 7  94374984.185 6  23047308.133                    23047316.242
 130404782.273 6                  24815206.828
 117025377.475 7  91188704.51245  22269177.492                    22269185.902
 118966548.511 7  92701262.812 6  22638577.852                    22638586.121
 112684015.367 8  87805793.428 7  21443056.148                    21443063.773
 110887286.202 8  86405773.788 7  21101106.891                    21101113.508
 117056963.021 8  91213395.57945  22275163.828                    22275168.957
 115377314.981 8  89904460.814 7  21955574.242                    21955584.859
 116951374.326 7  91131004.48345  22255105.883                    22255115.016
 11  8 25  2 37  0.0000000  0  9G15G21G26G12G29G05G02G25G30
 121020233.333 7  94301551.714 6  23029375.648                    23029384.078
 130349034.522 6 101570715.85753  24804598.992                    24804607.059
 116949220.398 7  91129361.40145  22254685.344                    22254693.922
 119053795.353 7  92769247.330 6  22655180.969                    22655189.039
 112614696.460 8  87751778.736 7  21429864.969                    21429872.039
 110949666.033 8  86454381.449 7  21112977.234                    21112984.730
 117101245.984 7  91247901.76745  22283590.188                    22283595.754
 115420628.619 8  89938211.691 7  21963816.766                    21963827.191
 117002194.615 7  91170604.68245  22264776.977                    22264785.766
 11  8 25  2 37 30.0000000  0  9G15G21G26G12G29G05G02G25G30
 120926105.789 7  94228205.717 6  23011463.648                    23011472.000
 130293271.540 6 101527264.30743  24793987.273                    24793995.258
 116873432.350 7  91070305.84745  22240263.719                    22240271.926
 119141236.720 7  92837383.429 7  22671820.289                    22671828.367
 112545626.209 8  87697957.790 7  21416721.109                    21416728.508
 111012380.500 8  86503249.880 7  21124911.914                    21124918.559
 117145620.671 7  91282479.43545  22292034.070                    22292040.215
 115464397.661 8  89972317.434 7  21972145.961                    21972156.727
 117053439.410 7  91210535.66745  22274528.805                    22274537.762
 11  8 25  2 38  0.0000000  0  9G15G21G26G12G29G05G02G25G30
 120832092.474 7  94154948.735 6  22993573.602                    22993581.977
 130237492.788 6 101483800.47443  24783372.023                    24783380.930
 116798017.096 7  91011540.78845  22225912.344                    22225920.824
 119228869.511 7  92905668.690 7  22688496.148                    22688504.258
 112476807.132 8  87644332.571 7  21403625.023                    21403633.215
 111075427.516 8  86552377.428 7  21136909.188                    21136916.242
 117190087.649 8  91317129.01145  22300496.320                    22300501.836
 115508619.860 8  90006776.287 7  21980560.695                    21980571.430
 117105106.093 7  91250795.40345  22284360.469                    22284369.574
 11  8 25  2 38 30.0000000  0  9G15G21G26G12G29G05G02G25G30
 120738196.464 7  94081783.148 6  22975705.109                    22975713.496
 130181697.711 7 101440323.93143  24772754.609                    24772763.344
 116722978.199 7  90953068.98045  22211632.836                    22211641.133
 119316690.720 7  92974100.757 7  22705208.094                    22705215.852
 112408241.523 8  87590904.857 7  21390577.555                    21390584.820
 111138804.293 8  86601761.944 7  21148969.125                    21148976.199
 117234647.116 7  91351850.66845  22308975.484                    22308981.137
 115553292.894 8  90041586.434 7  21989062.133                    21989072.727
 117157191.890 7  91291381.71445  22294272.461                    22294281.023
 11  8 25  2 39  0.0000000  0  9G15G21G26G12G29G05G02G25G30
 120644420.422 7  94008711.032 6  22957859.609                    22957868.961
 130125885.871 7 101396834.29543  24762133.789                    24762141.895
 116648318.952 7  90894893.01245  22197425.602                    22197433.953
 119404697.030 7  93042677.078 7  22721955.219                    22721963.172
 112339931.831 8  87537676.560 7  21377578.727                    21377586.195
 111202508.028 8  86651401.227 7  21161091.625                    21161098.484
 117279299.302 7  91386644.56045  22317472.656                    22317478.273
 115598414.227 8  90076745.906 7  21997648.672                    21997658.828
 117209693.988 7  91332292.43045  22304263.086                    22304271.488
 11  8 25  2 39 30.0000000  0 10G15G21G26G12G29G05G02G25G30G18
 120550767.725 7  93935735.055 6  22940038.414                    22940047.469
 130070056.472 7 101353330.97443  24751509.570                    24751517.762
 116574042.757 7  90837015.51245  22183291.391                    22183299.719
 119492885.632 7  93111395.429 6  22738736.586                    22738744.887
 112271880.281 8  87484649.416 7  21364629.039                    21364636.457
 111266536.595 8  86701293.625 7  21173275.945                    21173282.926
 117324044.774 7  91421511.14545  22325987.625                    22325993.063
 115643981.508 8  90112252.866 7  22006319.609                    22006329.883
 117262609.605 7  91373525.36345  22314332.258                    22314341.156
 129681488.63716 101050625.62452  24677585.539                    24677596.270
 11  8 25  2 40  0.0000000  0 10G15G21G26G12G29G05G02G25G30G18
 120457241.201 7  93862857.374 6  22922240.570                    22922249.145
 130014208.823 7 101309813.45543  24740882.438                    24740890.484
 116500153.471 7  90779439.50945  22169230.930                    22169238.902
 119581252.968 7  93180253.060 7  22755552.289                    22755560.703
 112204089.090 8  87431825.148 7  21351728.297                    21351735.863
 111330887.183 8  86751436.952 7  21185521.492                    21185528.668
 117368883.537 7  91456450.43345  22334520.445                    22334525.531
 115689992.150 8  90148105.314 7  22015074.656                    22015085.270
 117315935.727 7  91415078.17445  22324480.430                    22324488.828
 129592276.756 6 100981110.15943  24660608.883                    24660620.395
 11  8 25  2 40 30.0000000  0 10G15G21G26G12G29G05G02G25G30G18
 120363843.642 7  93790080.169 6  22904468.000                    22904476.195
 129958342.104 7 101266281.07343  24730250.891                    24730259.551
 116426653.970 7  90722167.23645  22155244.070                    22155252.277
 119669795.821 7  93249247.450 7  22772402.000                    22772410.098
 112136560.006 8  87379205.112 7  21338878.016                    21338885.543
 111395557.177 8  86801829.163 7  21197827.672                    21197834.676
 117413815.802 7  91491462.57645  22343070.148                    22343075.867
 115736443.507 8  90184301.160 7  22023914.219                    22023924.898
 117369669.372 7  91456948.53345  22334705.500                    22334713.793
 129503230.478 6 100911723.68343  24643664.180                    24643675.531
 11  8 25  2 41  0.0000000  0 10G15G21G26G12G29G05G02G25G30G18
 120270578.769 7  93717406.365 6  22886719.828                    22886728.477
 129902456.626 7 101222734.09143  24719617.414                    24719624.848
 116353548.492 7  90665201.98745  22141332.820                    22141340.793
 119758511.622 7  93318376.606 7  22789284.133                    22789292.273
 112069296.656 8  87326792.159 7  21326078.461                    21326086.160
 111460544.969 8  86852469.009 7  21210194.633                    21210201.566
 117458842.570 7  91526548.36345  22351638.352                    22351644.113
 115783333.803 7  90220839.042 7  22032837.531                    22032847.898
 117423808.327 7  91499134.72845  22345007.695                    22345016.605
 129414351.670 6 100842467.73643  24626750.563                    24626762.457
 11  8 25  2 41 30.0000000  0 10G15G21G26G12G29G05G02G25G30G18
 120177449.940 7  93644838.564 6  22868998.555                    22869006.176
 129846552.003 6 101179172.15543  24708977.688                    24708986.004
 116280840.768 7  90608546.68445  22127496.414                    22127504.918
 119847397.715 7  93387638.455 7  22806198.820                    22806206.684
 112002301.398 8  87274588.092 7  21313330.047                    21313337.082
 111525848.084 8  86903354.562 7  21222621.297                    21222628.211
 117503964.220 7  91561708.08245  22360225.227                    22360230.313
 115830660.811 8  90257717.223 7  22041843.484                    22041853.938
 117478350.067 7  91541634.78345  22355386.500                    22355395.328
 129325641.930 6 100773343.54143  24609869.477                    24609881.262
 11  8 25  2 42  0.0000000  0 10G15G21G26G12G29G05G02G25G30G18
 120084460.140 7  93572379.082 6  22851302.250                    22851310.664
 129790627.454 6 101135594.70143  24698336.609                    24698344.227
 116208534.104 7  90552203.87645  22113737.414                    22113745.313
 119936451.002 7  93457030.589 7  22823144.680                    22823152.969
 111935576.504 8  87222594.704 7  21300632.266                    21300639.707
 111591463.598 8  86954483.533 7  21235107.664                    21235114.523
 117549181.086 7  91596942.00645  22368829.617                    22368834.879
 115878421.810 8  90294933.574 7  22050932.242                    22050942.516
 117533291.440 7  91584446.23545  22365841.141                    22365850.395
 129237102.232 6 100704351.77143  24593020.984                    24593032.449
 11  8 25  2 42 30.0000000  0 10G15G21G26G12G29G05G02G25G30G18
 119991612.003 7  93500029.994 6  22833633.641                    22833642.250
 129734682.106 6 101092001.08143  24687689.461                    24687698.133
 116136631.926 7  90496176.26045  22100054.570                    22100062.441
 120025667.606 7  93526549.981 7  22840122.211                    22840130.391
 111869123.987 8  87170813.552 7  21287986.813                    21287994.289
 111657389.032 8  87005854.011 7  21247652.594                    21247659.594
 117594493.436 7  91632250.33245  22377452.016                    22377458.188
 115926614.224 8  90332486.096 7  22060102.883                    22060113.168
 117588629.573 7  91627566.84245  22376372.039                    22376380.516
 129148734.125 5 100635493.75042  24576204.500                    24576216.621
 11  8 25  2 43  0.0000000  0 10G15G21G26G12G29G05G02G25G30G18
 119898909.612 7  93427794.471 6  22815993.508                    22816001.594
 129678716.050 6 101048391.28043  24677039.391                    24677048.309
 116065137.917 7  90440466.70745  22086449.797                    22086458.328
 120115045.059 7  93596194.708 7  22857129.383                    22857138.563
 111802946.900 8  87119247.026 7  21275393.477                    21275400.773
 111723622.498 8  87057464.500 7  21260256.172                    21260263.430
 117639902.027 7  91667633.64645  22386093.617                    22386098.707
 115975235.926 8  90370373.111 7  22069354.953                    22069365.578
 117644361.849 7  91670994.57945  22386977.625                    22386986.215
 129060538.676 6 100566770.21742  24559421.328                    24559433.070
 11  8 25  2 43 30.0000000  0 10G15G21G26G12G29G05G02G25G30G18
 119806355.595 7  93355674.567 6  22798381.141                    22798389.266
 129622728.867 6 101004765.02143  24666385.594                    24666394.414
 115994055.573 7  90385077.91745  22072923.125                    22072931.355
 120204580.498 7  93665962.555 6  22874168.648                    22874176.195
 111737047.668 8  87067897.004 7  21262853.641                    21262860.648
 111790161.351 8  87109312.964 7  21272918.266                    21272925.621
 117685407.094 7  91703092.13745  22394752.641                    22394757.836
 116024284.395 8  90408592.680 7  22078688.828                    22078699.340
 117700485.472 7  91714727.26845  22397656.898                    22397666.059
 128972517.309 5 100498182.39442  24542671.766                    24542683.000
 11  8 25  2 44  0.0000000  0 10G15G21G26G12G29G05G02G25G30G18
 119713952.532 7  93283672.275 6  22780796.953                    22780805.066
 129566719.783 6 100961121.66543  24655727.039                    24655735.547
 115923387.886 7  90330012.23945  22059475.367                    22059483.426
 120294270.520 7  93735850.842 6  22891235.828                    22891243.641
 111671427.869 8  87016764.717 7  21250366.336                    21250373.906
 111857002.717 8  87161397.148 7  21285637.984                    21285644.949
 117731008.483 7  91738625.68745  22403430.148                    22403436.047
 116073756.700 8  90447142.507 7  22088102.969                    22088113.797
 117756997.207 7  91758762.37445  22408411.703                    22408420.066
 128884671.114 6 100429731.04542  24525954.789                    24525965.805
 11  8 25  2 44 30.0000000  0 10G15G21G26G12G29G05G02G25G30G18
 119621704.040 7  93211790.439 7  22763242.797                    22763251.504
 129510687.756 6 100917460.44543  24645063.789                    24645073.031
 115853138.659 7  90275272.63445  22046107.180                    22046115.539
 120384112.151 7  93805857.278 6  22908332.484                    22908339.988
 111606090.119 8  86965852.201 7  21237933.172                    21237940.559
 111924144.326 8  87213715.282 7  21298414.313                    21298421.805
 117776707.328 7  91774235.17045  22412126.805                    22412131.844
 116123650.553 8  90486020.806 7  22097597.758                    22097608.000
 117813894.337 7  91803097.79045  22419238.539                    22419247.477
 128797001.352 6 100361417.20642  24509271.563                    24509282.926
 11  8 25  2 45  0.0000000  0 10G15G21G26G12G29G05G02G25G30G18
 119529613.221 7  93140031.493 7  22745718.250                    22745726.547
 129454632.805 6 100873781.35243  24634398.148                    24634406.422
 115783311.540 7  90220861.94945  22032819.711                    22032827.922
 120474102.131 7  93875979.313 6  22925456.344                    22925464.434
 111541037.096 8  86915161.567 7  21225554.125                    21225561.402
 111991583.572 8  87266265.341 7  21311247.453                    21311254.816
 117822503.687 7  91809920.65645  22420840.969                    22420846.551
 116173963.510 8  90525225.694 7  22107171.859                    22107182.316
 117871174.005 7  91847731.28645  22430138.555                    22430147.285
 128709509.297 6 100293241.84042  24492622.352                    24492633.250
 11  8 25  2 45 30.0000000  0 10G15G21G26G12G29G05G02G25G30G18
 119437682.750 7  93068397.453 6  22728224.047                    22728232.273
 129398554.349 6 100830083.91643  24623725.156                    24623734.098
 115713909.497 8  90166782.48345  22019612.984                    22019620.828
 120564237.169 7  93946214.362 6  22942608.969                    22942616.723
 111476271.093 8  86864694.571 7  21213228.969                    21213236.582
 112059318.072 8  87319045.460 7  21324136.891                    21324144.578
 117868397.780 7  91845682.28245  22429574.859                    22429580.031
 116224692.708 8  90564754.906 7  22116825.578                    22116836.078
 117928833.100 7  91892660.42145  22441111.063                    22441119.520
 128622196.026 6 100225205.76143  24476007.367                    24476017.789
 11  8 25  2 46  0.0000000  0 10G15G21G26G12G29G05G02G25G30G18
 119345916.035 7  92996891.028 7  22710761.789                    22710770.047
 129342451.698 6 100786367.67243  24613049.273                    24613058.227
 115644935.934 7  90113036.90845  22006487.914                    22006495.598
 120654514.426 7  94016560.251 6  22959788.016                    22959795.395
 111411794.381 7  86814452.995 7  21200959.984                    21200967.012
 112127345.141 8  87372053.570 7  21337082.016                    21337089.215
 117914390.296 7  91881520.60845  22438327.133                    22438332.410
 116275835.493 8  90604606.406 7  22126557.469                    22126567.949
 117986868.650 7  91937882.90845  22452154.641                    22452162.863
 128535062.741 6 100157309.99043  24459426.273                    24459436.000
 11  8 25  2 46 30.0000000  0 10G15G21G26G12G29G05G02G25G30G18
 119254315.960 7  92925514.467 7  22693330.609                    22693339.082
 129286324.440 6 100742632.20443  24602369.234                    24602377.965
 115576394.374 7  90059627.95645  21993444.398                    21993452.578
 120744930.786 7  94087014.530 6  22976993.648                    22977001.465
 111347609.030 7  86764438.459 7  21188745.711                    21188753.098
 112195662.301 8  87425287.719 7  21350082.688                    21350089.523
 117960481.282 7  91917435.66545  22447097.508                    22447103.156
 116327389.349 8  90644778.217 7  22136367.820                    22136378.309
 118045277.768 7  91983396.48945  22463269.641                    22463278.113
 128448110.839 6 100089555.52842  24442879.305                    24442889.793
 11  8 25  2 47  0.0000000  0 10G15G21G26G12G29G05G02G25G30G18
 119162886.209 7  92854270.618 7  22675931.594                    22675940.391
 129230172.354 6 100698877.42542  24591683.898                    24591692.059
 115508288.314 7  90006558.35545  21980484.125                    21980492.543
 120835483.394 7  94157574.969 6  22994225.141                    22994233.305
 111283718.210 7  86714653.415 7  21176587.609                    21176594.488
 112264267.363 8  87478746.205 7  21363137.711                    21363144.730
 118006671.429 7  91953427.98245  22455887.063                    22455892.961
 116379351.911 8  90685268.497 7  22146256.102                    22146266.441
 118104057.710 7  92029199.01845  22474454.820                    22474463.609
 128361341.737 6 100021943.48043  24426366.930                    24426377.836
 11  8 25  2 47 30.0000000  0 10G15G21G26G12G29G05G02G25G30G18
 119071629.518 7  92783161.609 7  22658566.625                    22658574.484
 129173994.667 6 100655102.64543  24580992.906                    24581001.984
 115440621.205 7  89953830.80345  21967608.180                    21967615.609
 120926169.080 7  94228239.094 6  23011481.578                    23011490.277
 111220123.911 7  86665099.436 7  21164485.992                    21164493.086
 112333157.717 8  87532426.988 7  21376247.070                    21376254.063
 118052961.308 7  91989498.01045  22464695.344                    22464701.781
 116431720.470 8  90726075.148 7  22156221.445                    22156231.949
 118163205.500 7  92075288.17745  22485710.281                    22485719.066
 128274756.403 6  99954474.65943  24409891.086                    24409901.590
 11  8 25  2 48  0.0000000  0 10G15G21G26G12G29G05G02G25G30G18
 118980549.354 7  92712190.166 7  22641234.578                    22641242.758
 129117791.266 6 100611307.85943  24570298.227                    24570306.332
 115373396.279 7  89901447.79845  21954814.727                    21954822.988
 121016984.894 7  94299004.618 6  23028763.469                    23028772.191
 111156828.766 8  86615778.559 7  21152441.258                    21152448.672
 112402331.199 8  87586328.414 7  21389410.773                    21389417.328
 118099351.107 7  92025645.90645  22473523.320                    22473528.883
 116484492.583 8  90767196.249 7  22166263.656                    22166274.273
 118222718.299 7  92121661.75845  22497034.914                    22497043.910
 128188356.009 6  99887149.92443  24393448.742                    24393459.383
 11  8 25  2 48 30.0000000  0 10G15G21G26G12G29G05G02G25G30G18
 118889648.002 7  92641358.044 6  22623935.852                    22623944.566
 129061561.273 6 100567492.35143  24559598.500                    24559606.184
 115306616.845 7  89849411.93445  21942107.758                    21942115.281
 121107927.300 7  94369868.771 7  23046069.297                    23046078.289
 111093834.294 8  86566691.978 7  21140453.734                    21140461.219
 112471784.706 8  87640448.026 7  21402626.547                    21402633.695
 118145841.067 7  92061871.83845  22482370.391                    22482375.871
 116537665.229 8  90808629.450 7  22176382.094                    22176392.406
 118282592.771 7  92168317.16445  22508429.234                    22508437.602
 128102141.539 6  99819970.08643  24377042.477                    24377052.637
 11  8 25  2 49  0.0000000  0 10G15G21G26G12G29G05G02G25G30G18
 118798928.961 7  92570667.978 6  22606672.555                    22606681.191
 129005303.937 7 100523655.49843  24548892.391                    24548900.305
 115240286.156 7  89797725.74545  21929485.039                    21929493.262
 121198993.402 7  94440829.320 6  23063399.219                    23063407.379
 111031143.199 7  86517841.790 7  21128524.055                    21128531.152
 112541515.924 8  87694784.033 7  21415896.375                    21415903.340
 118192431.766 7  92098176.27745  22491236.141                    22491242.066
 116591235.643 8  90850372.604 7  22186576.156                    22186586.316
 118342825.853 7  92215252.00245  22519891.391                    22519899.551
 128016114.444 6  99752936.23043  24360672.258                    24360682.324
 11  8 25  2 49 30.0000000  0 10G15G21G26G12G29G05G02G25G30G18
 118708395.385 7  92500122.423 7  22589444.641                    22589452.848
 128949019.357 7 100479797.42143  24538182.109                    24538189.789
 115174407.648 7  89746391.90945  21916948.258                    21916956.945
 121290180.135 7  94511883.858 7  23080751.477                    23080759.578
 110968758.437 8  86469230.312 7  21116652.945                    21116660.172
 112611522.553 8  87749334.649 7  21429218.039                    21429225.125
 118239123.851 7  92134559.72145  22500121.633                    22500126.523
 116645201.456 8  90892423.863 7  22196845.688                    22196856.168
 118403414.896 7  92262464.21945  22531420.867                    22531429.484
 127930275.508 6  99686048.96543  24344337.484                    24344347.895
 11  8 25  2 50  0.0000000  0 10G15G21G26G12G29G05G02G25G30G18
 118618050.845 7  92429724.182 7  22572252.719                    22572261.094
 128892707.379 6 100435917.99143  24527466.727                    24527473.781
 115108985.170 7  89695413.41445  21904498.406                    21904506.977
 121381485.024 7  94583030.483 6  23098126.047                    23098134.023
 110906682.933 7  86420859.805 7  21104840.047                    21104847.629
 112681802.545 8  87804098.280 7  21442591.820                    21442598.563
 118285917.863 7  92171022.58045  22509026.109                    22509031.660
 116699560.361 8  90934781.435 7  22207189.867                    22207200.547
 118464357.150 7  92309951.66645  22543017.766                    22543026.477
 127844626.603 6  99619309.78943  24328038.156                    24328049.020
 11  8 25  2 50 30.0000000  0 10G15G21G26G12G29G05G02G25G30G18
 118527897.744 7  92359475.093 7  22555097.000                    22555105.188
 128836366.484 6 100392016.09543  24516745.086                    24516752.527
 115044021.061 7  89644792.09045  21892136.992                    21892144.871
 121472904.225 7  94654266.189 7  23115522.352                    23115530.566
 110844917.203 7  86372730.698 7  21093086.883                    21093093.934
 112752352.561 8  87859072.311 7  21456017.250                    21456023.953
 118332813.652 7  92207564.74845  22517950.320                    22517955.445
 116754308.801 7  90977442.536 7  22217607.953                    22217618.676
 118525648.996 7  92357711.52245  22554681.344                    22554689.621
 127759168.300 6  99552719.09143  24311775.953                    24311786.914
 11  8 25  2 51  0.0000000  0 10G15G21G26G12G29G05G02G25G30G18
 118437940.105 7  92289378.323 7  22537978.367                    22537987.008
 128779997.077 6 100348091.93143  24506017.469                    24506025.852
 114979519.451 7  89594531.15545  21879862.375                    21879870.383
 121564435.288 7  94725589.055 7  23132940.391                    23132948.547
 110783465.007 8  86324845.901 7  21081392.211                    21081399.793
 112823170.579 8  87914255.183 7  21469493.250                    21469500.531
 118379812.051 7  92244186.87945  22526893.406                    22526898.887
 116809444.799 8  91020405.630 7  22228100.047                    22228110.539
 118587287.858 7  92405741.77444  22566410.664                    22566418.996
 127673902.215 6  99486278.16343  24295550.500                    24295560.953
 11  8 25  2 51 30.0000000  0 10G15G21G26G12G29G05G02G25G30G18
 118348180.059 7  92219435.517 7  22520897.945                    22520906.035
 128723598.360 6 100304145.01243  24495285.656                    24495293.582
 114915483.113 7  89544632.77445  21867676.633                    21867684.828
 121656074.846 7  94796996.456 6  23150379.297                    23150387.422
 110722328.191 8  86277206.857 7  21069758.625                    21069765.848
 112894254.043 8  87969644.893 7  21483019.898                    21483027.328
 118426913.430 7  92280889.24045  22535856.742                    22535862.102
 116864965.176 7  91063668.241 7  22238665.375                    22238675.910
 118649270.446 7  92454039.87545  22578205.695                    22578214.664
 127588829.002 6  99419987.56443  24279361.430                    24279371.723
 11  8 25  2 52  0.0000000  0 10G15G21G26G12G29G05G02G25G30G18
 118258621.520 7  92149649.711 7  22503855.875                    22503863.211
 128667170.531 6 100260175.38043  24484547.805                    24484555.738
 114851916.072 7  89495100.07845  21855580.391                    21855588.313
 121747820.506 7  94868486.540 6  23167837.484                    23167845.629
 110661509.975 8  86229816.068 7  21058185.383                    21058192.426
 112965601.032 8  88025239.939 7  21496596.781                    21496603.844
 118474118.353 7  92317672.30245  22544839.633                    22544845.148
 116920867.836 8  91107228.738 7  22249302.914                    22249313.816
 118711594.332 7  92502603.91945  22590065.586                    22590073.977
 127503950.264 6  99353848.48143  24263209.398                    24263219.395
 11  8 25  2 52 30.0000000  0 10G15G21G26G12G29G05G02G25G30G18
 118169267.619 7  92080023.360 7  22486851.867                    22486859.766
 128610712.353 6 100216182.09343  24473804.195                    24473811.434
 114788821.042 7  89445935.17045  21843573.695                    21843581.816
 121839668.337 7  94940056.238 6  23185315.938                    23185323.863
 110601012.252 7  86182675.029 7  21046672.789                    21046680.086
 113037208.647 8  88081038.076 7  21510223.508                    21510230.250
 118521427.330 7  92354536.42645  22553842.352                    22553847.793
 116977149.724 7  91151084.733 7  22260013.391                    22260024.254
 118774256.027 7  92551431.18245  22601990.102                    22601998.398
 127419267.250 6  99287861.91443  24247095.500                    24247104.543
 11  8 25  2 53  0.0000000  0 10G15G21G26G12G29G05G02G25G30G18
 118080120.918 7  92010558.486 7  22469887.844                    22469895.289
 128554223.877 6 100172165.18843  24463055.102                    24463062.309
 114726200.803 7  89397140.23045  21831657.523                    21831665.449
 121931615.481 7  95011703.326 6  23202812.797                    23202820.594
 110540837.244 8  86135785.448 7  21035221.992                    21035229.359
 113109074.122 8  88137037.144 7  21523899.023                    21523905.918
 118568840.517 7  92391481.76245  22562864.352                    22562869.715
 117033807.790 7  91195233.854 7  22270794.844                    22270805.434
 118837252.408 7  92600519.25345  22613977.508                    22613986.211
 127334780.337 6  99222028.18242  24231018.227                    24231027.207
 11  8 25  2 53 30.0000000  0 10G15G21G26G12G29G05G02G25G30G18
 117991184.900 7  91941257.765 7  22452963.586                    22452971.715
 128497704.179 6 100128123.94443  24452298.703                    24452307.059
 114664059.353 7  89348718.37345  21819832.359                    21819840.117
 122023659.057 6  95083425.555 6  23220328.047                    23220336.117
 110480987.380 7  86089149.227 7  21023832.375                    21023839.898
 113181195.521 8  88193235.639 7  21537623.234                    21537630.246
 118616358.744 7  92428508.94445  22571906.828                    22571912.043
 117090839.492 7  91239674.125 7  22281648.102                    22281658.324
 118900580.456 7  92649865.75344  22626028.813                    22626036.895
 127250491.044 6  99156348.39942  24214977.680                    24214986.648
 11  8 25  2 54  0.0000000  0 10G15G21G26G12G29G05G02G25G30G18
 117902462.625 7  91872123.593 7  22436080.438                    22436088.742
 128441153.234 6 100084058.37143  24441538.094                    24441545.883
 114602399.777 7  89300672.00145  21808099.344                    21808107.109
 122115796.201 6  95155220.673 6  23237860.781                    23237868.875
 110421464.988 7  86042768.176 7  21012505.695                    21012513.113
 113253570.188 8  88249631.479 7  21551396.141                    21551402.898
 118663982.208 7  92465618.13144  22580969.188                    22580974.906
 117148242.118 7  91284403.440 7  22292571.180                    22292581.719
 118964237.314 7  92699468.48044  22638142.086                    22638150.465
 127166400.573 6  99090823.55042  24198975.398                    24198984.961
 11  8 25  2 54 30.0000000  0 10G15G21G26G12G29G05G02G25G30G18
 117813957.662 7  91803158.768 7  22419238.414                    22419246.434
 128384570.642 6 100039968.13543  24430770.688                    24430778.066
 114541225.401 7  89253003.70945  21796457.453                    21796465.727
 122208024.210 6  95227086.585 6  23255411.500                    23255420.281
 110362273.294 8  85996644.824 7  21001241.844                    21001249.484
 113326195.834 8  88306222.889 7  21565215.789                    21565223.133
 118711711.749 7  92502809.97444  22590052.453                    22590057.465
 117206013.210 7  91329419.856 7  22303564.922                    22303575.305
 119028220.164 7  92749325.23545  22650317.516                    22650326.547
 127082510.512 6  99025454.86142  24183010.805                    24183020.871
 11  8 25  2 55  0.0000000  0 10G15G21G26G12G29G05G02G25G30G18
 117725672.229 7  91734364.993 7  22402438.133                    22402446.035
 128327955.521 6  99995852.53843  24419996.813                    24420004.668
 114480539.020 7  89205715.66845  21784909.484                    21784917.426
 122300339.523 6  95299020.542 6  23272978.500                    23272987.117
 110303413.337 8  85950779.948 7  20990041.680                    20990048.719
 113399069.787 8  88363007.793 7  21579083.508                    21579090.270
 118759547.215 7  92540084.36445  22599154.609                    22599160.250
 117264149.236 7  91374720.643 7  22314627.906                    22314638.305
 119092525.139 7  92799432.98745  22662554.414                    22662563.094
 126998821.090 6  98960242.52343  24167085.344                    24167095.434
 11  8 25  2 55 30.0000000  0 10G15G21G26G12G29G05G02G25G30G18
 117637609.639 7  91665744.868 7  22385680.766                    22385688.293
 128271307.723 6  99951711.49043  24409217.102                    24409224.668
 114420343.507 7  89158810.11245  21773454.680                    21773462.535
 122392738.984 7  95371020.091 6  23290561.617                    23290570.098
 110244887.798 8  85905175.667 7  20978904.453                    20978911.883
 113472189.453 8  88419984.159 7  21592997.516                    21593005.117
 118807489.309 7  92577441.83344  22608277.633                    22608283.500
 117322647.706 7  91420303.861 7  22325759.273                    22325769.988
 119157149.599 7  92849789.67544  22674852.109                    22674861.043
 126915333.355 6  98895187.37843  24151198.758                    24151208.469
 11  8 25  2 56  0.0000000  0 10G15G21G26G12G29G05G02G25G30G18
 117549773.492 7  91597301.190 7  22368965.453                    22368973.598
 128214626.972 6  99907544.76443  24398430.539                    24398438.672
 114360642.447 7  89112289.85145  21762093.898                    21762101.457
 122485219.679 6  95443082.936 6  23308159.797                    23308168.680
 110186699.361 7  85859834.058 7  20967831.586                    20967838.836
 113545552.713 8  88477150.335 7  21606958.234                    21606965.039
 118855538.475 7  92614882.73444  22617420.984                    22617426.684
 117381505.835 7  91466167.322 7  22336960.250                    22336970.512
 119222090.431 7  92900392.88845  22687209.586                    22687218.715
 126832048.860 6  98830290.56943  24135349.820                    24135359.031
 11  8 25  2 56 30.0000000  0 10G15G21G26G12G29G05G02G25G30G18
 117462166.776 7  91529036.290 7  22352294.750                    22352302.480
 128157912.939 6  99863352.10243  24387638.703                    24387646.672
 114301439.366 7  89066157.62445  21750827.852                    21750835.871
 122577778.739 6  95515206.829 6  23325773.938                    23325782.305
 110128850.560 7  85814757.096 7  20956823.469                    20956830.391
 113619157.165 8  88534504.468 7  21620964.414                    21620971.164
 118903695.335 7  92652407.54944  22626584.891                    22626590.609
 117440721.014 7  91512309.015 7  22348228.164                    22348238.910
 119287344.758 7  92951240.39644  22699627.273                    22699635.910
 126748968.509 6  98765552.83843  24119540.375                    24119549.773
 11  8 25  2 57  0.0000000  0 10G15G21G26G12G29G05G02G25G30G18
 117374792.212 7  91460952.286 7  22335667.883                    22335675.336
 128101164.751 6  99819132.81343  24376839.305                    24376846.781
 114242736.616 7  89020415.25945  21739657.148                    21739664.758
 122670412.780 7  95587389.139 6  23343401.609                    23343409.980
 110071342.873 8  85769945.929 7  20945880.039                    20945886.984
 113693000.160 8  88592044.461 7  21635016.430                    21635023.613
 118951959.979 7  92690016.36545  22635769.563                    22635774.988
 117500289.849 7  91558726.270 7  22359563.688                    22359574.418
 119352908.963 7  93002329.35445  22712103.484                    22712112.645
 126666093.184 7  98700974.87243  24103769.180                    24103778.352
 11  8 25  2 57 30.0000000  0 10G15G21G26G12G29G05G02G25G30G18
 117287653.355 7  91393051.942 7  22319086.008                    22319093.625
 128044382.304 6  99774886.82843  24366033.875                    24366042.188
 114184537.960 7  88975065.70545  21728582.359                    21728590.289
 122763119.292 7  95659627.912 6  23361043.359                    23361051.164
 110014179.374 8  85725402.958 7  20935002.023                    20935009.402
 113767079.493 8  88649768.628 7  21649113.438                    21649120.535
 119000333.244 7  92727709.81145  22644974.953                    22644979.746
 117560210.019 7  91605417.290 7  22370965.992                    22370976.570
 119418780.471 7  93053657.76344  22724637.883                    22724647.609
 126583424.100 7  98636557.55243  24088037.531                    24088046.730
 11  8 25  2 58  0.0000000  0 10G15G21G26G12G29G05G02G25G30G18
 117200753.116 7  91325337.534 7  22302549.180                    22302557.012
 127987565.449 6  99730614.03943  24355222.531                    24355230.379
 114126846.024 7  88930110.98645  21717604.180                    21717611.383
 122855895.286 7  95731920.840 6  23378697.633                    23378705.984
 109957362.588 8  85681130.155 7  20924190.156                    20924197.727
 113841392.538 8  88707674.898 7  21663254.633                    21663261.535
 119048815.480 7  92765488.18944  22654200.914                    22654205.949
 117620478.474 7  91652379.716 7  22382434.633                    22382445.211
 119484955.905 7  93105223.01345  22737231.805                    22737240.461
 126500962.205 6  98572301.77443  24072344.922                    24072354.621
 11  8 25  2 58 30.0000000  0 10G15G21G26G12G29G05G02G25G30G18
 117114094.570 7  91257811.468 7  22286059.070                    22286066.199
 127930713.709 6  99686314.11243  24344403.977                    24344411.883
 114069664.041 7  88885553.63745  21706721.625                    21706729.910
 122948737.442 7  95804265.331 6  23396364.883                    23396373.273
 109900894.479 8  85637129.030 7  20913444.516                    20913451.922
 113915936.798 8  88765761.343 7  21677439.625                    21677446.484
 119097407.211 7  92803351.87045  22663447.359                    22663452.750
 117681092.274 7  91699611.234 7  22393968.984                    22393979.887
 119551432.137 7  93157022.65044  22749881.672                    22749890.391
 126418708.279 6  98508207.94643  24056692.352                    24056701.980
 11  8 25  2 59  0.0000000  0 10G15G21G26G12G29G05G02G25G30G18
 117027680.819 7  91190476.136 7  22269614.648                    22269622.367
 127873826.477 6  99641986.49643  24333578.250                    24333586.273
 114012994.848 7  88841395.85745  21695938.234                    21695946.277
 123041642.854 7  95876659.117 6  23414044.031                    23414053.098
 109844777.370 8  85593401.431 7  20902765.914                    20902773.074
 113990709.586 8  88824025.853 7  21691669.172                    21691675.832
 119146109.039 7  92841301.35345  22672715.609                    22672720.625
 117742048.600 7  91747109.645 7  22405568.727                    22405579.699
 119618205.995 7  93209054.18944  22762588.570                    22762596.984
 126336663.484 6  98444277.13543  24041079.773                    24041089.359
 11  8 25  2 59 30.0000000  0 10G15G21G26G12G29G05G02G25G30G18
 116941515.098 7  91123334.090 7  22253217.594                    22253225.055
 127816903.504 6  99597631.02843  24322746.234                    24322754.309
 113956841.704 7  88797640.20245  21685253.281                    21685260.371
 123134608.506 6  95949099.843 6  23431734.789                    23431743.938
 109789013.666 8  85549949.196 7  20892154.594                    20892161.477
 114065709.105 8  88882467.049 7  21705940.727                    21705947.738
 119194921.171 7  92879336.76944  22682004.125                    22682009.266
 117803344.579 7  91794872.731 7  22417232.867                    22417243.609
 119685274.490 7  93261315.34344  22775351.227                    22775359.742
 126254828.978 6  98380510.18543  24025507.719                    24025516.805
 11  8 25  3  0  0.0000000  0 10G15G21G26G12G29G05G02G25G30G18
 116855600.559 7  91056387.754 7  22236868.508                    22236875.711
 127759943.980 6  99553247.04643  24311907.531                    24311915.012
 113901207.718 7  88754289.07945  21674665.750                    21674673.773
 123227631.578 6  96021585.295 6  23449437.109                    23449445.715
 109733605.870 8  85506774.297 7  20881610.305                    20881617.727
 114140932.895 8  88941082.983 7  21720255.438                    21720262.129
 119243844.406 7  92917458.77445  22691313.859                    22691319.012
 117864977.571 7  91842898.434 7  22428961.555                    22428972.012
 119752634.568 7  93313803.68244  22788169.141                    22788177.945
 126173205.978 6  98316908.02143  24009974.867                    24009984.762
 11  8 25  3  0 30.0000000  0 10G15G21G26G12G29G05G02G25G30G18
 116769940.258 7  90989639.535 7  22220568.203                    22220575.809
 127702948.113 6  99508834.77344  24301060.641                    24301068.836
 113846095.758 7  88711344.73245  21664178.922                    21664186.184
 123320709.099 6  96094113.151 6  23467149.305                    23467157.574
 109678556.446 8  85463878.651 7  20871134.867                    20871141.820
 114216378.366 8  88999871.677 7  21734612.141                    21734619.012
 119292879.131 7  92955667.63244  22700644.844                    22700650.426
 117926944.401 7  91891184.261 7  22440753.422                    22440763.914
 119820283.065 7  93366516.76244  22801042.414                    22801051.039
 126091795.053 6  98253471.12343  23994482.703                    23994492.094
 11  8 25  3  1  0.0000000  0 10G15G21G26G12G29G05G02G25G30G18
 116684537.063 7  90923091.651 7  22204316.008                    22204323.574
 127645915.458 7  99464393.83644  24290208.680                    24290216.313
 113791509.054 7  88668809.67345  21653791.211                    21653798.695
 123413838.182 6  96166681.188 6  23484870.672                    23484879.590
 109623867.502 8  85421263.898 7  20860728.008                    20860735.313
 114292042.973 8  89058831.109 7  21749010.688                    21749017.695
 119342025.700 7  92993963.65344  22709997.016                    22710002.289
 117989242.132 7  91939727.926 7  22452608.000                    22452618.902
 119888216.687 7  93419452.03344  22813969.547                    22813978.652
 126010597.343 6  98190200.33643  23979031.352                    23979040.273
 11  8 25  3  1 30.0000000  0 10G15G21G26G12G29G05G02G25G30G18
 116599394.844 7  90856747.125 7  22188113.891                    22188121.566
 127588845.821 6  99419924.07943  24279348.352                    24279355.730
 113737450.411 7  88626686.08745  21643503.938                    21643511.316
 123507015.867 6  96239287.114 6  23502601.617                    23502610.938
 109569541.539 8  85378931.989 8  20850390.367                    20850397.316
 114367924.807 8  89117959.805 7  21763450.742                    21763457.512
 119391284.772 7  93032347.37245  22719370.484                    22719375.719
 118051868.220 7  91988527.444 7  22464525.898                    22464536.336
 119956432.640 7  93472607.31044  22826950.883                    22826959.480
 125929613.785 6  98127096.45243  23963620.305                    23963629.156
 11  8 25  3  2  0.0000000  0 10G15G21G26G12G29G05G02G25G30G18
 116514515.712 7  90790607.604 7  22171962.055                    22171969.438
 127531738.308 6  99375424.78943  24268480.086                    24268488.500
 113683922.458 7  88584976.02545  21633318.102                    21633325.539
 123600238.712 6  96311928.217 6  23520341.664                    23520350.707
 109515580.383 8  85336884.340 7  20840121.578                    20840128.820
 114444020.890 8  89177255.459 7  21777931.398                    21777938.254
 119440656.602 7  93070818.92345  22728765.969                    22728770.785
 118114819.201 7  92037580.151 7  22476504.992                    22476515.598
 120024927.277 7  93525979.73144  22839984.367                    22839993.426
 125848845.414 6  98064160.22643  23948251.172                    23948259.305
 11  8 25  3  2 30.0000000  0 10G15G21G26G12G29G05G02G25G30G18
 116429903.287 7  90724675.907 7  22155860.484                    22155868.012
 127474592.928 6  99330896.01443  24257606.297                    24257613.934
 113630928.406 7  88543681.99445  21623233.445                    21623240.930
 123693504.306 6  96384602.655 6  23538090.242                    23538098.895
 109461986.905 8  85295123.211 7  20829923.336                    20829930.113
 114520329.144 8  89236716.424 7  21792451.906                    21792459.113
 119490141.891 7  93109378.88845  22738182.492                    22738188.016
 118178092.567 7  92086884.052 7  22488545.117                    22488556.488
 120093697.789 7  93579567.11744  22853072.047                    22853080.609
 125768293.435 6  98001392.64942  23932921.250                    23932931.191
 11  8 25  3  3  0.0000000  0 10G15G21G26G12G29G05G02G25G30G18
 116345560.886 7  90658954.612 7  22139810.969                    22139818.418
 127417409.599 6  99286337.64943  24246724.281                    24246732.121
 113578471.751 7  88502806.70945  21613251.305                    21613258.617
 123786809.875 6  96457308.266 6  23555845.016                    23555854.125
 109408763.784 8  85253650.668 8  20819795.070                    20819802.555
 114596847.666 8  89296341.246 7  21807012.844                    21807019.809
 119539741.242 7  93148027.73345  22747620.578                    22747626.516
 118241685.578 7  92136437.026 7  22500646.719                    22500657.688
 120162741.330 7  93633367.25544  22866209.852                    22866218.738
 125687958.699 6  97938794.30143  23917634.430                    23917643.469
 11  8 25  3  3 30.0000000  0 10G15G21G26G12G29G05G02G25G30G18
 116261490.835 7  90593445.543 7  22123812.945                    22123820.813
 127360187.342 6  99241748.92443  24235835.359                    24235842.398
 113526554.183 7  88462351.49245  21603371.391                    21603379.047
 123880151.682 7  96530042.114 6  23573607.875                    23573616.586
 109355911.869 8  85212467.389 8  20809737.836                    20809745.203
 114673573.089 8  89356127.276 7  21821613.086                    21821620.078
 119589454.698 7  93186765.48645  22757081.203                    22757086.848
 118305594.487 7  92186236.159 7  22512808.188                    22512818.586
 120232053.877 7  93687376.99644  22879399.844                    22879408.383
 125607841.344 6  97876365.32443  23902388.539                    23902397.711
 11  8 25  3  4  0.0000000  0 10G15G21G26G12G29G05G02G25G30G18
 116177696.887 7  90528151.624 7  22107867.203                    22107874.813
 127302926.160 6  99197129.87543  24224938.906                    24224946.773
 113475179.395 7  88422319.22345  21593595.078                    21593602.711
 123973527.119 7  96602802.136 6  23591376.469                    23591385.176
 109303434.646 8  85171576.070 7  20799751.828                    20799758.871
 114750503.779 8  89416073.271 7  21836253.000                    21836259.645
 119639283.191 7  93225592.87745  22766563.125                    22766568.652
 118369817.013 7  92236279.669 7  22525029.211                    22525039.938
 120301632.869 7  93741594.36044  22892640.469                    22892649.297
 125527943.143 6  97814107.12243  23887184.742                    23887193.492
 11  8 25  3  4 30.0000000  0 10G15G21G26G12G29G05G02G25G30G18
 116094181.390 7  90463074.662 7  22091975.211                    22091982.488
 127245625.807 6  99152480.30543  24214035.078                    24214042.379
 113424349.889 7  88382711.84245  21583923.117                    21583930.059
 124066933.527 7  96675586.292 6  23609151.141                    23609159.926
 109251334.204 7  85130978.351 7  20789837.086                    20789844.395
 114827636.959 8  89476177.046 7  21850930.695                    21850937.516
 119689227.034 7  93264510.14745  22776067.164                    22776072.395
 118434349.899 7  92286565.014 7  22537309.742                    22537320.184
 120371474.905 7  93796016.70844  22905930.742                    22905939.449
 125448264.527 6  97752020.02043  23872022.367                    23872030.742
 11  8 25  3  5  0.0000000  0 10G15G21G26G12G29G05G02G25G30G18
 116010948.192 7  90398217.694 7  22076136.484                    22076143.859
 127188286.043 7  99107800.01043  24203123.992                    24203131.090
 113374068.679 7  88343531.70045  21574354.453                    21574362.309
 124160367.604 7  96748392.018 6  23626930.586                    23626939.152
 109199612.475 8  85090675.731 7  20779994.766                    20780002.164
 114904970.230 8  89536436.724 7  21865646.984                    21865653.563
 119739286.722 7  93303517.69645  22785593.125                    22785598.434
 118499190.250 7  92337089.941 7  22549648.625                    22549658.813
 120441576.966 7  93850641.67344  22919270.750                    22919279.578
 125368806.384 7  97690104.72643  23856901.672                    23856910.676
 11  8 25  3  5 30.0000000  0 10G15G21G26G12G29G05G02G25G30G18
 115927999.569 7  90333582.460 7  22060351.641                    22060359.031
 127130906.128 7  99063088.40943  24192204.516                    24192212.207
 113324337.909 7  88304780.48545  21564891.109                    21564898.324
 124253826.374 7  96821216.977 6  23644715.313                    23644723.738
 109148271.551 8  85050669.854 8  20770225.219                    20770232.340
 114982501.283 8  89596850.535 7  21880400.156                    21880407.328
 119789462.456 7  93342615.65745  22795140.930                    22795146.770
 118564334.737 7  92387851.856 7  22562045.086                    22562055.691
 120511935.400 6  93905466.39844  22932659.719                    22932668.539
 125289569.775 6  97628362.04243  23841823.211                    23841832.094
 11  8 25  3  6  0.0000000  0 10G15G21G26G12G29G05G02G25G30G18
 115845339.521 7  90269172.089 7  22044621.375                    22044629.484
 127073486.466 7  99018345.86043  24181278.047                    24181285.770
 113275161.487 8  88266461.21745  21555533.570                    21555540.676
 124347307.272 7  96894059.177 6  23662505.078                    23662513.211
 109097314.632 8  85010963.199 7  20760528.133                    20760535.363
 115060228.087 8  89657416.874 7  21895191.180                    21895198.375
 119839755.278 7  93381804.86744  22804711.164                    22804717.074
 118629781.052 7  92438848.949 7  22574498.930                    22574509.613
 120582547.813 7  93960489.01444  22946096.367                    22946105.371
 125210556.016 6  97566793.01543  23826786.250                    23826795.910
 11  8 25  3  6 30.0000000  0 10G15G21G26G12G29G05G02G25G30G18
 115762970.655 7  90204988.617 7  22028947.242                    22028955.109
 127016026.208 6  98973571.66543  24170343.422                    24170350.859
 113226541.371 8  88228575.44045  21546281.219                    21546288.445
 124440807.257 7  96966916.257 6  23680297.172                    23680306.336
 109046743.452 8  84971557.113 7  20750904.539                    20750911.699
 115138148.212 8  89718133.856 7  21910018.969                    21910025.852
 119890165.461 7  93421085.52344  22814304.281                    22814309.836
 118695525.953 7  92490078.722 7  22587009.891                    22587020.527
 120653410.592 7  94015706.73044  22959581.281                    22959590.414
 125131765.541 6  97505397.97343  23811794.141                    23811802.211
 11  8 25  3  7  0.0000000  0 10G15G21G26G12G29G05G02G25G30G18
 115680895.811 7  90141034.249 7  22013328.750                    22013336.730
 126958525.053 6  98928765.60243  24159401.219                    24159408.832
 113178480.364 7  88191125.33245  21537135.047                    21537142.984
 124534323.402 7  97039785.919 6  23698093.086                    23698102.090
 108996560.042 8  84932453.195 7  20741355.352                    20741362.484
 115216258.986 8  89778999.388 7  21924883.070                    21924889.828
 119940693.563 7  93460458.06145  22823919.688                    22823925.105
 118761566.200 7  92541538.636 7  22599576.781                    22599587.891
 120724520.456 7  94071116.98644  22973113.484                    22973121.945
 125053198.939 6  97444177.32443  23796843.000                    23796851.836
 11  8 25  3  7 30.0000000  0 10G15G21G26G12G29G05G02G25G30G18
 115599118.629 7  90077311.834 7  21997767.094                    21997774.703
 126900983.111 6  98883927.76543  24148451.961                    24148458.977
 113130981.727 8  88154113.42745  21528096.320                    21528103.707
 124627853.114 6  97112666.137 6  23715891.031                    23715899.613
 108946767.452 8  84893653.799 8  20731879.734                    20731886.844
 115294558.606 8  89840012.069 7  21939783.094                    21939790.176
 119991340.187 7  93499922.95244  22833557.289                    22833563.148
 118827899.281 7  92593226.722 7  22612199.977                    22612210.582
 120795874.703 7  94126717.68244  22986691.320                    22986700.035
 124974857.867 6  97383132.44743  23781935.102                    23781943.887
 11  8 25  3  8  0.0000000  0 10G15G21G26G12G29G05G02G25G30G18
 115517641.691 7  90013823.363 7  21982262.688                    21982269.961
 126843399.820 6  98839057.72543  24137494.344                    24137501.684
 113084047.686 7  88117541.47245  21519165.438                    21519172.852
 124721393.053 6  97185554.318 6  23733690.430                    23733699.688
 108897367.105 8  84855160.061 8  20722479.289                    20722486.449
 115373044.250 8  89901169.721 7  21954718.672                    21954725.176
 120042105.563 7  93539480.36244  22843217.672                    22843223.254
 118894521.741 7  92645140.293 7  22624877.719                    22624888.555
 120867469.664 7  94182505.92244  23000316.117                    23000324.715
 124896742.478 6  97322263.41143  23767070.008                    23767079.156
 11  8 25  3  8 30.0000000  0 10G15G21G26G12G29G05G02G25G30G18
 115436468.265 7  89950571.393 7  21966816.008                    21966823.570
 126785775.352 6  98794155.57843  24126528.289                    24126536.078
 113037681.385 8  88081411.91045  21510342.336                    21510349.375
 124814940.715 6  97258448.503 6  23751491.672                    23751501.199
 108848361.919 8  84816974.223 7  20713154.078                    20713161.043
 115451713.954 8  89962470.780 7  21969688.711                    21969695.785
 120092990.313 7  93579130.79744  22852900.172                    22852906.582
 118961431.054 7  92697277.390 7  22637609.977                    22637620.738
 120939302.701 7  94238479.68844  23013984.633                    23013993.906
 124818854.137 6  97261571.35043  23752248.672                    23752257.016
 11  8 25  3  9  0.0000000  0 10G15G21G26G12G29G05G02G25G30G18
 115355600.758 7  89887557.802 7  21951427.578                    21951434.289
 126728108.649 6  98749220.55343  24115554.469                    24115561.793
 112991884.566 7  88045726.10445  21501627.375                    21501634.695
 124908492.588 6  97331345.962 6  23769294.656                    23769303.516
 108799752.982 7  84779097.159 8  20703903.578                    20703910.805
 115530564.836 8  90023913.022 7  21984693.516                    21984700.137
 120143994.635 7  93618874.41044  22862606.055                    22862612.043
 119028623.330 7  92749634.988 7  22650396.477                    22650406.949
 121011369.572 7  94294635.65744  23027699.328                    23027708.566
 124741193.182 6  97201056.47243  23737469.922                    23737478.809
 11  8 25  3  9 30.0000000  0 10G15G21G26G12G29G05G02G25G30G18
 115275042.872 7  89824785.471 7  21936097.563                    21936105.180
 126670400.067 6  98704252.88243  24104572.992                    24104580.281
 112946660.248 8  88010486.40745  21493021.133                    21493028.793
 125002046.246 7  97404244.822 6  23787097.828                    23787106.363
 108751543.558 8  84741531.394 8  20694729.953                    20694736.887
 115609595.211 8  90085495.124 7  21999732.742                    21999739.801
 120195119.485 7  93658711.92244  22872334.859                    22872340.238
 119096096.234 7  92802211.245 7  22663236.102                    22663246.805
 121083667.876 7  94350971.97444  23041456.945                    23041465.918
 124663760.369 6  97140719.32743  23722734.711                    23722743.387
 11  8 25  3 10  0.0000000  0 10G15G21G26G12G29G05G02G25G30G18
 115194797.657 7  89762256.774 7  21920827.375                    21920834.703
 126612649.365 7  98659252.37343  24093583.516                    24093590.609
 112902011.829 7  87975695.46345  21484524.852                    21484532.273
 125095599.096 7  97477143.075 6  23804900.008                    23804908.789
 108703736.509 8  84704279.176 8  20685632.672                    20685639.445
 115688802.869 7  90147215.366 7  22014805.234                    22014811.867
 120246365.782 7  93698644.08544  22882087.133                    22882092.191
 119163846.991 7  92855004.014 7  22676128.648                    22676139.293
 121156194.799 7  94407486.43844  23055258.383                    23055267.094
 124586557.028 7  97080561.00243  23708043.695                    23708052.469
 11  8 25  3 10 30.0000000  0 10G15G21G26G12G29G05G02G25G30G18
 115114867.540 7  89699973.619 7  21905617.398                    21905624.293
 126554855.313 6  98614218.09244  24082585.469                    24082593.043
 112857940.586 8  87941354.26145  21476138.680                    21476145.676
 125189147.832 7  97550038.130 6  23822702.336                    23822710.703
 108656332.310 8  84667340.869 7  20676611.766                    20676618.938
 115768184.823 7  90209071.434 7  22029911.133                    22029918.195
 120297733.164 7  93738670.58544  22891861.633                    22891867.156
 119231871.767 7  92908010.303 7  22689073.430                    22689083.969
 121228946.124 7  94464175.76044  23069102.477                    23069111.348
 124509583.376 7  97020581.62943  23693396.250                    23693403.875
 11  8 25  3 11  0.0000000  0 10G15G21G26G12G29G05G02G25G30G18
 115035255.988 7  89637938.688 7  21890468.031                    21890475.242
 126497018.564 6  98569150.55944  24071579.336                    24071587.410
 112814449.883 8  87907465.43145  21467862.422                    21467869.801
 125282689.511 7  97622927.689 6  23840503.180                    23840511.641
 108609333.827 8  84630718.693 8  20667668.219                    20667675.113
 115847739.159 7  90271061.828 7  22045049.797                    22045056.691
 120349222.366 7  93778792.02444  22901660.070                    22901665.746
 119300167.938 7  92961228.068 7  22702069.883                    22702080.543
 121301919.164 7  94521037.84644  23082988.727                    23082998.027
 124432840.348 6  96960781.94843  23678792.031                    23678800.234
 11  8 25  3 11 30.0000000  0 10G15G21G26G12G29G05G02G25G30G18
 114955965.949 7  89576154.279 7  21875379.359                    21875386.277
 126439138.805 6  98524049.53043  24060564.586                    24060572.922
 112771541.875 7  87874030.64345  21459697.406                    21459704.676
 125376221.280 7  97695809.528 6  23858301.211                    23858309.969
 108562743.182 8  84594414.308 7  20658802.922                    20658809.371
 115927463.544 7  90333184.718 7  22060220.922                    22060227.500
 120400833.870 7  93819008.77444  22911481.055                    22911487.141
 119368732.377 7  93014654.855 7  22715116.828                    22715128.000
 121375110.557 7  94578070.06144  23096916.563                    23096925.633
 124356328.772 7  96901162.61143  23664232.031                    23664240.754
 11  8 25  3 12  0.0000000  0 10G15G21G26G12G29G05G02G25G30G18
 114877000.363 7  89514622.700 7  21860352.680                    21860360.379
 126381215.796 6  98478914.78843  24049542.531                    24049550.164
 112729219.360 7  87841052.09045  21451643.438                    21451650.883
 125469740.538 7  97768681.615 6  23876097.453                    23876105.785
 108516562.662 8  84558429.502 8  20650014.531                    20650021.375
 116007355.657 7  90395438.318 7  22075424.383                    22075430.652
 120452568.130 7  93859321.17544  22921326.367                    22921331.441
 119437562.067 7  93068288.352 7  22728215.023                    22728225.785
 121448517.209 7  94635270.01944  23110885.313                    23110894.547
 124280049.598 7  96841724.36543  23649716.250                    23649725.535
 11  8 25  3 12 30.0000000  0 10G15G21G26G12G29G05G02G25G30G18
 114798362.351 7  89453346.369 7  21845388.344                    21845395.559
 126323249.451 6  98433746.29243  24038512.477                    24038519.762
 112687484.753 7  87808531.64545  21443701.773                    21443708.957
 125563244.644 7  97841541.876 6  23893890.563                    23893899.145
 108470795.024 8  84522766.427 8  20641305.344                    20641312.168
 116087413.301 8  90457820.898 7  22090658.570                    22090664.852
 120504426.066 7  93899729.93544  22931193.859                    22931199.777
 119506654.161 7  93122126.320 7  22741362.914                    22741373.980
 121522136.182 7  94692635.43744  23124894.992                    23124903.871
 124204003.420 7  96782467.67843  23635245.891                    23635254.070
 11  8 25  3 13  0.0000000  0 10G15G21G26G12G29G05G02G25G30G18
 114720054.890 8  89392327.608 7  21830486.883                    21830494.164
 126265239.225 6  98388543.58344  24027473.016                    24027480.574
 112646340.780 7  87776471.43945  21435872.219                    21435880.012
 125656730.540 7  97914387.944 6  23911680.570                    23911689.043
 108425442.048 8  84487426.464 7  20632674.688                    20632681.766
 116167634.281 8  90520330.756 7  22105924.070                    22105930.469
 120556408.013 7  93940235.32444  22941086.125                    22941091.793
 119576005.550 7  93176166.320 7  22754559.867                    22754570.457
 121595964.102 7  94750163.67544  23138943.930                    23138952.344
 124128191.444 7  96723393.48443  23620819.391                    23620827.484
 11  8 25  3 13 30.0000000  0 10G15G21G26G12G29G05G02G25G30G18
 114642080.322 7  89331568.250 7  21815648.328                    21815655.820
 126207184.693 7  98343306.37144  24016425.477                    24016433.605
 112605789.236 7  87744872.85945  21428155.633                    21428163.109
 125750195.109 7  97987217.407 6  23929466.180                    23929474.684
 108380505.434 8  84452410.933 8  20624123.922                    20624130.613
 116248016.123 8  90582965.965 7  22121220.102                    22121227.113
 120608514.215 7  93980837.53644  22951001.422                    22951006.918
 119645612.695 7  93230405.630 7  22767805.484                    22767816.191
 121669997.367 7  94807851.90444  23153031.898                    23153040.805
 124052613.994 7  96664502.05343  23606436.859                    23606445.297
 11  8 25  3 14  0.0000000  0 10G15G21G26G12G29G05G02G25G30G18
 114564442.801 7  89271071.517 7  21800874.727                    21800881.938
 126149086.155 7  98298034.87544  24005370.086                    24005377.195
 112565833.197 8  87713738.30245  21420552.000                    21420559.625
 125843636.177 6  98060028.533 6  23947247.641                    23947255.941
 108335988.189 8  84417722.177 8  20615652.242                    20615659.340
 116328557.097 8  90645725.163 7  22136546.773                    22136553.457
 120660745.728 7  94021537.38544  22960941.578                    22960946.301
 119715473.276 7  93284842.418 7  22781100.000                    22781110.672
 121744233.442 7  94865698.18044  23167158.133                    23167167.188
 123977271.723 7  96605793.88443  23592100.000                    23592108.289
 11  8 25  3 14 30.0000000  0 10G15G21G26G12G29G05G02G25G30G18
 114487144.587 7  89210839.183 7  21786165.266                    21786172.445
 126090943.425 7  98252728.92444  23994305.602                    23994313.199
 112526474.751 8  87683069.40645  21413062.406                    21413069.859
 125937050.421 6  98132818.780 6  23965023.531                    23965032.754
 108291891.792 8  84383361.359 8  20607260.891                    20607268.102
 116409254.499 8  90708606.264 7  22151902.906                    22151909.535
 120713102.588 7  94062334.93244  22970904.414                    22970909.504
 119785583.855 7  93339474.008 7  22794441.242                    22794452.395
 121818668.788 7  94923699.71644  23181323.141                    23181332.277
 123902165.310 7  96547269.47843  23577807.305                    23577815.535
 11  8 25  3 15  0.0000000  0 10G15G21G26G12G29G05G02G25G30G18
 114410188.538 7  89150873.471 7  21771521.047                    21771528.207
 126032756.227 7  98207388.31744  23983232.781                    23983240.367
 112487716.274 8  87652868.01745  21405686.734                    21405694.098
 126030435.400 6  98205586.216 6  23982793.656                    23982803.664
 108248218.779 8  84349330.443 8  20598950.313                    20598957.125
 116490106.309 7  90771607.675 7  22167288.383                    22167295.234
 120765585.379 7  94103230.61344  22980891.383                    22980896.234
 119855941.324 7  93394297.980 7  22807829.883                    22807840.547
 121893300.162 7  94981853.99144  23195524.930                    23195534.152
 123827295.741 7  96488929.62343  23563560.117                    23563568.750
